     2              OBSERVATION DATA    GPS                 RINEX VERSION / TYPE
teqc 1999Jul19 19991104 19:46:15UTC                         PGM / RUN BY / DATE
                                                            COMMENT
Original Marker Name: SWT4                                  COMMENT
Campaign Name: rose canyon fault                            COMMENT
4-Character Station Name: SWT4                              COMMENT
6-Character Antenna Code: DMRCHT                            COMMENT
Vertical Measurement Point: BPA                             COMMENT
Vertical Offset to Rinex Ref. Point: 0.0000                 COMMENT
Radial Measurement Point: RRP                               COMMENT
Radial Offset to Rinex Ref. Point: 0.0000                   COMMENT
Antenna Height from Field Measurement: 0.8900 m             COMMENT
Additional Antenna Identification Info.:                    COMMENT
Turborogue and Ashtech Choke Ring                           COMMENT
Original XYZ: -2440057.0517 -4787339.4405 3424972.3432      COMMENT
New XYZ position is based on association with SCEC monument COMMENT
E1C8P0B7+0041. Position of that monument is believed to be  COMMENT
valid to within 1 m horizontally; vertical accuracy         COMMENT
should be no worse than 3-times this value.                 COMMENT
                                                            COMMENT
Revised Rinex header created by UCSD GPS archive for        COMMENT
GSAC on 09-Dec-1999 (1999:343) 06:28:18 GMT                 COMMENT
For assistance contact dagnew@ucsd.edu or hjohnson@ucsd.edu COMMENT
                                                            COMMENT
SWT4 1998 UCSD SIO IGPP                                     MARKER NAME
SJB SCRIPPS INSTITUTION OF OCEANOGRAPHY                     OBSERVER / AGENCY
378 ASHTECH Z-XII3 CC00                                     REC # / TYPE / VERS
653 DORNE-MARGOL. TYPE T                                    ANT # / TYPE
 -2439989.0000 -4787345.0000  3424967.0000                  APPROX POSITION XYZ
        0.8900        0.0000        0.0000                  ANTENNA: DELTA H/E/N
     1     1     0                                          WAVELENGTH FACT L1/2
     7    C1    L1    L2    P1    P2    S1    S2            # / TYPES OF OBSERV
     0                                                      INTERVAL
  1999    10     4    14    57   30.000000                  TIME OF FIRST OBS
  1999    10     4    22    58    0.000000                  TIME OF LAST OBS
                                                            END OF HEADER
 99 10  4 14 57 30.0000000  0  7G29G23G21G 3G17G26G 9
  22264227.238     -436210.30749   -323651.39446  22264227.856    22264234.916
       227.000         181.000
  21061473.076      -63500.48449    -45614.26247  21061472.806    21061479.908
       243.000         211.000
  21738043.592     -269229.44149   -194188.07247  21738043.466    21738051.022
       238.000         201.000
  22260739.048     -352694.62949   -255397.92046  22260738.362    22260745.988
       230.000         184.000
  20903065.591      -99092.90049    -72007.66747  20903065.319    20903072.553
       241.000         207.000
                    148939.54649     97876.05844                  24138064.783
       210.000         126.000
                   -332741.96949   -241156.70845                  24316346.779
       207.000         133.000
 99 10  4 14 58  0.0000000  0  7G29G23G21G 3G 6G17G26
  22236808.005     -580299.60549   -435928.78146  22236808.358    22236815.897
       228.000         182.000
  21057337.476      -85233.92549    -62549.47447  21057337.199    21057343.922
       243.000         211.000
  21721605.383     -355615.20149   -261501.68547  21721605.036    21721612.343
       239.000         201.000
  22239182.002     -465974.74749   -343668.17746  22239182.235    22239189.257
       229.000         185.000
  23865294.196      191403.31549    136182.85545  23865295.020    23865307.099
       208.000         146.000
  20897021.322     -130855.80049    -96758.04047  20897020.873    20897028.177
       241.000         207.000
  24147756.664      199918.41049    137599.73145  24147757.016    24147766.931
       208.000         141.000
 99 10  4 14 58 30.0000000  0  7G29G23G21G 3G 6G17G26
  22213583.099     -702348.33249   -531031.69546  22213583.106    22213590.786
       227.000         183.000
  21057378.655      -85017.38249    -62380.79347  21057378.480    21057385.254
       244.000         211.000
  21709348.395     -420025.84049   -311691.82747  21709348.291    21709355.523
       239.000         201.000
  22221849.772     -557057.02449   -414641.41946  22221849.704    22221857.213
       229.000         185.000
  23881016.693      274020.06149    200559.28645  23881017.096    23881027.782
       211.000         148.000
  20895174.898     -140558.43449   -104318.59847  20895174.512    20895182.257
       240.000         207.000
  24161639.524      272873.39649    194447.66545  24161638.905    24161648.586
       207.000         142.000
 99 10  4 14 59  0.0000000  0  7G29G23G21G 3G 6G17G26
  22195987.363     -794814.62449   -603083.35246  22195987.478    22195995.371
       228.000         183.000
  21063027.815      -55330.94249    -39248.56047  21063027.829    21063034.631
       244.000         211.000
  21702703.754     -454943.52949   -338900.45147  21702703.571    21702710.750
       239.000         201.000
  22210177.141     -618397.33149   -462439.10446  22210177.434    22210184.539
       230.000         185.000
  23902334.524      386045.28249    287851.43845  23902334.438    23902345.921
       209.000         147.000
  20898958.753     -120674.27749    -88824.51347  20898958.642    20898965.992
       240.000         207.000
  24181134.652      375320.82849    274276.72045  24181134.739    24181144.588
       208.000         143.000
 99 10  4 14 59 30.0000000  0  7G29G23G21G 3G 6G17G26
  22178447.000     -886990.08949   -674908.39846  22178447.430    22178454.898
       228.000         183.000
  21068710.581      -25468.14449    -15978.90347  21068710.545    21068717.595
       244.000         212.000
  21696094.244     -489676.63649   -365965.24547  21696094.017    21696101.561
       239.000         201.000
  22198593.504     -679269.97149   -509872.36846  22198593.543    22198600.497
       230.000         185.000
  23923673.644      498182.01849    375230.46345  23923674.745    23923684.180
       210.000         146.000
  20902800.276     -100487.10949    -73094.31947  20902799.913    20902807.805
       240.000         207.000
  24200667.115      477963.84249    354258.18145  24200668.196    24200676.867
       212.000         144.000
 99 10  4 15  0  0.0000000  0  7G29G23G21G 3G 6G17G26
  22160960.535     -978882.00249   -746512.48446  22160960.386    22160968.330
       228.000         184.000
  21074426.988        4571.44649      7428.51147  21074426.958    21074433.804
       243.000         212.000
  21689520.417     -524222.16649   -392883.87547  21689520.138    21689527.739
       239.000         201.000
  22187101.338     -739661.65949   -556930.87346  22187101.359    22187108.503
       229.000         185.000
  23945030.688      610412.99149    462682.91545  23945030.790    23945041.355
       210.000         145.000
  20906700.036      -79993.95449    -57125.69647  20906699.883    20906707.546
       240.000         207.000
  24220237.187      580804.56849    434393.71045  24220238.018    24220246.856
       212.000         145.000
 99 10  4 15  0 30.0000000  0  7G29G23G21G 3G 6G17G26
  22143525.692    -1070502.64049   -817905.19146  22143526.136    22143533.680
       229.000         184.000
  21080175.377       34779.20949     30966.97547  21080175.328    21080182.200
       244.000         212.000
  21682983.505     -558574.13149   -419651.66947  21682983.313    21682990.549
       239.000         201.000
  22175704.947     -799550.31349   -603597.39846  22175705.079    22175712.572
       229.000         185.000
  23966402.786      722723.48349    550197.35045  23966403.324    23966414.007
       212.000         144.000
  20910656.730      -59201.90149    -40924.16847  20910656.544    20910664.485
       241.000         207.000
  24239846.630      683852.31549    514690.55845  24239847.173    24239855.989
       214.000         145.000
 99 10  4 15  1  0.0000000  0  7G29G23G21G 3G 6G17G26
  22126140.999    -1161860.04049   -889092.77046  22126141.171    22126148.909
       228.000         185.000
  21085954.030       65145.79349     54629.20047  21085954.128    21085961.029
       243.000         212.000
  21676481.824     -592740.81349   -446275.08947  21676481.864    21676489.284
       239.000         201.000
  22164401.574     -858950.05449   -649882.94946  22164401.794    22164408.980
       230.000         186.000
  23987785.791      835091.04549    637756.25245  23987786.321    23987796.510
       211.000         145.000
  20914668.325      -38121.20949    -24497.72347  20914668.216    20914675.615
       240.000         207.000
  24259499.385      787126.94249    595164.20545  24259500.607    24259508.928
       214.000         144.000
 99 10  4 15  1 30.0000000  0  7G29G23G21G 3G 6G17G26
  22108805.492    -1252959.07049   -960079.03246  22108805.702    22108812.958
       229.000         185.000
  21091762.080       95666.94649     78411.86247  21091762.037    21091769.057
       244.000         212.000
  21670017.070     -626713.41249   -472747.28047  21670017.169    21670024.115
       239.000         201.000
  22153186.534     -917886.09249   -695807.18246  22153186.888    22153194.457
       231.000         186.000
  24009176.779      947500.74449    725347.99745  24009176.663    24009188.121
       212.000         145.000
  20918734.699      -16752.65649     -7846.97647  20918734.511    20918742.221
       240.000         207.000
  24279195.411      890629.25549    675815.27745  24279196.552    24279204.186
       211.000         144.000
 99 10  4 15  2  0.0000000  0  7G29G23G21G 3G 6G17G26
  22091520.102    -1343794.90149  -1030860.19346  22091520.239    22091527.730
       230.000         185.000
  21097602.836      126360.12049    102328.57047  21097602.684    21097609.792
       243.000         211.000
  21663592.029     -660477.76249   -499057.19747  21663591.598    21663599.710
       239.000         201.000
  22142057.453     -976370.39849   -741379.41146  22142057.423    22142064.518
       231.000         186.000
  24030576.928     1059958.35049    812977.06645  24030577.737    24030588.665
       212.000         145.000
  20922856.202        4905.63049      9029.54347  20922855.968    20922863.642
       241.000         207.000
  24298936.244      994368.19649    756650.72845  24298936.356    24298945.835
       211.000         142.000
 99 10  4 15  2 30.0000000  0  7G29G23G21G 3G 6G17G26
  22074288.586    -1434347.35849  -1101420.53746  22074288.798    22074296.395
       230.000         186.000
  21103479.115      157240.00349    126390.76147  21103479.035    21103486.113
       243.000         211.000
  21657206.275     -694035.27449   -525205.93747  21657205.868    21657213.753
       238.000         201.000
  22131015.291    -1034397.48149   -786595.36646  22131014.927    22131023.087
       230.000         187.000
  24051990.158     1172484.54849    900659.58845  24051991.073    24052001.634
       212.000         146.000
  20927033.847       26858.91149     26135.92247  20927033.786    20927041.533
       240.000         207.000
  24318719.358     1098328.89749    837658.99045  24318718.911    24318729.749
       210.000         142.000
 99 10  4 15  3  0.0000000  0  8G29G23G21G 3G 6G17G26G 9
  22057115.584    -1524592.21749  -1171741.20046  22057116.056    22057123.324
       229.000         186.000
  21109393.918      188322.18749    150610.59347  21109393.851    21109400.980
       244.000         211.000
  21650860.681     -727381.67249   -551190.17247  21650860.671    21650868.151
       238.000         202.000
  22120059.482    -1091970.79549   -831457.73546  22120059.851    22120066.920
       230.000         187.000
  24073421.244     1285104.52149    988415.17245  24073422.307    24073433.350
       212.000         146.000
  20931269.268       49115.99449     43479.02947  20931269.194    20931276.911
       240.000         207.000
  24338543.837     1202507.09849    918836.72945  24338544.216    24338554.688
       212.000         143.000
                  -1206396.48749   -901034.17043
       209.000          74.000
 99 10  4 15  3 30.0000000  0  8G29G23G21G 3G 6G17G26G 9
  22040002.549    -1614521.85549  -1241816.23746  22040002.704    22040010.617
       230.000         187.000
  21115349.913      219620.67149    174998.96947  21115349.768    21115357.007
       243.000         211.000
  21644556.887     -760508.34149   -577003.18747  21644556.905    21644564.295
       239.000         201.000
  22109192.555    -1149077.23249   -875956.30746  22109192.644    22109200.483
       232.000         187.000
  24094874.182     1397839.66549   1076260.50245  24094875.065    24094885.214
       211.000         145.000
  20935562.641       71677.50949     61059.35747  20935562.492    20935570.347
       240.000         207.000
  24358406.768     1306887.32449   1000171.88845  24358407.206    24358417.610
       211.000         144.000
                  -1252592.55049   -937030.75144                  24191485.558
       209.000         114.000
 99 10  4 15  4  0.0000000  0  8G29G23G21G 3G 6G17G26G 9
  22022952.531    -1704120.44949  -1311633.31746  22022952.997    22022959.990
       230.000         187.000
  21121347.145      251136.15349    199556.43747  21121347.056    21121354.152
       243.000         211.000
  21638294.859     -793415.83149   -602645.41547  21638294.900    21638302.354
       239.000         202.000
  22098417.465    -1205700.71449   -920078.54246  22098417.774    22098424.737
       231.000         187.000
  24116349.683     1510693.57449   1164198.36545  24116350.038    24116362.038
       212.000         145.000
  20939913.417       94540.50549     78874.60547  20939913.500    20939920.866
       241.000         207.000
  24378306.858     1411463.22949   1081659.52145  24378306.919    24378316.789
       209.000         144.000
  24182746.818    -1298448.04349   -972762.32145  24182743.845    24182756.682
       214.000         141.000
 99 10  4 15  4 30.0000000  0  8G29G23G21G 3G 6G17G26G 9
  22005967.308    -1793378.47449  -1381185.02746  22005967.446    22005975.567
       230.000         187.000
  21127383.097      282855.36449    224272.65547  21127383.047    21127390.189
       243.000         211.000
  21632075.506     -826099.07249   -628112.91047  21632075.226    21632083.230
       239.000         202.000
  22087736.862    -1261828.14749   -963814.25047  22087736.798    22087744.188
       231.000         188.000
  24137847.690     1623665.84849   1252228.44245  24137847.736    24137860.183
       207.000         145.000
  20944322.979      117712.46449     96930.60847  20944322.847    20944330.521
       241.000         207.000
  24398243.129     1516228.79849   1163294.95145  24398243.777    24398253.529
       210.000         144.000
  24174088.613    -1343967.70849  -1008232.19645  24174081.761    24174094.276
       215.000         146.000
 99 10  4 15  5  0.0000000  0  8G29G23G21G 3G 6G17G26G 9
  21989046.508    -1882297.90349  -1450472.88646  21989046.500    21989054.429
       229.000         187.000
  21133454.434      314760.34349    249133.62647  21133454.534    21133461.648
       242.000         211.000
  21625901.032     -858546.41949   -653396.58847  21625900.790    21625908.608
       239.000         202.000
  22077151.418    -1317455.38449  -1007160.19347  22077151.366    22077158.779
       231.000         188.000
  24159366.074     1736745.46249   1340342.16145  24159366.209    24159378.635
       209.000         144.000
  20948792.604      141200.16649    115232.64047  20948792.543    20948800.259
       241.000         207.000
  24418215.556     1621184.51849   1245078.54845  24418215.531    24418226.234
       208.000         143.000
  24165485.695    -1389161.16849  -1043447.86245  24165483.384    24165493.643
       214.000         146.000
 99 10  4 15  5 30.0000000  0  8G29G23G21G 3G 6G17G26G 9
  21972188.636    -1970886.32549  -1519502.82746  21972188.810    21972196.345
       230.000         186.000
  21139556.439      346826.31649    274120.04247  21139556.420    21139563.842
       243.000         211.000
  21619772.352     -890752.90449   -678492.58447  21619772.043    21619780.034
       239.000         202.000
  22066663.227    -1372571.47349  -1050107.83547  22066663.757    22066671.220
       232.000         188.000
  24180900.388     1849908.47549   1428520.89545  24180901.111    24180913.339
       208.000         144.000
  20953321.601      164999.67649    133777.63147  20953321.477    20953329.472
       241.000         207.000
  24438222.157     1726319.61749   1327001.92145  24438222.511    24438231.591
       209.000         141.000
  24156945.246    -1434035.16749  -1078414.60845  24156943.496    24156955.118
       208.000         147.000
 99 10  4 15  6  0.0000000  0  9G29G23G21G 3G 6G17G26G 8G 9
  21955391.926    -2059153.27849  -1588282.26646  21955392.128    21955399.730
       230.000         187.000
  21145684.023      379026.69749    299211.19447  21145683.968    21145691.152
       243.000         211.000
  21613687.212     -922730.88249   -703410.52047  21613687.306    21613694.659
       239.000         202.000
  22056272.598    -1427174.93549  -1092656.02747  22056272.890    22056280.037
       231.000         189.000
  24202445.702     1963128.55449   1516744.07245  24202445.935    24202458.884
       206.000         144.000
  20957909.660      189109.75249    152564.63347  20957909.411    20957917.533
       241.000         207.000
  24458257.942     1831607.83949   1409044.60045  24458257.940    24458268.806
       206.000         140.000
  24692313.863    -1420638.47549  -1075422.83145  24692311.788    24692324.651
       203.000         138.000
  24148467.499    -1478583.30349  -1113127.43745  24148467.464    24148477.864
       208.000         147.000
 99 10  4 15  6 30.0000000  0  9G29G23G21G 3G 6G17G26G 8G 9
  21938654.211    -2147110.64649  -1656820.48046  21938654.835    21938662.621
       231.000         187.000
  21151835.735      411353.92849    324401.18447  21151835.799    21151843.121
       243.000         211.000
  21607642.746     -954494.78149   -728161.64647  21607642.680    21607650.360
       239.000         202.000
  22045978.752    -1481269.65249  -1134807.79647  22045978.407    22045986.321
       232.000         189.000
  24224000.367     2076398.35449   1605006.00645  24224001.433    24224012.978
       205.000         144.000
  20962555.895      213525.64649    171589.92447  20962555.505    20962563.657
       240.000         207.000
  24478320.571     1937037.21949   1491197.28545  24478321.551    24478331.028
       207.000         140.000
  24677703.912    -1497412.77549  -1135246.77345  24677703.501    24677715.200
       204.000         139.000
  24140052.805    -1522800.97149  -1147582.76945  24140051.900    24140064.310
       206.000         148.000
 99 10  4 15  7  0.0000000  0  9G29G23G21G 3G 6G17G26G 8G 9
  21921977.004    -2234750.13749  -1725110.99947  21921977.411    21921985.040
       231.000         188.000
  21158012.932      443815.13749    349695.57747  21158012.902    21158020.246
       243.000         211.000
  21601639.162     -986044.03049   -752745.51247  21601639.066    21601646.493
       239.000         202.000
  22035781.649    -1534856.37149  -1176563.72347  22035781.956    22035789.631
       232.000         189.000
  24245562.625     2189707.85049   1693298.86445  24245563.346    24245576.641
       206.000         144.000
  20967259.633      238243.83849    190850.77747  20967259.488    20967267.542
       241.000         207.000
  24498412.306     2042619.13549   1573468.82045  24498413.221    24498422.972
       205.000         142.000
  24663092.018    -1574198.31049  -1195079.49845  24663090.718    24663104.402
       206.000         139.000
  24131702.875    -1566679.48249  -1181773.78445  24131701.421    24131714.326
       209.000         149.000
 99 10  4 15  7 30.0000000  0  8G29G23G21G 3G 6G17G 8G 9
  21905359.888    -2322073.72549  -1793155.36247  21905359.975    21905367.964
       231.000         188.000
  21164218.389      476424.52249    375105.42947  21164218.396    21164225.738
       243.000         211.000
  21595674.816    -1017387.31049   -777168.88647  21595674.815    21595682.168
       239.000         202.000
  22025677.675    -1587953.31949  -1217938.01147  22025677.391    22025685.287
       232.000         189.000
  24267131.980     2303054.38549   1781620.57845  24267132.094    24267144.666
       206.000         143.000
  20972020.606      263262.19649    210345.52747  20972020.762    20972028.321
       241.000         207.000
  24648481.378    -1650976.61949  -1254906.59845  24648479.403    24648493.659
       203.000         138.000
  24123419.274    -1610209.09249  -1215692.96045  24123418.035    24123430.585
       209.000         148.000
 99 10  4 15  8  0.0000000  0  8G29G23G21G 3G 6G17G 8G 9
  21888794.695    -2409124.48749  -1860987.12647  21888794.793    21888802.673
       231.000         189.000
  21170449.762      509170.19549    400621.48347  21170449.763    21170457.127
       242.000         210.000
  21589740.022    -1048575.02949   -801471.04247  21589739.764    21589747.409
       240.000         203.000
  22015655.746    -1640619.04949  -1258976.28947  22015655.809    22015663.662
       232.000         189.000
  24288703.491     2416412.25249   1869951.11845  24288703.540    24288716.542
       203.000         143.000
  20976832.302      288547.15549    230048.01747  20976832.131    20976839.999
       241.000         207.000
  24633864.797    -1727786.22949  -1314758.11745  24633864.311    24633877.945
       204.000         137.000
  24115196.136    -1653420.68549  -1249364.32345  24115195.508    24115208.226
       209.000         148.000
 99 10  4 15  8 30.0000000  0  8G29G23G21G 3G 6G17G 8G 9
  21872293.212    -2495840.50049  -1928558.04847  21872293.466    21872301.032
       232.000         189.000
  21176722.093      542131.09849    426305.24447  21176722.170    21176729.300
       242.000         210.000
  21583847.861    -1079538.94849   -825598.81347  21583847.793    21583855.216
       239.000         203.000
  22005726.547    -1692797.52149  -1299634.88147  22005726.622    22005734.115
       233.000         189.000
  24310289.977     2529849.33949   1958343.39145  24310290.786    24310301.785
       204.000         142.000
  20981706.758      314162.39849    250007.87147  20981706.757    20981714.518
       241.000         206.000
  24619257.883    -1804545.13049  -1374570.15645  24619256.084    24619269.908
       202.000         137.000
  24107047.617    -1696241.01249  -1282730.82145  24107048.348    24107059.818
       209.000         148.000
 99 10  4 15  9  0.0000000  0  8G29G23G21G 3G 6G17G 8G 9
  21855854.730    -2582225.26349  -1995870.86047  21855855.096    21855862.710
       232.000         190.000
  21183034.700      575303.91649    452154.13347  21183034.750    21183042.052
       242.000         210.000
  21577998.119    -1110279.56949   -849552.58347  21577998.033    21578005.747
       239.000         203.000
  21995889.841    -1744489.87749  -1339914.68147  21995890.102    21995897.798
       232.000         190.000
  24331890.873     2643362.09049   2046794.63845  24331891.342    24331903.698
       201.000         142.000
  20986646.304      340119.53249    270234.13247  20986646.017    20986654.186
       240.000         206.000
  24604661.912    -1881246.80749  -1434337.58545  24604660.898    24604674.674
       205.000         137.000
  24098972.919    -1738672.81849  -1315794.55445  24098971.669    24098985.316
       206.000         148.000
 99 10  4 15  9 30.0000000  0  8G29G23G21G 3G 6G17G 8G 9
  21839477.101    -2668290.47449  -2062934.66247  21839477.344    21839484.789
       232.000         191.000
  21189386.991      608685.14549    478165.41647  21189386.873    21189394.402
       242.000         210.000
  21572188.592    -1140808.98749   -873341.77947  21572188.445    21572196.333
       238.000         202.000
  21986147.870    -1795684.54549  -1379806.67247  21986148.076    21986155.533
       232.000         190.000
  24353508.516     2756963.03449   2135314.60045  24353508.627    24353521.602
       205.000         143.000
  20991652.115      366424.97149    290731.80147  20991651.922    20991659.882
       241.000         206.000
  24590076.498    -1957893.74049  -1494062.40045  24590075.785    24590088.819
       206.000         139.000
  24090974.841    -1780702.12849  -1348544.65145  24090975.245    24090987.333
       208.000         148.000
 99 10  4 15 10  0.0000000  0  8G29G23G21G 3G 6G17G 8G 9
  21823160.027    -2754037.15849  -2129750.26747  21823160.450    21823167.933
       234.000         191.000
  21195773.542      642246.41649    504316.99447  21195773.202    21195780.896
       242.000         210.000
  21566415.766    -1171145.43649   -896980.61347  21566415.881    21566423.450
       239.000         202.000
  21976502.157    -1846373.23249  -1419304.39847  21976502.404    21976509.711
       232.000         190.000
  24375139.393     2870633.07849   2223888.40945  24375140.871    24375152.506
       205.000         143.000
  20996722.595      393070.16549    311494.21647  20996722.521    20996730.395
       241.000         206.000
  24575498.745    -2034499.89049  -1553755.44945  24575497.957    24575510.866
       207.000         140.000
  24083050.663    -1822343.50149  -1380992.43145  24083049.991    24083062.671
       214.000         149.000
 99 10  4 15 10 30.0000000  0  8G29G23G21G 3G 6G17G 8G 9
  21806904.361    -2839461.45649  -2196314.65647  21806904.444    21806912.594
       233.000         192.000
  21202185.440      675941.26449    530572.66047  21202185.283    21202192.695
       241.000         209.000
  21560679.358    -1201290.40349   -920470.23447  21560679.322    21560686.780
       239.000         202.000
  21966955.624    -1896540.52849  -1458395.83847  21966955.513    21966963.287
       232.000         190.000
  24396779.336     2984350.10549   2312498.81845  24396780.400    24396793.514
       205.000         143.000
  21001856.270      420047.56749    332515.48847  21001856.377    21001863.811
       240.000         206.000
  24560927.513    -2111071.06149  -1613421.28245  24560927.714    24560940.052
       206.000         141.000
  24075196.021    -1863619.52049  -1413155.54445  24075196.059    24075207.797
       211.000         149.000
 99 10  4 15 11  0.0000000  0  8G29G23G21G 3G 6G17G 8G 9
  21790712.151    -2924552.01549  -2262618.99147  21790712.324    21790719.965
       233.000         192.000
  21208619.290      709751.07949    556917.91647  21208619.308    21208626.858
       242.000         209.000
  21554978.601    -1231248.08049   -943813.91347  21554978.589    21554986.139
       239.000         202.000
  21957506.827    -1946194.80649  -1497087.52647  21957507.164    21957514.254
       233.000         190.000
  24418428.899     3098118.12849   2401148.98245  24418429.763    24418442.956
       203.000         143.000
  21007052.630      447354.24649    353793.34847  21007052.530    21007060.374
       240.000         206.000
  24546358.807    -2187629.72249  -1673077.38145  24546359.869    24546370.430
       204.000         142.000
  24067407.834    -1904547.10749  -1445047.15045  24067408.590    24067420.220
       208.000         151.000
 99 10  4 15 11 30.0000000  0  8G29G23G21G 3G 6G17G 8G 9
  21774585.635    -3009297.42549  -2328654.38247  21774586.128    21774593.877
       234.000         193.000
  21215076.312      743682.80349    583358.15747  21215076.328    21215083.877
       241.000         209.000
  21549314.922    -1261010.79649   -967005.67647  21549315.060    21549322.829
       239.000         203.000
  21948156.171    -1995333.11149  -1535377.15347  21948155.738    21948164.409
       233.000         190.000
  24440088.579     3211939.54849   2489840.75345  24440089.348    24440102.150
       205.000         143.000
  21012310.085      474982.06249    375321.43747  21012310.140    21012318.010
       240.000         205.000
  24531791.961    -2264179.14649  -1732726.27045  24531792.533    24531804.544
       206.000         143.000
  24059685.863    -1945125.99249  -1476667.03045  24059685.846    24059698.664
       211.000         152.000
 99 10  4 15 12  0.0000000  0  8G29G23G21G 3G 6G17G 8G 9
  21758529.154    -3093674.90849  -2394403.07447  21758529.693    21758537.087
       234.000         194.000
  21221557.039      777739.19049    609895.54247  21221557.242    21221564.569
       242.000         209.000
  21543693.251    -1290553.24349   -990025.80047  21543693.262    21543700.804
       239.000         203.000
  21938904.738    -2043949.49149  -1573260.09647  21938904.802    21938912.363
       233.000         190.000
  24461757.350     3325808.53049   2578569.58045  24461758.107    24461771.815
       207.000         143.000
  21017629.937      502937.83049    397105.08147  21017629.778    21017637.830
       240.000         205.000
  24517227.193    -2340717.62449  -1792366.66245  24517227.027    24517239.921
       206.000         144.000
  24052028.554    -1985364.50849  -1508021.68245  24052028.757    24052040.263
       213.000         153.000
 99 10  4 15 12 30.0000000  0  8G29G23G21G 3G 6G17G 8G 9
  21742540.813    -3177694.43349  -2459872.83947  21742540.922    21742548.649
       235.000         194.000
  21228065.696      811941.92649    636546.96347  21228065.826    21228073.081
       242.000         209.000
  21538115.326    -1319865.72449  -1012866.72947  21538115.383    21538123.058
       240.000         203.000
  21929753.687    -2092038.90349  -1610732.40847  21929753.817    21929761.616
       233.000         190.000
  24483437.629     3439738.16349   2667345.66745  24483438.618    24483450.135
       207.000         142.000
  21023012.888      531225.24649    419147.14947  21023012.881    21023020.865
       240.000         205.000
  24502665.668    -2417238.75049  -1851993.56545  24502664.728    24502677.933
       208.000         144.000
  24044440.849    -2025238.68949  -1539092.47245  24044441.430    24044453.254
       214.000         152.000
 99 10  4 15 13  0.0000000  0  8G29G23G21G 3G 6G17G 8G 9
  21726620.550    -3261356.16849  -2525063.80147  21726620.743    21726628.469
       234.000         194.000
  21234608.834      846325.72949    663339.47347  21234609.216    21234616.274
       242.000         210.000
  21532578.404    -1348962.61149  -1035539.66147  21532578.456    21532586.176
       241.000         203.000
  21920702.327    -2139604.39149  -1647796.46747  21920702.843    21920710.355
       233.000         191.000
  24505129.225     3553727.14249   2756167.98245  24505130.191    24505142.042
       205.000         141.000
  21028458.328      559840.86549    441444.95947  21028458.401    21028466.313
       240.000         205.000
  24488109.294    -2493733.07249  -1911599.58545  24488109.295    24488122.790
       211.000         145.000
  24036927.962    -2064719.14949  -1569856.46045  24036928.271    24036940.221
       209.000         151.000
 99 10  4 15 13 30.0000000  0  7G29G23G21G 3G17G 8G 9
  21710766.560    -3344669.60249  -2589983.36647  21710766.579    21710774.636
       234.000         194.000
  21241185.974      880888.42349    690271.37847  21241186.063    21241193.600
       242.000         209.000
  21527080.336    -1377855.51349  -1058053.64947  21527080.532    21527088.176
       241.000         203.000
  21911753.137    -2186633.17849  -1684442.32347  21911753.049    21911760.447
       233.000         191.000
  21033965.444      588780.58949    463995.31447  21033965.289    21033973.266
       240.000         205.000
  24473560.972    -2570185.59449  -1971173.07745  24473561.476    24473574.272
       209.000         147.000
  24029492.677    -2103791.53749  -1600302.47245  24029493.088    24029504.746
       212.000         151.000
 99 10  4 15 14  0.0000000  0  7G29G23G21G 3G17G 8G 9
  21694976.991    -3427644.18249  -2654638.89047  21694977.080    21694985.323
       234.000         195.000
  21247794.743      915617.35349    717332.82147  21247794.658    21247802.155
       242.000         209.000
  21521617.374    -1406563.72249  -1080423.71747  21521617.504    21521625.138
       241.000         204.000
  21902905.810    -2233126.26049  -1720670.74947  21902905.814    21902914.172
       234.000         191.000
  21039534.802      618047.40149    486800.54647  21039534.893    21039542.866
       240.000         205.000
  24459021.338    -2646593.12949  -2030711.53345  24459021.302    24459034.355
       209.000         147.000
  24022136.114    -2142451.03749  -1630426.76345  24022136.421    24022147.781
       215.000         151.000
 99 10  4 15 14 30.0000000  0  7G29G23G21G 3G17G 8G 9
  21679250.077    -3510289.48349  -2719037.83147  21679250.147    21679258.107
       233.000         194.000
  21254433.950      950506.52949    744519.12947  21254433.802    21254441.391
       242.000         209.000
  21516184.299    -1435114.95549  -1102671.46847  21516184.425    21516192.055
       241.000         204.000
  21894157.443    -2279099.31349  -1756493.95847  21894157.570    21894165.213
       234.000         192.000
  21045163.306      647624.68849    509847.70547  21045163.437    21045171.379
       240.000         205.000
  24444490.354    -2722953.69549  -2090213.41145  24444490.931    24444503.908
       210.000         147.000
  24014858.049    -2180698.03249  -1660229.65645  24014858.929    24014870.204
       209.000         150.000
 99 10  4 15 15  0.0000000  0  7G29G23G21G 3G17G 8G 9
  21663587.776    -3592595.34149  -2783172.27647  21663588.060    21663595.814
       233.000         194.000
  21261098.544      985528.92549    771809.24547  21261098.668    21261106.197
       242.000         209.000
  21510783.034    -1463499.21849  -1124789.11847  21510783.245    21510790.943
       241.000         204.000
  21885506.298    -2324561.51349  -1791919.10047  21885506.549    21885514.600
       233.000         192.000
  21050850.034      677508.29149    533133.55347  21050850.110    21050858.268
       239.000         205.000
  24429967.934    -2799270.67649  -2149681.32245  24429968.025    24429980.697
       212.000         147.000
  24007653.679    -2218557.44249  -1689730.50345  24007653.327    24007664.247
       212.000         150.000
 99 10  4 15 15 30.0000000  0  7G29G23G21G 3G17G 8G 9
  21647991.548    -3674554.25649  -2847036.36647  21647991.927    21647999.416
       234.000         194.000
  21267785.871     1020670.48049    799192.21247  21267785.868    21267793.436
       243.000         209.000
  21505416.707    -1491699.78149  -1146763.61947  21505416.630    21505424.707
       240.000         205.000
  21876952.006    -2369514.77749  -1826947.66847  21876952.271    21876959.537
       233.000         191.000
  21056598.146      707714.36049    556670.67847  21056598.090    21056606.238
       239.000         205.000
  24415454.508    -2875539.59649  -2209111.79745  24415454.622    24415467.059
       213.000         146.000
  24000519.066    -2256050.12849  -1718945.59645  24000519.286    24000530.537
       211.000         151.000
 99 10  4 15 16  0.0000000  0  7G29G23G21G 3G17G 8G 9
  21632463.069    -3756157.20049  -2910623.07547  21632463.667    21632471.076
       234.000         195.000
  21274499.387     1055949.64349    826682.40347  21274499.510    21274506.824
       243.000         209.000
  21500089.474    -1519694.71249  -1168577.89047  21500089.468    21500097.406
       240.000         205.000
  21868495.978    -2413951.90049  -1861574.04547  21868496.415    21868503.839
       234.000         191.000
  21062409.148      738250.96949    580465.36847  21062409.238    21062417.405
       239.000         205.000
  24400952.063    -2951751.20549  -2268497.60745  24400952.312    24400964.501
       212.000         147.000
  23993456.744    -2293163.18849  -1747864.89345  23993456.716    23993468.952
       210.000         151.000
 99 10  4 15 16 30.0000000  0  7G29G23G21G 3G17G 8G 9
  21617003.741    -3837396.84549  -2973926.69647  21617004.089    21617011.680
       235.000         195.000
  21281239.342     1091367.63549    854280.77647  21281239.504    21281246.780
       243.000         209.000
  21494804.536    -1547467.38749  -1190218.97547  21494804.427    21494812.083
       241.000         204.000
  21860138.089    -2457873.16149  -1895798.45347  21860138.561    21860146.246
       234.000         192.000
  21068282.573      769115.56349    604515.63047  21068282.621    21068290.367
       239.000         205.000
  24386463.206    -3027891.06549  -2327827.50245  24386463.643    24386476.848
       212.000         146.000
  23986467.636    -2329891.18449  -1776484.12345  23986467.654    23986479.317
       208.000         152.000
 99 10  4 15 17  0.0000000  0  7G29G23G21G 3G17G 8G 9
  21601614.448    -3918268.44549  -3036943.52547  21601614.663    21601622.126
       234.000         196.000
  21288004.682     1126919.22149    881983.25147  21288004.531    21288012.111
       243.000         210.000
  21489562.966    -1575012.31849  -1211682.59047  21489562.795    21489570.657
       240.000         204.000
  21851879.455    -2501273.00549  -1929616.55747  21851879.878    21851887.051
       234.000         192.000
  21074220.018      800316.72249    628828.15147  21074219.981    21074228.131
       239.000         205.000
  24371989.585    -3103951.13449  -2387095.19345  24371989.513    24372002.447
       212.000         146.000
  23979553.509    -2366224.98649  -1804796.18745  23979553.001    23979564.625
       212.000         152.000
 99 10  4 15 17 30.0000000  0  8G29G23G21G 3G17G 8G 9G31
  21586283.631    -3998832.60649  -3099720.78747  21586284.057    21586291.222
       235.000         196.000
  21294788.398     1162567.47349    909761.04747  21294788.355    21294795.800
       243.000         209.000
  21484348.489    -1602414.76649  -1233035.18847  21484348.475    21484356.360
       241.000         204.000
  21843710.634    -2544201.01449  -1963067.00347  21843710.954    21843718.420
       234.000         192.000
  21080208.622      831786.55649    653350.03647  21080208.395    21080216.354
       239.000         204.000
  24357522.426    -3179976.89649  -2446336.11345  24357522.368    24357535.514
       211.000         147.000
  23972705.567    -2402211.02349  -1832837.26445  23972705.741    23972718.388
       208.000         152.000
  24509030.563    -1547057.59049  -1188624.90345  24509031.181    24509038.582
       208.000         139.000
 99 10  4 15 18  0.0000000  0  8G29G23G21G 3G17G 8G 9G31
  21571019.362    -4079046.95049  -3162225.46347  21571019.674    21571027.562
       235.000         196.000
  21301601.260     1198369.09049    937658.34947  21301601.258    21301608.598
       243.000         209.000
  21479170.429    -1629625.96849  -1254238.75947  21479170.430    21479178.148
       241.000         204.000
  21835642.170    -2586601.57149  -1996106.44147  21835642.309    21835649.541
       234.000         192.000
  21086255.374      863562.14749    678110.16847  21086255.029    21086263.419
       239.000         204.000
  24343072.962    -3255909.85649  -2505504.68145  24343072.881    24343086.080
       212.000         147.000
  23965935.615    -2437787.22249  -1860558.97845  23965935.558    23965949.104
       214.000         152.000
  24491885.082    -1637157.80849  -1258832.96945  24491884.731    24491893.840
       207.000         139.000
 99 10  4 15 18 30.0000000  0  8G29G23G21G 3G17G 8G 9G31
  21555827.039    -4158883.23249  -3224435.54847  21555827.361    21555834.908
       236.000         196.000
  21308443.970     1234327.47649    965677.81047  21308443.991    21308451.364
       243.000         209.000
  21474029.225    -1656643.38449  -1275291.32947  21474029.319    21474036.916
       241.000         205.000
  21827676.055    -2628463.91849  -2028726.49547  21827675.984    21827683.807
       234.000         192.000
  21092362.809      895656.65049    703118.79947  21092362.701    21092370.904
       238.000         204.000
  24328643.353    -3331738.42749  -2564591.86445  24328643.151    24328655.668
       212.000         146.000
  23959243.054    -2472957.58849  -1887964.48445  23959242.631    23959254.796
       206.000         151.000
  24474794.712    -1726968.54449  -1328815.45045  24474794.852    24474803.966
       210.000         141.000
 99 10  4 15 19  0.0000000  0  8G29G23G21G 3G17G 8G 9G31
  21540704.853    -4238350.83449  -3286358.34847  21540705.110    21540712.829
       236.000         197.000
  21315317.550     1270448.06249    993823.65947  21315317.513    21315324.864
       243.000         209.000
  21468922.475    -1683479.85349  -1296202.90047  21468922.474    21468930.094
       241.000         205.000
  21819812.540    -2669786.94649  -2060926.30347  21819812.998    21819820.736
       234.000         192.000
  21098529.504      928062.62749    728370.14447  21098529.312    21098537.909
       239.000         204.000
  24314230.283    -3407479.54349  -2623610.84845  24314229.999    24314243.951
       208.000         146.000
  23952626.488    -2507727.41849  -1915057.84545  23952626.841    23952638.359
       209.000         151.000
  24457762.596    -1816473.90749  -1398559.98045  24457763.133    24457771.888
       210.000         143.000
 99 10  4 15 19 30.0000000  0  8G29G23G21G 3G17G 8G 9G31
  21525651.080    -4317458.96149  -3348001.02747  21525651.302    21525658.862
       236.000         197.000
  21322222.222     1306732.10949   1022096.87847  21322222.123    21322229.333
       243.000         209.000
  21463851.444    -1710128.61249  -1316968.20447  21463851.605    21463859.070
       241.000         205.000
  21812051.352    -2710572.62849  -2092707.39947  21812051.731    21812059.257
       234.000         192.000
  21104756.671      960786.29249    753869.04247  21104756.631    21104765.054
       239.000         204.000
  24299833.405    -3483135.08249  -2682563.10845  24299833.755    24299845.598
       212.000         146.000
  23946085.887    -2542099.18249  -1941841.05045  23946086.209    23946097.641
       210.000         151.000
  24440787.752    -1905678.37449  -1468070.06045  24440787.505    24440796.199
       213.000         146.000
 99 10  4 15 20  0.0000000  0  8G29G23G21G 3G17G 8G 9G31
  21510668.087    -4396195.33949  -3409354.04447  21510668.364    21510675.940
       236.000         197.000
  21329154.643     1343162.11749   1050483.83747  21329154.554    21329162.107
       243.000         209.000
  21458819.074    -1736574.23049  -1337575.21247  21458818.959    21458826.693
       241.000         205.000
  21804391.054    -2750828.39949  -2124075.57147  21804391.524    21804398.876
       234.000         193.000
  21111047.555      993844.67749    779628.76447  21111047.476    21111055.872
       239.000         204.000
  24285452.450    -3558707.95649  -2741450.91545  24285452.171    24285464.439
       210.000         146.000
  23939624.176    -2576055.68549  -1968300.66445  23939624.483    23939636.369
       208.000         150.000
  24423872.901    -1994567.61649  -1537334.49545  24423873.364    24423881.449
       210.000         147.000
 99 10  4 15 20 30.0000000  0  8G29G23G21G 3G17G 8G 9G31
  21495755.799    -4474560.03549  -3470417.43547  21495755.938    21495763.445
       237.000         198.000
  21336112.117     1379723.52949   1078973.18447  21336112.167    21336119.854
       243.000         209.000
  21453823.638    -1762825.68449  -1358030.92547  21453823.727    21453831.315
       241.000         205.000
  21796832.541    -2790549.13649  -2155026.83947  21796832.407    21796840.217
       234.000         193.000
  21117403.389     1027244.41449    805654.46547  21117403.256    21117411.718
       239.000         204.000
  24271085.228    -3634207.97349  -2800281.95745  24271085.007    24271096.968
       210.000         147.000
  23933244.123    -2609583.33449  -1994426.09445  23933244.030    23933256.169
       208.000         151.000
  24407019.313    -2083133.85549  -1606347.24645  24407019.332    24407027.887
       209.000         145.000
 99 10  4 15 21  0.0000000  0  8G29G23G21G 3G17G 8G 9G31
  21480911.034    -4552569.99349  -3531204.40447  21480911.055    21480919.055
       237.000         198.000
  21343093.857     1416412.35049   1107561.81447  21343093.854    21343101.218
       243.000         209.000
  21448865.913    -1788878.99149  -1378332.23447  21448865.669    21448873.752
       241.000         205.000
  21789375.766    -2829734.57649  -2185560.97847  21789375.609    21789383.444
       234.000         193.000
  21123825.368     1060991.98049    831951.20847  21123825.290    21123833.387
       239.000         204.000
  24256732.609    -3709630.89049  -2859052.88245  24256731.664    24256744.195
       209.000         148.000
  23926948.169    -2642668.94949  -2020207.07145  23926947.819    23926959.833
       211.000         152.000
  24390223.984    -2171393.76149  -1675121.29945  24390223.490    24390232.382
       209.000         144.000
 99 10  4 15 21 30.0000000  0  8G29G23G21G 3G17G 8G 9G31
  21466137.441    -4630205.84249  -3591699.86447  21466137.852    21466145.039
       237.000         199.000
  21350096.710     1453212.15149   1136236.92347  21350096.616    21350104.182
       243.000         209.000
  21443944.194    -1814742.99249  -1398486.03347  21443944.306    21443952.141
       242.000         206.000
  21782021.678    -2868380.51549  -2215674.73647  21782021.820    21782029.524
       233.000         192.000
  21130315.472     1095097.33449    858526.74747  21130315.167    21130323.380
       239.000         203.000
  24242396.410    -3784967.84349  -2917756.83845  24242396.128    24242408.602
       211.000         148.000
  23920736.817    -2675310.21549  -2045641.79845  23920737.198    23920748.895
       213.000         153.000
  24373483.308    -2259366.65049  -1743671.68545  24373482.749    24373490.707
       207.000         143.000
 99 10  4 15 22  0.0000000  0  8G29G23G21G 3G17G 8G 9G31
  21451436.857    -4707457.89249  -3651896.26047  21451437.229    21451444.662
       237.000         199.000
  21357119.388     1490116.29049   1164993.33847  21357119.284    21357126.715
       243.000         209.000
  21439056.139    -1840430.05649  -1418501.95847  21439056.100    21439063.805
       242.000         206.000
  21774773.178    -2906471.96049  -2245356.42047  21774773.228    21774781.234
       233.000         192.000
  21136872.498     1129554.61249    885376.51447  21136872.168    21136880.546
       239.000         203.000
  24228075.569    -3860224.29649  -2976398.04845  24228074.833    24228087.439
       210.000         148.000
  23914610.394    -2707504.83449  -2070728.49945  23914610.130    23914622.816
       210.000         153.000
  24356797.079    -2347053.50549  -1811999.20045  24356797.290    24356805.593
       207.000         143.000
 99 10  4 15 22 30.0000000  0  8G29G23G21G 3G17G 8G 9G31
  21436808.812    -4784328.68149  -3711795.57347  21436808.796    21436816.721
       237.000         200.000
  21364161.691     1527123.66449   1193830.18747  21364161.619    21364169.096
       243.000         209.000
  21434201.654    -1865940.76549  -1438380.46347  21434201.651    21434209.474
       242.000         206.000
  21767632.764    -2943995.03349  -2274595.21547  21767632.951    21767640.475
       234.000         192.000
  21143497.056     1164366.44449    912502.54747  21143496.802    21143505.112
       239.000         203.000
  24213768.989    -3935405.18649  -3034980.38845  24213768.917    24213780.357
       209.000         148.000
  23908566.030    -2739267.56149  -2095478.65145  23908565.984    23908578.334
       209.000         154.000
  24340164.361    -2434459.25949  -1880107.66245  24340163.815    24340173.085
       208.000         144.000
 99 10  4 15 23  0.0000000  0  8G29G23G21G 3G17G 8G 9G31
  21422257.993    -4860793.83749  -3771378.80047  21422258.219    21422265.615
       237.000         200.000
  21371225.547     1564244.09049   1222755.13047  21371225.359    21371233.248
       242.000         209.000
  21429380.761    -1891274.98249  -1458121.44747  21429380.808    21429388.603
       242.000         206.000
  21760600.080    -2980952.25549  -2303393.09347  21760600.270    21760607.628
       235.000         192.000
  21150189.584     1199535.65849    939907.06447  21150189.369    21150197.787
       239.000         203.000
  24199478.902    -4010499.03349  -3093494.92945  24199478.260    24199491.558
       211.000         149.000
  23902603.500    -2770600.42349  -2119893.86245  23902603.262    23902614.960
       209.000         152.000
  24323585.696    -2521580.92649  -1947994.76445  24323585.832    24323594.460
       206.000         144.000
 99 10  4 15 23 30.0000000  0  8G29G23G21G 3G17G 8G 9G31
  21407786.694    -4936840.80049  -3830636.17147  21407787.027    21407794.497
       238.000         200.000
  21378311.423     1601480.41949   1251770.38947  21378311.253    21378318.933
       243.000         209.000
  21424591.876    -1916441.12049  -1477731.45647  21424592.044    21424599.553
       242.000         206.000
  21753676.063    -3017338.61049  -2331746.13447  21753676.353    21753683.740
       235.000         193.000
  21156948.761     1235055.14549    967584.52047  21156948.759    21156957.102
       238.000         203.000
  24185206.333    -4085502.17549  -3151938.81445  24185205.411    24185217.873
       212.000         149.000
  23896722.918    -2801502.73049  -2143973.58245  23896723.433    23896735.044
       213.000         153.000
  24307064.551    -2608400.96649  -2015646.81645  24307064.509    24307072.963
       205.000         143.000
 99 10  4 15 24  0.0000000  0  8G29G23G21G 3G17G 8G 9G31
  21393391.295    -5012489.28949  -3889583.03947  21393391.263    21393398.986
       238.000         200.000
  21385418.776     1638829.67149   1280873.63747  21385418.673    21385426.336
       242.000         209.000
  21419837.508    -1941425.69649  -1497199.99447  21419837.395    21419845.073
       242.000         206.000
  21746860.258    -3053156.01849  -2359655.84047  21746859.942    21746867.860
       234.000         193.000
  21163774.075     1270922.01649    995532.66547  21163773.954    21163782.195
       238.000         203.000
  24170950.694    -4160415.52849  -3210312.73745  24170949.710    24170962.081
       211.000         149.000
  23890923.247    -2831981.01049  -2167722.88645  23890922.958    23890935.513
       212.000         154.000
  24290605.081    -2694896.31849  -2083045.85945  24290604.165    24290613.274
       204.000         141.000
 99 10  4 15 24 30.0000000  0  8G29G23G21G 3G17G 8G 9G31
  21379071.489    -5087740.45849  -3948220.29847  21379071.857    21379079.304
       238.000         200.000
  21392548.970     1676298.81849   1310070.31047  21392549.056    21392556.537
       242.000         209.000
  21415117.154    -1966231.47249  -1516529.20547  21415117.163    21415124.959
       241.000         206.000
  21740150.482    -3088416.38149  -2387131.48347  21740150.617    21740158.382
       235.000         193.000
  21170664.544     1307131.30949   1023747.63047  21170664.354    21170672.932
       238.000         203.000
  24156715.039    -4235223.77149  -3268604.78645  24156713.615    24156726.017
       210.000         148.000
  23885202.644    -2862043.20149  -2191147.97445  23885202.049    23885214.562
       212.000         154.000
  24274209.918    -2781054.20249  -2150181.95645  24274209.984    24274219.043
       205.000         142.000
 99 10  4 15 25  0.0000000  0  8G29G23G21G 3G17G 8G 9G31
  21364826.005    -5162601.14849  -4006553.29747  21364826.049    21364833.553
       238.000         201.000
  21399702.324     1713889.60149   1339361.75847  21399702.254    21399710.004
       243.000         209.000
  21410431.172    -1990856.73049  -1535717.75847  21410430.807    21410438.784
       241.000         206.000
  21733544.835    -3123129.60049  -2414180.78347  21733544.960    21733552.646
       235.000         194.000
  21177615.769     1343659.84649   1052211.34947  21177615.552    21177624.003
       239.000         203.000
  24142502.465    -4309910.68849  -3326802.29545  24142501.744    24142514.409
       212.000         149.000
  23879562.117    -2891684.56249  -2214245.14645  23879562.173    23879574.872
       212.000         155.000
  24257882.031    -2866858.12549  -2217042.23845  24257882.357    24257891.470
       207.000         143.000
 99 10  4 15 25 30.0000000  0  8G29G23G21G 3G17G 8G 9G31
  21350650.169    -5237095.50549  -4064600.83947  21350650.242    21350657.639
       238.000         201.000
  21406876.980     1751592.33949   1368740.44647  21406876.888    21406884.372
       243.000         208.000
  21405779.518    -2015301.27949  -1554765.49547  21405779.557    21405787.268
       242.000         206.000
  21727041.695    -3157304.13549  -2440810.32947  21727042.222    21727049.392
       236.000         194.000
  21184625.715     1380496.98649   1080915.54147  21184625.719    21184634.120
       238.000         203.000
  24128310.754    -4384488.73949  -3384915.00345  24128309.689    24128321.660
       210.000         149.000
  23873998.844    -2920919.77649  -2237025.83345  23873998.685    23874010.374
       211.000         155.000
  24241623.896    -2952295.70549  -2283617.07845  24241624.343    24241631.625
       208.000         143.000
 99 10  4 15 26  0.0000000  0  8G29G23G21G 3G17G 8G 9G31
  21336544.412    -5311221.77049  -4122361.55347  21336544.468    21336551.780
       238.000         201.000
  21414073.378     1789409.28849   1398208.13347  21414073.196    21414081.114
       242.000         208.000
  21401162.996    -2039561.49349  -1573669.58747  21401162.873    21401170.853
       242.000         206.000
  21720638.573    -3190953.33149  -2467030.52247  21720638.775    21720646.298
       236.000         195.000
  21191694.337     1417642.75649   1109860.22247  21191694.165    21191703.035
       238.000         202.000
  24114138.500    -4458963.72449  -3442947.41145  24114138.409    24114150.034
       212.000         149.000
  23868513.692    -2949744.31249  -2259486.50545  23868513.892    23868525.456
       211.000         155.000
  24225435.057    -3037368.76849  -2349907.85645  24225434.531    24225443.429
       205.000         142.000
 99 10  4 15 26 30.0000000  0  8G29G23G21G 3G17G 8G 9G31
  21322511.385    -5384965.63249  -4179824.29047  21322511.512    21322519.107
       238.000         201.000
  21421293.732     1827352.34849   1427774.08547  21421293.457    21421301.127
       242.000         208.000
  21396581.879    -2063635.65749  -1592428.70347  21396581.775    21396589.677
       242.000         206.000
  21714333.464    -3224087.23949  -2492849.18947  21714333.570    21714341.114
       236.000         195.000
  21198820.376     1455090.29549   1139040.04847  21198820.142    21198828.831
       238.000         202.000
  24099986.848    -4533331.00849  -3500895.92745  24099986.467    24099999.412
       212.000         150.000
  23863108.939    -2978145.92749  -2281617.62145  23863109.173    23863120.725
       212.000         155.000
  24209315.556    -3122077.40149  -2415914.65245  24209315.140    24209324.388
       206.000         143.000
 99 10  4 15 27  0.0000000  0  8G29G23G21G 3G17G 8G 9G31
  21308550.268    -5458332.00749  -4236992.88447  21308550.687    21308557.969
       238.000         202.000
  21428537.567     1865418.71949   1457436.12547  21428537.612    21428545.239
       242.000         208.000
  21392038.708    -2087510.38249  -1611032.41847  21392038.690    21392046.657
       242.000         206.000
  21708126.907    -3256703.06149  -2518264.15547  21708126.757    21708134.509
       235.000         195.000
  21206005.665     1492848.74849   1168462.14147  21206005.568    21206013.844
       238.000         202.000
  24085855.700    -4607590.63249  -3558760.56545  24085854.850    24085868.029
       212.000         151.000
  23857787.178    -3006112.51549  -2303409.75945  23857788.007    23857799.024
       214.000         156.000
  24193265.515    -3206421.45949  -2481637.34245  24193265.601    24193274.219
       206.000         143.000
 99 10  4 15 27 30.0000000  0  8G29G23G21G 3G17G 8G 9G31
  21294663.381    -5531308.22749  -4293857.45547  21294663.401    21294671.235
       238.000         202.000
  21435807.090     1903619.87449   1487203.19147  21435806.830    21435814.784
       242.000         208.000
  21387532.216    -2111192.39349  -1629485.96447  21387532.270    21387539.870
       241.000         206.000
  21702020.534    -3288792.16449  -2543268.69347  21702020.314    21702028.563
       235.000         194.000
  21213256.692     1530952.82549   1198153.55347  21213256.468    21213265.159
       238.000         202.000
  24071745.208    -4681741.38749  -3616540.37345  24071745.058    24071757.577
       210.000         151.000
  23852550.170    -3033633.34249  -2324854.53845  23852549.673    23852562.705
       212.000         157.000
  24177282.512    -3290413.29249  -2547085.57645  24177282.406    24177291.087
       207.000         143.000
 99 10  4 15 28  0.0000000  0  8G29G23G21G 3G17G 8G 9G31
  21280853.260    -5603881.01549  -4350407.66647  21280853.342    21280860.748
       237.000         202.000
  21443104.189     1941966.29249   1517083.45247  21443103.988    21443111.922
       242.000         208.000
  21383062.937    -2134678.57049  -1647786.90847  21383062.784    21383070.710
       241.000         206.000
  21696017.586    -3320337.69449  -2567849.66847  21696017.540    21696025.610
       235.000         194.000
  21220577.297     1569422.46949   1228129.82547  21220577.250    21220585.843
       238.000         202.000
  24057660.657    -4755756.35149  -3674214.39045  24057660.658    24057672.238
       212.000         150.000
  23847402.398    -3060684.85649  -2345933.61245  23847402.417    23847414.982
       213.000         158.000
  24161365.004    -3374060.87549  -2612265.58845  24161365.555    24161373.563
       210.000         143.000
 99 10  4 15 28 30.0000000  0  8G29G23G21G 3G17G 8G 9G31
  21267119.216    -5676053.75849  -4406646.15647  21267119.550    21267126.729
       239.000         202.000
  21450426.707     1980446.37449   1547067.87047  21450426.539    21450434.436
       242.000         207.000
  21378630.149    -2157973.08149  -1665938.50047  21378629.992    21378637.781
       241.000         206.000
  21690122.637    -3351316.16049  -2591988.77247  21690122.840    21690130.477
       236.000         195.000
  21227969.560     1608268.72749   1258399.55747  21227969.293    21227978.068
       238.000         202.000
  24043605.087    -4829618.92849  -3731769.66945  24043604.139    24043617.066
       212.000         151.000
  23842344.077    -3087266.49449  -2366646.55545  23842344.498    23842356.188
       211.000         157.000
  24145512.394    -3457367.56549  -2677179.96945  24145512.230    24145520.484
       211.000         144.000
 99 10  4 15 29  0.0000000  0  8G29G23G21G 3G17G 8G 9G31
  21253462.825    -5747818.69149  -4462566.87347  21253463.044    21253470.603
       238.000         202.000
  21457773.408     2019053.29349   1577151.12047  21457773.523    21457781.338
       242.000         207.000
  21374231.856    -2181086.33949  -1683948.85447  21374231.497    21374239.779
       240.000         206.000
  21684337.556    -3381717.34749  -2615678.05447  21684337.925    21684345.429
       236.000         195.000
  21235434.659     1647497.94649   1288967.70647  21235434.575    21235443.000
       238.000         202.000
  24029580.526    -4903318.06849  -3789197.62545  24029580.328    24029592.981
       209.000         151.000
  23837375.339    -3113377.04549  -2386992.39745  23837375.049    23837387.402
       209.000         156.000
  24129720.777    -3540353.57849  -2741844.46645  24129721.112    24129728.787
       209.000         144.000
 99 10  4 15 29 30.0000000  0  8G29G23G21G 3G17G 8G 9G31
  21239887.463    -5819157.52249  -4518155.55847  21239887.602    21239895.281
       239.000         203.000
  21465144.027     2057785.77249   1607332.21447  21465144.010    21465151.692
       242.000         207.000
  21369866.702    -2204025.41149  -1701823.48447  21369866.519    21369874.718
       241.000         206.000
  21678663.326    -3411535.90949  -2638913.34547  21678662.974    21678671.340
       236.000         196.000
  21242973.397     1687113.91349   1319837.21447  21242973.336    21242981.824
       239.000         202.000
  24015588.428    -4976847.14849  -3846493.05645  24015588.204    24015601.485
       212.000         151.000
  23832496.012    -3139017.18549  -2406971.69345  23832495.537    23832508.639
       211.000         156.000
  24113989.468    -3623022.83349  -2806262.14745  24113989.203    24113997.681
       209.000         144.000
 99 10  4 15 30  0.0000000  0  8G29G23G21G 3G17G 8G 9G31
  21226394.099    -5890065.57349  -4573408.57247  21226394.483    21226401.828
       239.000         203.000
  21472534.877     2096624.55349   1637596.13447  21472534.734    21472542.861
       241.000         207.000
  21365536.486    -2226781.10149  -1719555.21647  21365536.437    21365544.351
       241.000         206.000
  21673100.607    -3440768.23949  -2661691.83147  21673100.595    21673108.587
       236.000         196.000
  21250581.928     1727096.56949   1350992.44947  21250582.008    21250590.328
       238.000         202.000
  24001629.607    -5050201.91949  -3903652.66645  24001629.867    24001642.480
       211.000         151.000
  23827705.637    -3164191.11749  -2426587.71545  23827705.813    23827716.989
       209.000         156.000
  24098320.387    -3705364.36449  -2870424.46445  24098319.680    24098329.031
       208.000         143.000
 99 10  4 15 30 30.0000000  0  8G29G23G21G 3G17G 8G 9G31
  21212982.417    -5960544.43549  -4628327.15347  21212982.788    21212990.034
       239.000         203.000
  21479943.056     2135554.55449   1667931.13147  21479942.845    21479950.776
       241.000         207.000
  21361240.618    -2249356.32149  -1737146.32547  21361240.591    21361248.269
       241.000         207.000
  21667647.130    -3469426.45749  -2684022.96247  21667647.280    21667654.936
       237.000         195.000
  21258255.739     1767422.03049   1382414.80647  21258255.616    21258264.042
       239.000         202.000
  23987703.506    -5123384.23449  -3960677.88945  23987703.129    23987715.605
       212.000         151.000
  23823002.054    -3188908.92849  -2445848.32145  23823002.039    23823013.574
       211.000         156.000
  24082714.985    -3787371.85349  -2934326.46845  24082715.393    24082723.832
       212.000         144.000
 99 10  4 15 31  0.0000000  0  8G29G23G21G 3G17G 8G 9G31
  21199652.502    -6030593.62449  -4682910.92347  21199652.666    21199660.139
       238.000         203.000
  21487368.874     2174577.30349   1698338.40347  21487368.644    21487376.900
       241.000         206.000
  21356978.465    -2271754.33449  -1754599.35347  21356978.471    21356985.964
       241.000         207.000
  21662299.290    -3497529.53049  -2705921.51147  21662299.462    21662307.251
       236.000         195.000
  21265991.471     1808073.23549   1414090.99547  21265991.341    21265999.711
       238.000         201.000
  23973807.826    -5196406.47549  -4017578.38245  23973806.849    23973820.306
       214.000         152.000
  23818384.331    -3213175.79549  -2464757.54545  23818384.516    23818395.190
       215.000         156.000
  24067175.750    -3869031.28249  -2997957.27145  24067174.512    24067184.158
       212.000         146.000
 99 10  4 15 31 30.0000000  0  8G29G23G21G 3G17G 8G 9G31
  21186401.878    -6100225.95849  -4737169.87247  21186401.809    21186409.454
       238.000         203.000
  21494811.632     2213689.08449   1728815.05047  21494811.472    21494819.573
       241.000         206.000
  21352748.679    -2293982.36949  -1771919.93547  21352748.460    21352756.389
       241.000         207.000
  21657056.677    -3525079.69349  -2727389.22547  21657056.752    21657064.552
       236.000         196.000
  21273786.706     1849037.55249   1446011.16347  21273786.304    21273795.086
       238.000         201.000
  23959940.637    -5269279.03049  -4074362.23145  23959940.368    23959953.099
       213.000         152.000
  23813851.501    -3236995.71149  -2483318.51045  23813851.654    23813863.589
       211.000         156.000
  24051706.284    -3950324.15949  -3061302.45345  24051706.030    24051714.957
       212.000         148.000
 99 10  4 15 32  0.0000000  0  8G29G23G21G 3G17G 8G 9G31
  21173229.198    -6169448.63449  -4791109.60947  21173229.318    21173236.362
       239.000         204.000
  21502271.848     2252892.54649   1759363.13647  21502271.837    21502279.624
       242.000         206.000
  21348550.470    -2316044.03849  -1789110.87747  21348550.496    21348558.146
       241.000         207.000
  21651918.267    -3552082.55449  -2748430.46747  21651918.609    21651926.307
       237.000         196.000
  21281638.891     1890301.00649   1478164.42147  21281638.498    21281647.562
       238.000         200.000
  23946099.480    -5342015.23349  -4131039.83045  23946099.790    23946111.826
       214.000         153.000
  23809404.895    -3260362.45649  -2501526.35545  23809404.472    23809416.736
       214.000         156.000
  24036307.221    -4031247.34649  -3124359.56245  24036307.161    24036316.443
       212.000         149.000
 99 10  4 15 32 30.0000000  0  8G29G23G21G 3G17G 8G 9G31
  21160133.960    -6238264.58449  -4844732.41747  21160133.964    21160141.712
       239.000         204.000
  21509754.126     2292211.81749   1790001.46147  21509754.177    21509761.968
       241.000         206.000
  21344383.040    -2337944.09149  -1806175.88247  21344383.021    21344391.030
       241.000         207.000
  21646883.911    -3578538.39649  -2769045.45547  21646884.284    21646891.899
       237.000         196.000
  21289547.514     1931860.64649   1510548.47447  21289547.443    21289556.037
       238.000         200.000
  23932283.378    -5414619.18149  -4187614.33645  23932283.075    23932296.018
       213.000         154.000
  23805044.921    -3283274.30049  -2519379.74645  23805045.160    23805056.770
       215.000         156.000
  24020977.354    -4111806.59549  -3187133.08045  24020977.723    24020985.621
       214.000         150.000
 99 10  4 15 33  0.0000000  0  8G29G23G21G 3G17G 8G 9G31
  21147119.405    -6306656.37749  -4898024.71747  21147119.674    21147126.982
       239.000         205.000
  21517262.665     2331669.21249   1820747.41547  21517262.599    21517270.670
       241.000         206.000
  21340246.780    -2359680.37149  -1823113.27647  21340246.575    21340254.322
       241.000         207.000
  21641955.595    -3604437.40449  -2789226.54847  21641955.816    21641963.729
       238.000         197.000
  21297516.587     1973738.02849   1543180.12147  21297516.436    21297525.417
       237.000         200.000
  23918493.331    -5487086.38249  -4244082.29145  23918492.922    23918505.499
       211.000         153.000
  23800773.991    -3305718.91049  -2536869.07445  23800774.527    23800786.235
       212.000         156.000
  24005716.943    -4192001.18649  -3249622.45745  24005716.968    24005725.660
       214.000         151.000
 99 10  4 15 33 30.0000000  0  8G29G23G21G 3G17G 8G 9G31
  21134186.876    -6374617.43849  -4950981.37747  21134187.227    21134194.482
       239.000         205.000
  21524799.577     2371275.70649   1851609.55347  21524799.651    21524807.332
       241.000         206.000
  21336143.998    -2381240.68549  -1839913.55147  21336143.705    21336151.722
       241.000         207.000
  21637136.839    -3629760.65849  -2808958.99847  21637137.072    21637144.704
       238.000         197.000
  21305551.481     2015961.53549   1576081.47547  21305551.204    21305560.068
       238.000         200.000
  23904732.025    -5559402.71749  -4300432.68245  23904731.699    23904744.645
       213.000         153.000
  23796594.921    -3327680.09749  -2553981.71245  23796594.730    23796606.700
       213.000         156.000
  23990524.837    -4271836.59249  -3311831.96045  23990524.895    23990533.240
       214.000         150.000
 99 10  4 15 34  0.0000000  0  8G29G23G21G 3G17G 8G 9G31
  21121338.220    -6442137.55049  -5003594.44647  21121338.332    21121345.902
       239.000         205.000
  21532366.073     2411037.60849   1882592.78947  21532365.933    21532374.160
       241.000         205.000
  21332077.026    -2402612.89349  -1856567.24747  21332076.870    21332084.856
       241.000         206.000
  21632429.534    -3654497.93749  -2828234.84647  21632429.671    21632437.784
       237.000         197.000
  21313655.881     2058549.99449   1609267.21447  21313655.733    21313664.591
       237.000         200.000
  23891002.187    -5631553.85049  -4356654.33845  23891002.373    23891013.833
       214.000         154.000
  23792510.437    -3349144.07449  -2570706.92045  23792510.328    23792522.401
       213.000         156.000
  23975404.718    -4351293.48849  -3373746.51045  23975403.933    23975413.246
       211.000         149.000
 99 10  4 15 34 30.0000000  0  8G29G23G21G 3G17G 8G 9G31
  21108572.482    -6509221.96849  -5055868.01147  21108572.929    21108580.243
       240.000         205.000
  21539961.479     2450951.66649   1913694.59147  21539961.415    21539969.350
       241.000         205.000
  21328045.571    -2423798.68649  -1873075.68747  21328045.411    21328053.417
       241.000         207.000
  21627835.820    -3678638.41549  -2847045.65847  21627835.951    21627843.805
       238.000         198.000
  21321834.776     2101530.02549   1642758.07347  21321834.821    21321843.448
       237.000         199.000
  23877308.612    -5703514.19849  -4412727.31945  23877308.423    23877320.069
       213.000         154.000
  23788521.770    -3370104.37849  -2587039.67945  23788521.709    23788533.674
       212.000         156.000
  23960359.340    -4430357.56549  -3435354.96245  23960358.549    23960368.325
       211.000         147.000
 99 10  4 15 35  0.0000000  0  8G29G23G21G 3G17G 8G 9G31
  21095886.515    -6575887.57449  -5107815.23247  21095886.642    21095894.105
       239.000         205.000
  21547578.874     2490980.98249   1944886.20347  21547578.902    21547586.984
       241.000         205.000
  21324047.191    -2444810.42449  -1889448.50347  21324047.289    21324054.710
       241.000         207.000
  21623355.418    -3702183.53549  -2865392.54547  21623355.163    21623363.684
       238.000         197.000
  21330089.462     2144908.36249   1676559.29847  21330089.396    21330098.251
       238.000         199.000
  23863649.783    -5775291.74149  -4468657.84345  23863649.189    23863662.726
       214.000         154.000
  23784627.967    -3390566.06149  -2602983.90045  23784627.735    23784640.236
       213.000         156.000
  23945389.092    -4509026.31349  -3496655.36645  23945388.742    23945398.193
       212.000         146.000
 99 10  4 15 35 30.0000000  0  8G29G23G21G 3G17G 8G 9G31
  21083277.160    -6642150.07849  -5159448.34647  21083277.191    21083284.724
       240.000         205.000
  21555214.069     2531103.72049   1976150.61347  21555213.926    21555221.922
       241.000         205.000
  21320081.641    -2465650.10549  -1905687.24647  21320081.515    21320089.254
       241.000         207.000
  21618988.157    -3725133.94149  -2883276.02547  21618988.146    21618995.856
       238.000         197.000
  21338417.486     2188671.80849   1710660.60447  21338417.631    21338426.001
       237.000         199.000
  23850024.267    -5846894.53449  -4524452.19145  23850024.102    23850036.748
       214.000         155.000
  23780828.943    -3410530.65749  -2618540.79045  23780828.945    23780841.543
       212.000         157.000
  23930492.811    -4587307.17949  -3557653.53245  23930493.284    23930501.951
       210.000         147.000
 99 10  4 15 36  0.0000000  0  8G29G23G21G 3G17G 8G 9G31
  21070743.156    -6708016.76849  -5210773.03447  21070743.408    21070750.833
       239.000         206.000
  21562862.723     2571297.24449   2007470.18147  21562862.741    21562870.779
       240.000         205.000
  21316147.315    -2486325.25149  -1921797.77647  21316146.979    21316154.767
       241.000         207.000
  21614731.708    -3747501.95049  -2900705.68447  21614732.052    21614739.715
       238.000         197.000
  21346814.783     2232799.44549   1745045.69547  21346814.878    21346823.428
       237.000         199.000
  23836431.704    -5918324.16949  -4580111.61645  23836431.272    23836443.140
       216.000         155.000
  23777123.270    -3430004.64349  -2633715.37845  23777123.960    23777135.566
       211.000         157.000
  23915670.203    -4665201.34849  -3618350.35245  23915669.447    23915678.161
       209.000         147.000
 99 10  4 15 36 30.0000000  0  8G29G23G21G 3G17G 8G 9G31
  21058286.233    -6773478.18349  -5261781.92847  21058286.432    21058293.868
       240.000         206.000
  21570519.979     2611536.02449   2038825.01347  21570520.100    21570528.035
       241.000         205.000
  21312243.340    -2506840.82249  -1937783.95847  21312243.231    21312251.167
       241.000         206.000
  21610584.154    -3769297.62849  -2917689.37047  21610584.154    21610592.030
       239.000         197.000
  21355280.225     2277285.10449   1779709.76647  21355280.117    21355288.759
       237.000         199.000
  23822871.871    -5989581.66549  -4635636.89745  23822870.850    23822883.510
       214.000         156.000
  23773508.919    -3448998.12249  -2648515.55245  23773508.433    23773520.991
       211.000         157.000
  23900915.702    -4742736.86149  -3678767.69145  23900915.431    23900924.943
       210.000         148.000
 99 10  4 15 37  0.0000000  0  8G29G23G21G 3G17G 8G 9G31
  21045911.280    -6838508.99249  -5312455.28647  21045911.449    21045918.850
       240.000         206.000
  21578185.568     2651818.59449   2070213.96747  21578185.253    21578193.570
       240.000         205.000
  21308371.676    -2527186.63149  -1953637.86347  21308371.621    21308379.557
       240.000         207.000
  21606542.872    -3790534.92949  -2934237.96047  21606543.042    21606550.688
       238.000         197.000
  21363808.693     2322102.12349   1814632.03947  21363808.373    21363817.355
       237.000         199.000
  23809345.816    -6060661.22049  -4691023.52045  23809345.173    23809357.416
       213.000         155.000
  23769983.987    -3467521.25549  -2662949.22945  23769983.983    23769995.961
       211.000         156.000
  23886228.360    -4819919.75149  -3738910.28445  23886228.178    23886236.736
       210.000         150.000
 99 10  4 15 37 30.0000000  0  8G29G23G21G 3G17G 8G 9G31
  21033622.730    -6903085.54049  -5362774.67347  21033622.866    21033630.107
       240.000         206.000
  21585861.335     2692154.73649   2101644.66047  21585861.139    21585869.294
       240.000         204.000
  21304533.309    -2547357.61249  -1969355.54047  21304533.139    21304541.135
       241.000         207.000
  21602604.288    -3811232.59649  -2950366.05947  21602604.428    21602612.638
       238.000         197.000
  21372398.515     2367241.74949   1849805.69347  21372398.087    21372407.149
       236.000         199.000
  23795856.598    -6131547.32149  -4746259.40345  23795856.192    23795868.583
       211.000         154.000
  23766548.809    -3485573.40549  -2677015.89445  23766548.751    23766560.691
       213.000         157.000
  23871609.430    -4896743.33849  -3798772.87145  23871609.609    23871618.630
       210.000         149.000
 99 10  4 15 38  0.0000000  0  8G29G23G21G 3G17G 8G 9G31
  21021421.814    -6967201.84149  -5412735.43047  21021422.362    21021429.429
       240.000         207.000
  21593546.315     2732539.26149   2133113.05247  21593546.349    21593554.340
       240.000         204.000
  21300727.145    -2567359.24249  -1984941.25147  21300727.034    21300734.848
       241.000         207.000
  21598767.319    -3831396.24549  -2966078.03947  21598767.205    21598775.504
       237.000         197.000
  21381049.162     2412701.06049   1885228.45247  21381049.168    21381058.064
       237.000         199.000
  23782405.479    -6202233.31449  -4801339.34345  23782404.144    23782417.472
       213.000         154.000
  23763201.151    -3503165.84949  -2690724.36145  23763202.197    23763212.982
       214.000         157.000
  23857063.674    -4973182.06849  -3858335.58145  23857064.578    23857072.306
       209.000         150.000
 99 10  4 15 38 30.0000000  0  8G29G23G21G 3G17G 8G 9G31
  21009304.194    -7030880.52349  -5462355.18047  21009304.571    21009311.857
       240.000         207.000
  21601239.127     2772965.02949   2164613.58947  21601238.963    21601247.136
       240.000         204.000
  21296946.905    -2587224.63249  -2000420.80647  21296946.950    21296954.756
       241.000         207.000
  21595026.214    -3851055.94749  -2981397.32047  21595026.334    21595034.230
       237.000         197.000
  21389753.486     2458442.23849   1920870.85147  21389753.432    21389762.309
       237.000         199.000
  23768986.792    -6272748.62449  -4856286.29645  23768986.093    23768999.130
       210.000         154.000
  23759933.707    -3520336.80649  -2704104.39945  23759934.100    23759945.708
       213.000         157.000
  23842586.133    -5049262.15749  -3917618.82945  23842585.561    23842594.626
       209.000         150.000
 99 10  4 15 39  0.0000000  0  8G29G23G21G 3G17G 8G 9G31
  20997275.106    -7094093.86249  -5511612.32947  20997275.429    20997282.776
       241.000         207.000
  21608955.043     2813512.24149   2196208.75447  21608954.962    21608963.205
       241.000         204.000
  21293201.000    -2606909.83449  -2015759.95547  21293201.134    21293208.547
       241.000         207.000
  21591389.955    -3870164.44649  -2996287.10347  21591390.242    21591397.899
       237.000         197.000
  21398519.460     2504507.38049   1956765.68347  21398519.453    21398528.595
       237.000         199.000
  23755607.730    -6343055.81249  -4911071.05345  23755608.095    23755619.652
       214.000         155.000
  23756756.604    -3537032.18349  -2717113.83645  23756756.660    23756768.955
       213.000         156.000
  23828189.179    -5124919.05849  -3976572.33045  23828188.718    23828198.168
       211.000         151.000
 99 10  4 15 39 30.0000000  0  8G29G23G21G 3G17G 8G 9G31
  20985336.095    -7156833.91949  -5560500.68847  20985336.044    20985343.584
       241.000         208.000
  21616701.076     2854217.56849   2227927.12847  21616700.969    21616709.063
       240.000         204.000
  21289491.525    -2626403.24849  -2030949.66047  21289491.082    21289499.286
       241.000         207.000
  21587867.674    -3888674.35449  -3010710.45047  21587867.500    21587875.770
       236.000         197.000
  21407356.818     2550947.53649   1992952.74247  21407356.735    21407365.733
       237.000         199.000
  23742270.847    -6413141.34749  -4965683.11945  23742270.958    23742282.503
       214.000         155.000
  23753677.605    -3553213.06949  -2729722.38645  23753677.311    23753690.457
       211.000         156.000
  23813879.919    -5200115.34149  -4035166.89845  23813880.134    23813889.470
       211.000         154.000
 99 10  4 15 40  0.0000000  0  8G29G23G21G 3G17G 8G 9G31
  20973478.368    -7219146.58849  -5609056.01747  20973478.443    20973486.036
       240.000         208.000
  21624473.052     2895059.16549   2259751.68647  21624472.999    21624481.213
       240.000         204.000
  21285812.149    -2645738.71249  -2046016.29047  21285811.909    21285819.846
       241.000         206.000
  21584456.381    -3906600.67049  -3024679.05147  21584456.342    21584464.781
       237.000         197.000
  21416260.493     2597736.33949   2029411.46047  21416260.152    21416269.269
       237.000         199.000
  23728968.806    -6483044.31149  -5020152.89045  23728967.967    23728981.418
       214.000         155.000
  23750690.357    -3568910.91049  -2741954.52145  23750689.790    23750703.117
       212.000         156.000
  23799650.732    -5274890.60749  -4093433.39545  23799650.335    23799659.585
       213.000         155.000
 99 10  4 15 40 30.0000000  0  8G29G23G21G 3G17G 8G 9G31
  20961704.507    -7281018.66749  -5657268.03247  20961704.814    20961712.207
       241.000         208.000
  21632275.330     2936060.22949   2291700.50747  21632275.247    21632283.405
       239.000         203.000
  21282164.363    -2664907.84549  -2060953.31447  21282164.034    21282171.959
       240.000         206.000
  21581157.958    -3923934.39849  -3038185.90047  21581158.385    21581166.393
       236.000         197.000
  21425234.117     2644892.81149   2066156.67747  21425234.049    21425243.092
       236.000         198.000
  23715704.278    -6552749.79049  -5074468.78845  23715703.650    23715716.226
       214.000         156.000
  23747797.873    -3584111.61449  -2753799.25445  23747798.681    23747810.737
       213.000         156.000
  23785499.749    -5349254.62949  -4151379.46645  23785499.351    23785508.802
       212.000         156.000
 99 10  4 15 41  0.0000000  0  8G29G23G21G 3G17G 8G 9G31
  20950015.844    -7342443.17649  -5705131.28747  20950016.296    20950023.446
       241.000         208.000
  21640105.880     2977209.74249   2323765.00147  21640105.856    21640114.075
       240.000         203.000
  21278548.251    -2683910.46849  -2075760.58847  21278547.818    21278556.192
       241.000         206.000
  21577975.222    -3940660.00849  -3051218.88447  21577975.578    21577983.293
       237.000         198.000
  21434283.735     2692448.53349   2103212.99847  21434283.674    21434292.609
       236.000         198.000
  23702481.785    -6622234.03249  -5128612.29645  23702481.873    23702494.187
       214.000         155.000
  23745004.016    -3598793.64649  -2765239.81445  23745004.256    23745017.123
       212.000         157.000
  23771429.301    -5423195.31749  -4208995.64945  23771429.192    23771438.793
       211.000         157.000
 99 10  4 15 41 30.0000000  0  8G29G23G21G 3G17G 8G 9G31
  20938412.674    -7403418.65749  -5752644.65347  20938413.038    20938420.011
       241.000         209.000
  21647958.431     3018474.90349   2355919.61447  21647958.260    21647966.455
       240.000         203.000
  21274963.134    -2702750.52549  -2090441.18847  21274963.080    21274971.105
       241.000         207.000
  21574908.683    -3956775.06849  -3063776.11647  21574908.372    21574916.888
       237.000         198.000
  21443408.915     2740401.37149   2140578.75447  21443408.727    21443417.617
       236.000         198.000
  23689303.523    -6691485.96149  -5182574.78845  23689302.457    23689315.325
       213.000         154.000
  23742306.235    -3612971.20949  -2776287.27745  23742306.303    23742318.052
       214.000         157.000
  23757438.507    -5496717.45549  -4266285.68445  23757438.987    23757447.710
       213.000         158.000
 99 10  4 15 42  0.0000000  0  8G29G23G21G 3G17G 8G 9G31
  20926894.300    -7463948.12849  -5799810.47947  20926894.502    20926901.897
       241.000         209.000
  21655829.459     3059837.22649   2388149.93247  21655829.401    21655837.796
       239.000         203.000
  21271410.372    -2721420.49549  -2104989.25547  21271410.299    21271418.293
       241.000         207.000
  21571954.126    -3972301.40849  -3075874.61647  21571954.307    21571962.420
       237.000         198.000
  21452606.164     2788732.75549   2178239.47947  21452606.000    21452614.946
       236.000         197.000
  23676173.286    -6760485.14049  -5236340.34045  23676172.717    23676184.526
       214.000         155.000
  23739704.031    -3626646.60849  -2786943.43345  23739704.285    23739715.719
       213.000         157.000
  23743525.027    -5569833.84749  -4323259.54945  23743525.110    23743534.756
       213.000         157.000
 99 10  4 15 42 30.0000000  0  8G29G23G21G 3G17G 8G 9G31
  20915457.861    -7524047.06849  -5846640.82047  20915458.080    20915465.406
       241.000         209.000
  21663714.998     3101275.63649   2420439.55047  21663714.752    21663723.157
       239.000         203.000
  21267887.262    -2739934.83549  -2119416.05047  21267887.138    21267895.390
       241.000         207.000
  21569110.352    -3987245.89949  -3087519.71947  21569110.535    21569118.518
       237.000         198.000
  21461873.050     2837430.06049   2216185.34547  21461872.885    21461881.971
       237.000         197.000
  23663092.473    -6829225.05749  -5289903.85145  23663091.423    23663103.991
       217.000         155.000
  23737197.441    -3639818.83749  -2797207.49645  23737198.230    23737209.758
       214.000         157.000
  23729688.427    -5642545.48149  -4379918.03145  23729688.938    23729698.048
       215.000         158.000
 99 10  4 15 43  0.0000000  0  8G29G23G21G 3G17G 8G 9G31
  20904098.951    -7583738.55749  -5893153.67447  20904098.973    20904106.746
       240.000         209.000
  21671609.147     3142759.57149   2452764.63347  21671609.277    21671617.241
       239.000         203.000
  21264391.714    -2758304.00749  -2133729.72647  21264391.678    21264399.893
       240.000         207.000
  21566375.324    -4001619.11549  -3098719.67247  21566375.439    21566383.063
       237.000         198.000
  21471205.295     2886471.09849   2254399.05547  21471204.794    21471214.063
       236.000         197.000
  23650056.519    -6897729.24849  -5343283.70345  23650055.847    23650068.953
       213.000         156.000
  23734785.074    -3652495.97649  -2807085.76645  23734785.590    23734797.337
       211.000         157.000
  23715928.673    -5714854.20849  -4436262.54645  23715928.974    23715937.947
       213.000         158.000
 99 10  4 15 43 30.0000000  0  8G29G23G21G 3G17G 8G 9G31
  20892816.551    -7643027.75149  -5939353.04247  20892816.494    20892824.149
       240.000         209.000
  21679512.172     3184289.82749   2485125.81547  21679512.196    21679520.308
       240.000         203.000
  21260925.858    -2776517.03149  -2147921.73047  21260925.717    21260933.831
       241.000         207.000
  21563745.828    -4015437.27449  -3109487.11347  21563745.719    21563753.807
       237.000         198.000
  21480597.948     2935829.60949   2292860.13547  21480597.981    21480607.108
       236.000         197.000
  23637062.007    -6966015.54649  -5396493.76645  23637061.883    23637073.568
       215.000         156.000
  23732464.346    -3664690.50149  -2816587.94845  23732464.417    23732476.873
       213.000         157.000
  23702245.576    -5786759.60749  -4492292.78745  23702245.367    23702255.183
       214.000         158.000
 99 10  4 15 44  0.0000000  0  8G29G23G21G 3G17G 8G 9G31
  20881613.407    -7701900.64749  -5985228.02547  20881613.700    20881620.995
       241.000         209.000
  21687426.735     3225880.78349   2517534.29447  21687426.447    21687435.018
       240.000         203.000
  21257488.061    -2794583.04249  -2161999.18247  21257488.267    21257496.204
       241.000         207.000
  21561222.326    -4028698.55949  -3119820.62947  21561222.816    21561230.202
       237.000         198.000
  21490051.093     2985505.87249   2331568.81947  21490051.127    21490060.311
       235.000         196.000
  23624108.118    -7034088.39349  -5449537.51845  23624108.090    23624120.164
       214.000         156.000
  23730237.359    -3676393.72049  -2825707.29145  23730236.509    23730249.820
       213.000         157.000
  23688639.226    -5858261.34949  -4548008.49845  23688638.777    23688648.416
       215.000         159.000
 99 10  4 15 44 30.0000000  0  8G29G23G21G 3G17G 8G 9G31
  20870494.612    -7760330.39449  -6030757.69547  20870494.757    20870502.176
       241.000         209.000
  21695353.501     3267535.93249   2549992.78847  21695353.649    21695361.510
       240.000         203.000
  21254076.279    -2812512.51349  -2175970.23747  21254076.239    21254084.283
       241.000         207.000
  21558808.322    -4041384.80949  -3129706.06447  21558808.767    21558816.748
       238.000         198.000
  21499565.552     3035504.34149   2370528.57147  21499565.730    21499574.894
       235.000         196.000
  23611190.468    -7101970.56349  -5502432.69145  23611190.033    23611202.047
       216.000         157.000
  23728102.697    -3687611.51649  -2834448.37545  23728103.126    23728115.215
       213.000         157.000
  23675111.126    -5929352.63449  -4603404.36945  23675111.092    23675120.352
       216.000         160.000
 99 10  4 15 45  0.0000000  0  8G29G23G21G 3G17G 8G 9G31
  20859466.573    -7818283.13849  -6075915.67947  20859466.652    20859474.202
       241.000         209.000
  21703294.609     3309266.31549   2582509.90247  21703294.522    21703302.588
       239.000         203.000
  21250691.940    -2830297.72949  -2189828.88347  21250692.062    21250699.824
       241.000         207.000
  21556503.273    -4053498.25449  -3139145.16347  21556503.333    21556511.169
       237.000         198.000
  21509144.530     3085841.57149   2409752.28447  21509144.459    21509153.737
       235.000         196.000
  23598309.237    -7169661.66049  -5555178.98045  23598309.510    23598321.363
       214.000         158.000
  23726061.666    -3698337.73649  -2842806.38545  23726061.989    23726073.487
       214.000         157.000
  23661661.526    -6000030.86749  -4658478.38545  23661661.083    23661671.343
       214.000         159.000
 99 10  4 15 45 30.0000000  0  8G29G23G21G 3G17G 8G 9G31
  20848534.715    -7875730.40349  -6120679.78247  20848534.900    20848542.113
       241.000         209.000
  21711254.284     3351094.56249   2615103.27747  21711254.521    21711262.583
       240.000         203.000
  21247335.931    -2847934.03549  -2203571.49447  21247335.706    21247343.765
       241.000         207.000
  21554310.289    -4065022.44649  -3148125.10147  21554310.681    21554318.829
       237.000         198.000
  21518790.570     3136531.43649   2449250.77947  21518790.491    21518799.972
       235.000         196.000
  23585468.925    -7237138.19949  -5607758.08945  23585468.530    23585480.771
       215.000         158.000
  23724117.065    -3708556.81949  -2850769.24045  23724116.696    23724128.833
       212.000         157.000
  23648289.769    -6070300.53449  -4713234.03945  23648289.380    23648298.125
       216.000         159.000
 99 10  4 15 46  0.0000000  0  8G29G23G21G 3G17G 8G 9G31
  20837700.527    -7932664.49749  -6165044.01147  20837700.790    20837708.386
       241.000         210.000
  21719233.332     3393024.34549   2647775.76747  21719233.108    21719241.519
       239.000         203.000
  21244007.258    -2865426.52149  -2217202.03647  21244007.200    21244015.351
       240.000         207.000
  21552232.294    -4075942.61449  -3156634.37547  21552232.490    21552240.646
       237.000         198.000
  21528507.073     3187591.49549   2489037.73747  21528506.885    21528515.866
       236.000         195.000
  23572672.664    -7304383.17349  -5660156.72845  23572672.039    23572684.002
       217.000         158.000
  23722272.483    -3718249.63049  -2858322.00745  23722272.732    23722284.969
       214.000         157.000
  23634996.219    -6140159.19449  -4767669.42945  23634996.073    23635005.695
       215.000         158.000
 99 10  4 15 46 30.0000000  0  8G29G23G21G 3G17G 8G 9G31
  20826960.628    -7989103.05549  -6209022.10847  20826960.665    20826968.375
       241.000         210.000
  21727228.303     3435038.10249   2680513.69647  21727228.213    21727236.484
       239.000         203.000
  21240708.541    -2882761.70249  -2230709.99447  21240708.344    21240716.382
       241.000         207.000
  21550267.760    -4086266.62449  -3164679.10747  21550267.410    21550275.959
       237.000         198.000
  21538293.788     3239020.53249   2529112.22347  21538294.059    21538302.678
       235.000         195.000
  23559921.515    -7371390.90949  -5712370.53645  23559920.876    23559933.467
       216.000         158.000
  23720527.936    -3727416.83249  -2865465.19245  23720527.550    23720539.239
       211.000         157.000
  23621782.552    -6209597.60249  -4821777.35545  23621782.210    23621791.900
       214.000         157.000
 99 10  4 15 47  0.0000000  0  8G29G23G21G 3G17G 8G 9G31
  20816311.735    -8045063.18849  -6252627.40647  20816311.977    20816319.553
       241.000         210.000
  21735242.395     3477151.92549   2713329.59647  21735242.535    21735250.574
       239.000         202.000
  21237444.497    -2899914.62349  -2244075.93047  21237444.443    21237452.312
       241.000         207.000
  21548415.428    -4096000.68449  -3172264.14047  21548415.203    21548423.645
       237.000         198.000
  21548152.747     3290829.36849   2569482.64247  21548152.734    21548161.876
       234.000         195.000
  23547221.006    -7438132.42749  -5764376.89745  23547220.528    23547233.016
       218.000         159.000
  23718886.430    -3736043.36549  -2872187.08645  23718886.517    23718897.852
       215.000         157.000
  23608652.008    -6278599.34949  -4875545.02545  23608651.810    23608660.794
       215.000         157.000
 99 10  4 15 47 30.0000000  0  8G29G23G21G 3G17G 8G 9G31
  20805747.593    -8100578.23749  -6295885.88747  20805747.950    20805755.281
       242.000         210.000
  21743273.826     3519356.72849   2746216.38947  21743273.735    21743282.147
       239.000         202.000
  21234215.270    -2916884.42949  -2257299.18147  21234215.139    21234223.262
       241.000         207.000
  21546674.088    -4105151.28549  -3179394.52747  21546674.188    21546682.307
       237.000         198.000
  21558081.206     3343003.34249   2610137.58647  21558081.441    21558090.616
       235.000         195.000
  23534572.444    -7504601.51949  -5816170.96645  23534572.944    23534584.293
       215.000         159.000
  23717345.213    -3744142.68249  -2878498.15545  23717345.134    23717356.527
       213.000         157.000
  23595607.181    -6347150.33449  -4928961.45645  23595607.361    23595617.307
       214.000         157.000
 99 10  4 15 48  0.0000000  0  8G29G23G21G 3G17G 8G 9G31
  20795263.237    -8155674.07749  -6338817.71347  20795263.579    20795271.003
       241.000         211.000
  21751319.989     3561639.37349   2779163.83247  21751319.895    21751328.151
       238.000         202.000
  21231020.755    -2933672.00149  -2270380.42747  21231020.670    21231028.542
       241.000         207.000
  21545041.004    -4113733.33349  -3186081.88947  21545041.038    21545049.275
       237.000         198.000
  21568078.891     3395541.02049   2651075.94347  21568078.710    21568088.062
       235.000         195.000
  23521974.711    -7570802.84649  -5867756.38745  23521974.436    23521986.274
       218.000         159.000
  23715900.435    -3751735.17949  -2884414.29945  23715899.534    23715912.021
       212.000         156.000
  23582651.732    -6415232.17949  -4982012.30145  23582651.950    23582660.804
       216.000         158.000
 99 10  4 15 48 30.0000000  0  8G29G23G21G 3G17G 8G 9G31
  20784858.621    -8210350.88849  -6381423.01847  20784858.862    20784866.271
       242.000         211.000
  21759379.987     3603994.83649   2812168.01647  21759379.875    21759388.294
       239.000         202.000
  21227860.214    -2950281.03349  -2283322.55347  21227860.198    21227868.423
       241.000         207.000
  21543514.754    -4121754.44049  -3192332.15347  21543514.855    21543523.038
       238.000         198.000
  21578143.288     3448429.45049   2692287.61647  21578143.012    21578152.431
       235.000         195.000
  23509428.479    -7636733.45849  -5919130.85345  23509428.931    23509440.723
       219.000         161.000
  23714549.972    -3758830.89149  -2889943.33945  23714549.989    23714561.744
       214.000         157.000
  23569784.179    -6482852.21749  -5034703.30145  23569783.568    23569793.459
       216.000         157.000
 99 10  4 15 49  0.0000000  0  8G29G23G21G 3G17G 8G 9G31
  20774535.519    -8264599.20249  -6423694.43247  20774535.508    20774543.003
       242.000         211.000
  21767454.450     3646426.06049   2845231.23047  21767454.455    21767462.464
       238.000         202.000
  21224730.804    -2966726.52449  -2296137.23847  21224730.545    21224738.831
       241.000         207.000
  21542095.727    -4129211.76949  -3198143.11347  21542095.667    21542103.985
       238.000         198.000
  21588275.542     3501674.37349   2733777.06047  21588275.338    21588285.046
       235.000         195.000
  23496935.064    -7702387.32349  -5970289.65645  23496935.080    23496946.606
       219.000         161.000
  23713294.545    -3765427.74249  -2895083.65845  23713294.548    23713306.751
       215.000         157.000
  23557001.352    -6550027.09049  -5087047.43045  23557001.347    23557010.270
       217.000         158.000
 99 10  4 15 49 30.0000000  0  8G29G23G21G 3G17G 8G 9G31
  20764296.208    -8318407.21849  -6465622.75847  20764296.337    20764303.912
       242.000         211.000
  21775541.414     3688922.98349   2878345.64147  21775541.596    21775549.638
       238.000         202.000
  21221629.807    -2983022.45749  -2308835.38547  21221629.582    21221637.860
       241.000         207.000
  21540786.050    -4136094.41749  -3203506.26847  21540786.324    21540794.423
       238.000         199.000
  21598474.993     3555272.28149   2775541.56047  21598475.057    21598483.865
       235.000         194.000
  23484494.052    -7767765.55349  -6021233.66645  23484494.353    23484506.044
       220.000         161.000
  23712133.440    -3771529.24949  -2899837.98545  23712133.302    23712144.800
       215.000         158.000
  23544300.956    -6616768.07649  -5139053.43645  23544300.520    23544309.873
       214.000         156.000
 99 10  4 15 50  0.0000000  0  8G29G23G21G 3G17G 8G 9G31
  20754144.649    -8371754.08349  -6507191.74447  20754144.825    20754152.197
       242.000         211.000
  21783640.410     3731483.09349   2911509.29447  21783640.340    21783648.601
       238.000         202.000
  21218557.049    -2999169.97149  -2321417.88247  21218556.889    21218564.875
       241.000         207.000
  21539587.912    -4142391.36449  -3208413.04247  21539588.143    21539596.121
       238.000         199.000
  21608740.828     3609219.10949   2817577.94747  21608740.850    21608749.621
       234.000         194.000
  23472105.127    -7832869.63649  -6071964.05345  23472104.920    23472116.444
       218.000         161.000
  23711067.923    -3777128.52349  -2904200.96445  23711067.959    23711080.054
       213.000         158.000
  23531679.436    -6683094.39749  -5190736.33645  23531679.887    23531688.844
       218.000         156.000
 99 10  4 15 50 30.0000000  0  8G29G23G21G 3G17G 8G 9G31
  20744086.990    -8424607.58349  -6548376.28747  20744087.207    20744094.505
       242.000         211.000
  21791751.143     3774104.85449   2944720.98247  21791751.225    21791759.520
       238.000         202.000
  21215511.592    -3015174.23349  -2333888.75947  21215511.417    21215519.361
       240.000         207.000
  21538500.931    -4148104.13449  -3212864.60147  21538501.186    21538509.382
       238.000         199.000
  21619072.126     3663509.97449   2859882.41647  21619072.028    21619081.545
       235.000         194.000
  23459767.911    -7897702.27849  -6122482.91345  23459767.861    23459779.593
       219.000         161.000
  23710101.001    -3782209.56049  -2908160.13345  23710101.099    23710112.763
       215.000         157.000
  23519136.009    -6749010.67649  -5242099.72545  23519135.791    23519144.937
       217.000         157.000
 99 10  4 15 51  0.0000000  0  8G29G23G21G 3G17G 8G 9G31
  20734124.032    -8476963.39949  -6589173.02347  20734124.145    20734131.848
       242.000         212.000
  21799876.275     3816802.27249   2977991.62747  21799876.380    21799884.655
       238.000         201.000
  21212494.437    -3031029.56549  -2346243.58647  21212494.396    21212502.443
       240.000         207.000
  21537524.825    -4153233.85049  -3216861.83347  21537524.762    21537533.219
       238.000         199.000
  21629470.390     3718152.67649   2902461.04047  21629470.209    21629479.700
       234.000         194.000
  23447482.549    -7962262.54949  -6172789.53245  23447482.456    23447493.515
       219.000         162.000
  23709233.465    -3786768.51949  -2911712.48645  23709233.079    23709243.963
       213.000         157.000
  23506675.095    -6814493.58249  -5293125.41945  23506675.127    23506684.932
       216.000         157.000
 99 10  4 15 51 30.0000000  0  8G29G23G21G 3G17G 8G 9G31
  20724257.078    -8528814.58349  -6629576.54347  20724257.315    20724264.722
       242.000         212.000
  21808018.926     3859591.71949   3011333.97847  21808019.103    21808027.314
       238.000         201.000
  21209507.286    -3046727.28149  -2358475.59947  21209506.934    21209515.085
       240.000         207.000
  21536658.676    -4157785.72249  -3220408.79947  21536658.901    21536666.650
       238.000         199.000
  21639932.949     3773133.38249   2945303.03547  21639933.206    21639942.135
       234.000         193.000
  23435249.022    -8026550.09049  -6222883.63745  23435247.836    23435259.789
       220.000         162.000
  23708466.856    -3790796.27349  -2914850.92245  23708466.450    23708477.936
       214.000         156.000
  23494302.107    -6879514.57349  -5343791.17745  23494301.074    23494312.170
       216.000         158.000
 99 10  4 15 52  0.0000000  0  8G29G23G21G 3G17G 8G 9G31
  20714485.796    -8580162.96149  -6669588.26647  20714485.970    20714493.562
       242.000         212.000
  21816180.051     3902478.02449   3044751.80847  21816180.023    21816188.055
       238.000         201.000
  21206549.306    -3062271.53349  -2370588.03147  21206549.062    21206557.342
       240.000         207.000
  21535900.770    -4161768.76649  -3223512.52147  21535900.996    21535908.978
       237.000         199.000
  21650461.246     3828459.48449   2988414.16847  21650460.958    21650470.242
       234.000         193.000
  23423066.490    -8090569.47249  -6272768.78045  23423065.739    23423077.248
       219.000         162.000
  23707803.539    -3794282.11649  -2917567.09545  23707802.620    23707814.477
       214.000         157.000
  23482021.729    -6944048.33649  -5394077.27945  23482021.695    23482031.426
       217.000         158.000
 99 10  4 15 52 30.0000000  0  8G29G23G21G 3G17G 8G 9G31
  20704805.701    -8631032.15549  -6709226.59947  20704805.791    20704813.344
       242.000         212.000
  21824361.464     3945471.40849   3078253.07447  21824361.449    21824369.643
       238.000         201.000
  21203620.800    -3077661.26849  -2382580.06347  21203620.749    21203628.783
       241.000         207.000
  21535248.935    -4165194.37949  -3226181.89047  21535248.977    21535257.095
       237.000         199.000
  21661058.205     3884146.19049   3031806.29347  21661058.022    21661067.256
       234.000         193.000
  23410935.913    -8154315.76149  -6322441.13045  23410935.477    23410947.420
       221.000         161.000
  23707243.701    -3797224.32649  -2919859.67845  23707243.687    23707254.825
       214.000         158.000
  23469835.899    -7008085.93849  -5443976.74645  23469836.390    23469845.988
       219.000         158.000
 99 10  4 15 53  0.0000000  0  8G29G23G21G 3G17G 8G 9G31
  20695211.538    -8681449.76649  -6748513.04847  20695211.743    20695219.249
       242.000         212.000
  21832565.232     3988582.18849   3111845.82047  21832565.240    21832573.523
       238.000         201.000
  21200723.165    -3092888.60949  -2394445.55047  21200722.865    21200731.259
       240.000         207.000
  21534704.926    -4168053.18949  -3228409.58747  21534705.004    21534713.315
       238.000         199.000
  21671725.326     3940201.78549   3075485.87247  21671725.147    21671734.638
       234.000         193.000
  23398860.036    -8217774.76049  -6371889.61945  23398859.567    23398870.877
       220.000         162.000
  23706787.207    -3799623.10549  -2921728.79945  23706786.353    23706798.356
       214.000         157.000
  23457743.544    -7071632.52149  -5493493.62445  23457743.812    23457752.525
       217.000         159.000
 99 10  4 15 53 30.0000000  0  8G29G23G21G 3G17G 8G 9G31
  20685701.759    -8731424.28849  -6787454.23547  20685702.176    20685709.447
       242.000         212.000
  21840788.607     4031795.89449   3145518.77347  21840788.247    21840796.753
       237.000         201.000
  21197857.201    -3107949.24049  -2406181.13647  21197856.879    21197865.012
       240.000         207.000
  21534272.351    -4170326.68849  -3230181.20747  21534272.823    21534280.633
       237.000         198.000
  21682465.491     3996641.11049   3119464.45547  21682465.601    21682474.933
       235.000         193.000
  23386837.627    -8280952.86049  -6421119.19945  23386836.240    23386848.267
       223.000         162.000
  23706433.201    -3801483.36449  -2923178.32745  23706432.628    23706444.645
       212.000         156.000
  23445742.276    -7134699.85049  -5542637.05645  23445742.190    23445751.591
       218.000         159.000
 99 10  4 15 54  0.0000000  0  8G29G23G21G 3G17G 8G 9G31
  20676276.451    -8780954.57649  -6826049.26547  20676276.642    20676284.021
       244.000         212.000
  21849030.177     4075105.58749   3179266.51747  21849029.991    21849038.345
       237.000         200.000
  21195024.258    -3122836.54749  -2417781.66447  21195024.140    21195032.520
       241.000         207.000
  21533953.496    -4172002.57749  -3231487.14647  21533953.904    21533961.652
       237.000         198.000
  21693282.073     4053481.97549   3163755.91647  21693282.053    21693291.778
       234.000         193.000
  23374870.249    -8343841.57549  -6470123.27846  23374869.724    23374882.285
       219.000         163.000
  23706179.939    -3802814.18149  -2924215.29745  23706180.323    23706191.035
       212.000         156.000
  23433828.459    -7197307.28549  -5591422.12545  23433829.038    23433837.438
       217.000         159.000
 99 10  4 15 54 30.0000000  0  8G29G23G21G 3G17G 8G 9G31
  20666939.189    -8830022.33849  -6864283.88347  20666939.545    20666946.921
       244.000         212.000
  21857288.183     4118501.59549   3213081.51847  21857287.864    21857296.542
       237.000         200.000
  21192224.890    -3137547.52249  -2429244.79147  21192224.768    21192232.940
       241.000         207.000
  21533750.498    -4173069.45649  -3232318.53847  21533750.435    21533758.745
       237.000         198.000
  21704173.770     4110717.72049   3208355.07447  21704173.274    21704182.854
       233.000         192.000
  23362960.887    -8406425.00049  -6518889.49146  23362960.979    23362972.724
       217.000         163.000
  23706028.891    -3803608.17149  -2924833.97945  23706028.748    23706039.171
       212.000         156.000
  23421999.787    -7259467.36249  -5639858.60045  23421999.317    23422008.898
       217.000         159.000
 99 10  4 15 55  0.0000000  0  8G29G23G21G 3G17G 8G 9G31
  20657694.344    -8878604.42049  -6902140.06148  20657694.636    20657701.833
       244.000         213.000
  21865557.734     4161957.96649   3246943.55347  21865557.490    21865565.965
       237.000         200.000
  21189454.596    -3152105.92049  -2440589.03347  21189454.506    21189462.694
       241.000         207.000
  21533664.729    -4173520.53649  -3232670.08647  21533664.634    21533672.934
       237.000         198.000
  21715136.775     4168328.18049   3253246.22047  21715136.834    21715146.083
       233.000         192.000
  23351108.439    -8468709.17349  -6567422.50946  23351107.515    23351119.425
       218.000         164.000
  23705978.803    -3803870.78149  -2925038.61545  23705979.012    23705990.036
       214.000         156.000
  23410256.379    -7321179.71349  -5687946.19945  23410256.836    23410265.773
       217.000         159.000
 99 10  4 15 55 30.0000000  0  8G29G23G21G 3G17G 8G 9G31
  20648543.837    -8926690.85649  -6939610.01048  20648543.950    20648551.530
       244.000         213.000
  21873834.570     4205452.80849   3280835.57047  21873834.549    21873842.882
       237.000         200.000
  21186708.982    -3166534.60949  -2451832.19647  21186709.096    21186716.987
       241.000         207.000
  21533692.633    -4173373.93149  -3232555.90547  21533692.515    21533700.980
       237.000         198.000
  21726167.131     4226292.53149   3298413.13447  21726167.277    21726176.332
       233.000         191.000
  23339311.339    -8530702.50149  -6615728.91046  23339310.621    23339322.367
       221.000         165.000
  23706029.150    -3803606.20649  -2924832.48045  23706030.007    23706040.242
       215.000         157.000
  23398599.560    -7382437.47149  -5735679.57245  23398599.347    23398608.974
       215.000         160.000
 99 10  4 15 56  0.0000000  0  8G29G23G21G 3G17G 8G 9G31
  20639488.161    -8974278.64749  -6976691.41048  20639488.270    20639495.539
       244.000         213.000
  21882114.813     4248965.35549   3314741.37847  21882115.027    21882123.319
       237.000         199.000
  21183982.647    -3180861.85249  -2462996.31347  21183982.364    21183990.381
       241.000         207.000
  21533829.641    -4172654.38149  -3231995.27247  21533829.760    21533838.184
       237.000         199.000
  21737258.286     4284576.57449   3343829.15647  21737258.219    21737268.125
       233.000         191.000
  23327570.733    -8592399.86649  -6663804.67746  23327569.670    23327581.829
       219.000         165.000
  23706181.381    -3802806.26449  -2924209.17745  23706179.993    23706193.284
       214.000         157.000
  23387027.752    -7443247.61349  -5783064.15045  23387027.808    23387037.336
       215.000         159.000
 99 10  4 15 56 30.0000000  0  8G29G23G21G 3G17G 8G 9G31
  20630523.299    -9021389.42149  -7013401.10648  20630523.666    20630530.988
       244.000         213.000
  21890395.534     4292480.18049   3348648.96447  21890395.475    21890404.058
       237.000         199.000
  21181272.779    -3195102.54349  -2474092.98347  21181272.450    21181280.475
       241.000         207.000
  21534072.595    -4171378.11249  -3231000.83847  21534072.862    21534081.494
       237.000         199.000
  21748406.150     4343158.39849   3389477.21447  21748406.392    21748415.460
       234.000         191.000
  23315884.579    -8653810.72549  -6711657.20546  23315884.149    23315896.116
       221.000         165.000
  23706432.347    -3801486.82549  -2923181.08545  23706431.369    23706444.518
       214.000         157.000
  23375540.227    -7503615.54749  -5830104.14645  23375539.581    23375549.318
       216.000         159.000
 99 10  4 15 57  0.0000000  0  8G29G23G21G 3G17G 8G 9G31
  20621645.372    -9068043.45149  -7049754.89748  20621645.582    20621652.658
       244.000         213.000
  21898678.527     4336007.55849   3382566.32647  21898678.500    21898687.014
       236.000         199.000
  21178581.853    -3209243.48749  -2485111.92747  21178581.603    21178589.642
       241.000         207.000
  21534418.611    -4169560.05949  -3229584.23447  21534418.762    21534427.373
       237.000         199.000
  21759610.706     4402038.41849   3435357.62647  21759610.415    21759620.364
       233.000         191.000
  23304252.216    -8714938.65849  -6759289.27846  23304251.812    23304263.491
       217.000         164.000
  23706778.567    -3799666.97049  -2921763.07645  23706779.278    23706790.809
       216.000         157.000
  23364137.539    -7563537.74649  -5876796.82745  23364137.574    23364147.418
       217.000         160.000
 99 10  4 15 57 30.0000000  0  8G29G23G21G 3G17G 8G 9G31
  20612854.003    -9114242.70349  -7085754.31948  20612854.288    20612861.311
       245.000         213.000
  21906969.608     4379577.09649   3416516.54147  21906969.171    21906978.066
       236.000         199.000
  21175916.452    -3223250.29149  -2496026.34947  21175916.178    21175924.480
       241.000         207.000
  21534866.345    -4167207.40649  -3227751.05647  21534866.622    21534874.757
       237.000         199.000
  21770875.754     4461236.15149   3481485.61247  21770875.267    21770884.998
       233.000         191.000
  23292677.108    -8775765.39049  -6806686.65846  23292676.196    23292687.553
       218.000         164.000
  23707221.484    -3797339.80149  -2919949.77345  23707220.873    23707233.272
       214.000         157.000
  23352820.384    -7623010.25949  -5923139.10145  23352820.079    23352830.010
       218.000         161.000
 99 10  4 15 58  0.0000000  0  8G29G23G21G 3G17G 8G 9G31
  20604152.565    -9159969.04849  -7121385.23748  20604152.632    20604160.069
       245.000         213.000
  21915275.007     4423221.99449   3450525.47947  21915275.071    21915283.326
       237.000         198.000
  21173282.929    -3237089.75049  -2506810.36747  21173282.621    21173290.906
       241.000         207.000
  21535420.749    -4164294.42349  -3225481.25647  21535421.118    21535429.349
       237.000         199.000
  21782207.251     4520782.94949   3527885.59347  21782207.302    21782217.052
       233.000         191.000
  23281162.766    -8836273.45749  -6853835.72346  23281161.737    23281174.056
       218.000         164.000
  23707762.471    -3794497.54649  -2917735.09545  23707762.418    23707774.432
       215.000         157.000
  23341590.278    -7682025.11349  -5969124.75045  23341590.063    23341599.216
       218.000         162.000
 99 10  4 15 58 30.0000000  0  8G29G23G21G 3G17G 8G 9G31
  20595543.269    -9205211.38249  -7156639.00248  20595543.432    20595550.897
       244.000         213.000
  21923603.011     4466985.52949   3484626.86147  21923602.796    21923611.546
       236.000         198.000
  21170686.533    -3250734.07249  -2517442.33547  21170686.479    21170694.594
       241.000         207.000
  21536085.325    -4160802.53149  -3222760.35347  21536085.188    21536093.854
       237.000         199.000
  21793610.551     4580707.12449   3574579.63247  21793610.268    21793620.269
       232.000         190.000
  23269713.635    -8896438.69649  -6900717.66346  23269712.693    23269725.350
       220.000         165.000
  23708402.697    -3791133.73149  -2915114.02045  23708402.804    23708414.679
       215.000         157.000
  23330453.525    -7740549.44349  -6014728.18245  23330453.043    23330463.077
       219.000         162.000
 99 10  4 15 59  0.0000000  0  8G29G23G21G 3G17G 8G 9G31
  20587030.516    -9249946.08349  -7191497.21248  20587030.765    20587038.073
       244.000         213.000
  21931956.678     4510884.06549   3518833.43547  21931956.273    21931965.128
       236.000         198.000
  21168126.945    -3264185.05949  -2527923.64647  21168126.791    21168134.857
       241.000         207.000
  21536861.177    -4156725.44149  -3219583.45247  21536861.291    21536869.816
       237.000         199.000
  21805087.603     4641019.10849   3621575.87147  21805087.132    21805097.406
       233.000         190.000
  23258331.274    -8956253.56249  -6947326.57246  23258331.102    23258342.624
       222.000         167.000
  23709148.176    -3787216.64649  -2912061.84245  23709147.938    23709159.675
       213.000         157.000
  23319414.963    -7798557.47749  -6059929.30445  23319415.375    23319424.223
       219.000         162.000
 99 10  4 15 59 30.0000000  0  8G29G23G21G 3G17G 8G 9G31
  20578615.291    -9294168.47549  -7225956.21448  20578615.681    20578622.947
       244.000         213.000
  21940334.565     4554909.97449   3553139.26547  21940334.483    21940343.108
       236.000         197.000
  21165599.010    -3277469.35649  -2538275.06947  21165598.851    21165606.923
       241.000         207.000
  21537751.016    -4152049.60049  -3215939.98847  21537751.285    21537759.462
       238.000         199.000
  21816638.698     4701720.02949   3668875.15847  21816638.256    21816648.549
       233.000         189.000
  23247015.846    -9015716.69749  -6993661.41746  23247015.016    23247026.829
       221.000         168.000
  23710002.150    -3782728.90849  -2908564.98545  23710001.238    23710013.706
       213.000         157.000
  23308474.408    -7856050.49449  -6104729.12045  23308474.119    23308483.494
       218.000         162.000
 99 10  4 16  0  0.0000000  0  8G29G23G21G 3G17G 8G 9G31
  20570294.894    -9337892.56749  -7260026.93148  20570295.061    20570302.355
       245.000         214.000
  21948731.844     4599037.74549   3587524.47047  21948731.459    21948740.334
       236.000         197.000
  21163096.431    -3290620.66849  -2548522.86447  21163096.183    21163104.418
       241.000         207.000
  21538753.869    -4146780.14949  -3211833.96647  21538753.881    21538762.243
       238.000         199.000
  21828258.686     4762782.95249   3716456.53847  21828258.061    21828268.006
       232.000         189.000
  23235764.802    -9074841.23549  -7039732.42546  23235764.285    23235775.652
       220.000         168.000
  23710962.005    -3777684.90149  -2904634.67645  23710961.503    23710973.219
       214.000         157.000
  23297631.822    -7913028.66949  -6149127.74445  23297631.405    23297641.559
       219.000         161.000
 99 10  4 16  0 30.0000000  0  8G29G23G21G 3G17G 8G 9G31
  20562064.901    -9381141.64149  -7293727.50648  20562064.979    20562072.310
       245.000         214.000
  21957143.015     4643238.39549   3621966.45747  21957143.306    21957151.933
       236.000         197.000
  21160615.365    -3303659.06649  -2558682.67947  21160615.191    21160623.339
       242.000         207.000
  21539864.469    -4140944.11649  -3207286.46147  21539864.672    21539872.717
       237.000         199.000
  21839944.418     4824191.52949   3764307.24747  21839944.751    21839954.367
       233.000         189.000
  23224576.758    -9133634.48649  -7085545.28546  23224576.600    23224587.465
       220.000         167.000
  23712025.788    -3772094.78849  -2900278.81345  23712025.766    23712038.392
       217.000         157.000
  23286884.168    -7969508.45349  -6193138.03045  23286884.176    23286892.944
       218.000         161.000
 99 10  4 16  1  0.0000000  0  8G29G23G21G 3G17G 8G 9G31
  20553924.514    -9423919.88149  -7327061.19248  20553924.714    20553931.969
       244.000         214.000
  21965562.302     4687481.63849   3656441.64147  21965561.928    21965570.887
       236.000         197.000
  21158153.676    -3316595.52049  -2568763.05047  21158153.475    21158161.886
       241.000         207.000
  21541081.197    -4134550.26849  -3202304.28647  21541081.350    21541089.696
       238.000         199.000
  21851696.911     4885950.51849   3812431.01747  21851696.915    21851706.862
       233.000         189.000
  23213449.676    -9192107.07549  -7131108.27246  23213449.114    23213460.084
       219.000         167.000
  23713193.152    -3765961.45049  -2895499.66745  23713193.608    23713204.890
       215.000         158.000
  23276225.027    -8025523.25849  -6236785.96845  23276225.444    23276234.839
       217.000         161.000
 99 10  4 16  1 30.0000000  0  8G29G23G21G 3G17G 8G 9G31
  20545871.807    -9466236.79649  -7360035.40748  20545871.749    20545879.100
       244.000         213.000
  21973988.289     4731760.11149   3690944.27847  21973988.374    21973997.511
       235.000         196.000
  21155713.281    -3329420.07449  -2578756.22647  21155713.165    21155721.252
       241.000         208.000
  21542404.619    -4127595.95649  -3196885.38847  21542404.394    21542412.846
       237.000         199.000
  21863515.881     4948059.09749   3860827.19747  21863515.903    21863525.303
       233.000         189.000
  23202384.982    -9250252.36749  -7176416.22946  23202384.284    23202395.498
       220.000         168.000
  23714459.730    -3759306.55349  -2890314.08845  23714459.841    23714471.644
       214.000         158.000
  23265651.240    -8081089.38749  -6280084.28845  23265650.625    23265661.239
       218.000         161.000
 99 10  4 16  2  0.0000000  0  8G29G23G21G 3G17G 8G 9G31
  20537909.715    -9508078.02049  -7392638.94948  20537909.921    20537917.063
       243.000         214.000
  21982422.135     4776080.07949   3725479.24947  21982421.896    21982430.927
       235.000         196.000
  21153298.388    -3342110.46449  -2588644.85347  21153298.156    21153306.450
       241.000         208.000
  21543833.917    -4120084.98349  -3191032.72347  21543834.134    21543842.644
       237.000         198.000
  21875401.818     5010519.47049   3909497.49647  21875402.074    21875411.442
       232.000         189.000
  23191383.327    -9308066.00149  -7221465.74946  23191382.950    23191394.288
       221.000         168.000
  23715824.352    -3752135.08849  -2884725.99445  23715824.436    23715836.702
       216.000         157.000
  23255164.277    -8136198.54049  -6323026.53045  23255163.645    23255173.221
       218.000         162.000
 99 10  4 16  2 30.0000000  0  8G29G23G21G 3G17G 8G 9G31
  20530041.341    -9549426.54849  -7424858.57248  20530041.658    20530048.857
       243.000         214.000
  21990865.411     4820449.73649   3760052.94047  21990865.161    21990873.941
       235.000         196.000
  21150913.797    -3354641.80549  -2598409.54947  21150913.697    21150921.576
       242.000         208.000
  21545372.838    -4111998.10849  -3184731.30647  21545372.789    21545381.400
       237.000         198.000
  21887358.836     5073353.34949   3958458.83747  21887358.667    21887368.881
       232.000         189.000
  23180446.796    -9365538.37649  -7266249.36046  23180446.701    23180458.096
       222.000         169.000
  23717291.248    -3744426.49449  -2878719.33645  23717291.321    23717302.957
       215.000         157.000
  23244765.423    -8190845.24749  -6365608.42546  23244765.014    23244774.475
       218.000         163.000
 99 10  4 16  3  0.0000000  0  8G29G23G21G 3G17G 8G 9G31
  20522268.309    -9590274.16149  -7456687.87048  20522268.369    20522275.586
       242.000         214.000
  21999319.581     4864876.69649   3794671.29047  21999319.488    21999328.395
       234.000         196.000
  21148561.396    -3367003.99949  -2608042.43947  21148561.166    21148569.257
       242.000         208.000
  21547024.493    -4103318.69749  -3177968.17247  21547024.585    21547033.426
       236.000         198.000
  21899385.863     5136555.42249   4007707.07547  21899385.651    21899395.411
       231.000         189.000
  23169575.344    -9422668.40249  -7310766.18946  23169574.547    23169585.790
       220.000         169.000
  23718863.383    -3736165.41949  -2872282.15145  23718863.732    23718874.867
       214.000         157.000
  23234457.393    -8245014.23249  -6407818.05546  23234457.250    23234466.823
       220.000         164.000
 99 10  4 16  3 30.0000000  0  8G29G23G21G 3G17G 8G 9G31
  20514591.633    -9630615.17449  -7488122.41748  20514591.764    20514599.062
       243.000         214.000
  22007786.570     4909370.91649   3829342.04647  22007786.466    22007795.386
       235.000         195.000
  21146242.854    -3379188.12349  -2617536.57547  21146242.691    21146250.672
       241.000         208.000
  21548789.884    -4094041.65849  -3170739.35047  21548789.913    21548798.425
       238.000         198.000
  21911479.651     5200108.11449   4057228.52647  21911479.728    21911489.439
       232.000         188.000
  23158768.066    -9479460.38949  -7355019.61346  23158767.629    23158778.378
       219.000         168.000
  23720539.799    -3727356.13049  -2865417.77645  23720540.442    23720552.368
       216.000         158.000
  23224246.631    -8298672.83649  -6449629.97646  23224246.499    23224255.229
       220.000         164.000
 99 10  4 16  4  0.0000000  0  8G29G23G21G 3G17G 8G 9G31
  20507011.962    -9670446.59249  -7519159.88148  20507012.321    20507019.509
       243.000         214.000
  22016265.767     4953929.09149   3864062.64047  22016265.856    22016274.775
       235.000         195.000
  21143956.133    -3391204.77449  -2626900.21747  21143955.964    21143963.867
       241.000         207.000
  21550667.810    -4084173.45549  -3163049.88947  21550667.843    21550676.383
       237.000         198.000
  21923641.058     5264016.39949   4107027.05747  21923641.109    21923650.937
       231.000         188.000
  23148025.652    -9535911.60949  -7399007.49246  23148026.035    23148036.253
       219.000         168.000
  23722322.592    -3717987.66949  -2858117.66545  23722322.258    23722334.460
       216.000         158.000
  23214135.279    -8351808.81049  -6491034.64446  23214134.919    23214144.301
       219.000         164.000
 99 10  4 16  4 30.0000000  0  8G29G23G21G 3G17G 8G 9G31
  20499525.539    -9709788.07149  -7549815.56648  20499525.784    20499532.956
       243.000         214.000
  22024758.230     4998556.65049   3898837.30647  22024757.987    22024766.591
       235.000         195.000
  21141698.762    -3403067.36749  -2636143.80447  21141698.647    21141706.672
       241.000         207.000
  21552656.621    -4073722.23249  -3154906.12247  21552656.996    21552665.108
       238.000         199.000
  21935869.660     5328277.64149   4157100.63846  21935869.434    21935879.612
       230.000         187.000
  23137349.378    -9592014.87849  -7442724.24146  23137348.447    23137360.531
       219.000         168.000
  23724211.533    -3708061.15049  -2850382.67745  23724211.220    23724223.463
       212.000         157.000
  23204122.284    -8404427.32849  -6532036.11046  23204122.091    23204132.388
       217.000         164.000
 99 10  4 16  5  0.0000000  0  8G29G23G21G 3G17G 8G 9G31
  20492130.140    -9748651.21549  -7580098.52648  20492130.353    20492137.566
       243.000         214.000
  22033264.231     5043255.46349   3933667.48947  22033264.179    22033273.060
       235.000         195.000
  21139468.193    -3414789.29049  -2645277.78447  21139468.011    21139476.382
       242.000         208.000
  21554752.664    -4062708.07449  -3146323.70847  21554752.425    21554761.057
       237.000         198.000
  21948162.205     5392875.05649   4207436.15646  21948162.393    21948172.393
       230.000         187.000
  23126740.605    -9647764.20749  -7486165.19546  23126739.391    23126751.215
       220.000         168.000
  23726205.213    -3697583.02849  -2842217.87245  23726204.600    23726217.684
       212.000         156.000
  23194208.611    -8456524.24249  -6572631.11746  23194207.834    23194218.570
       218.000         163.000
 99 10  4 16  5 30.0000000  0  8G29G23G21G 3G17G 8G 9G31
  20484823.280    -9787048.98049  -7610018.84648  20484823.602    20484830.756
       243.000         214.000
  22041783.807     5088025.94749   3968553.52347  22041784.100    22041793.059
       235.000         195.000
  21137260.438    -3426391.48349  -2654318.46547  21137260.279    21137268.289
       242.000         208.000
  21556955.107    -4051134.41749  -3137305.31847  21556955.091    21556963.561
       238.000         198.000
  21960517.365     5457801.22349   4258027.85446  21960517.530    21960527.811
       231.000         187.000
  23116199.514    -9703157.90449  -7529329.03146  23116199.288    23116210.440
       220.000         168.000
  23728301.595    -3686567.03149  -2833633.94445  23728301.948    23728312.904
       214.000         155.000
  23184394.472    -8508097.67149  -6612818.21046  23184393.378    23184403.656
       219.000         163.000
 99 10  4 16  6  0.0000000  0  8G29G23G21G 3G17G 8G 9G31
  20477600.957    -9825002.76549  -7639593.21548  20477601.242    20477608.176
       243.000         214.000
  22050315.217     5132858.38449   4003487.83247  22050315.444    22050324.007
       235.000         195.000
  21135073.282    -3437885.08749  -2663274.53347  21135073.173    21135081.127
       242.000         208.000
  21559261.413    -4039014.93349  -3127861.61347  21559261.454    21559270.028
       237.000         198.000
  21972933.850     5523049.57949   4308870.60446  21972934.184    21972944.301
       231.000         187.000
  23105726.694    -9758192.82949  -7572213.31046  23105726.608    23105737.821
       221.000         169.000
  23730500.074    -3675012.72049  -2824630.54145  23730501.076    23730511.839
       218.000         155.000
  23174674.299    -8559177.45749  -6652620.65646  23174674.437    23174683.306
       219.000         164.000
 99 10  4 16  6 30.0000000  0  8G29G23G21G 3G17G 8G 9G31
  20470463.094    -9862512.43849  -7668821.51848  20470463.273    20470470.546
       243.000         214.000
  22058857.353     5177746.97449   4038465.89747  22058857.461    22058865.824
       235.000         195.000
  21132909.362    -3449256.60349  -2672135.46547  21132909.151    21132917.219
       241.000         208.000
  21561671.382    -4026350.66849  -3117993.40347  21561671.635    21561679.976
       237.000         198.000
  21985410.272     5588613.27749   4359959.07446  21985410.197    21985420.612
       230.000         186.000
  23095322.301    -9812868.32449  -7614817.50446  23095321.562    23095333.515
       221.000         170.000
  23732801.509    -3662919.88349  -2815207.49245  23732801.443    23732812.575
       213.000         155.000
  23165045.920    -8609775.25149  -6692047.51646  23165045.373    23165055.748
       219.000         164.000
 99 10  4 16  7  0.0000000  0  8G29G23G21G 3G17G 8G 9G31
  20463412.982    -9899561.02749  -7697690.53848  20463412.904    20463420.366
       243.000         214.000
  22067407.203     5222676.46149   4073475.83947  22067407.062    22067415.682
       235.000         195.000
  21130770.305    -3460497.38149  -2680894.52247  21130770.012    21130778.497
       241.000         208.000
  21564185.942    -4013136.77049  -3107696.90647  21564185.785    21564194.160
       237.000         197.000
  21997949.395     5654506.23249   4411304.10746  21997949.197    21997959.197
       230.000         186.000
  23084986.466    -9867183.21149  -7657140.71546  23084985.677    23084996.656
       219.000         169.000
  23735204.940    -3650288.76949  -2805365.00745  23735204.820    23735216.183
       214.000         155.000
  23155510.028    -8659886.88349  -6731095.56146  23155509.904    23155519.668
       219.000         164.000
 99 10  4 16  7 30.0000000  0  8G29G23G21G 3G17G 8G 9G31
  20456454.393    -9936128.46949  -7726184.64048  20456454.661    20456462.044
       243.000         215.000
  22075963.436     5267639.75549   4108512.12147  22075963.139    22075972.145
       235.000         194.000
  21128655.132    -3471612.54549  -2689555.70447  21128654.887    21128663.139
       241.000         208.000
  21566806.535    -3999365.40149  -3096966.01447  21566806.900    21566815.190
       237.000         197.000
  22010555.419     5720750.93149   4462923.22246  22010555.679    22010564.946
       230.000         185.000
  23074719.273    -9921137.00549  -7699182.55446  23074718.535    23074729.945
       220.000         169.000
  23737708.052    -3637134.47849  -2795114.87245  23737707.997    23737720.507
       214.000         155.000
  23146065.446    -8709518.90349  -6769769.87946  23146066.172    23146074.262
       221.000         165.000
 99 10  4 16  8  0.0000000  0  8G29G23G21G 3G17G 8G 9G31
  20449594.213    -9972178.98149  -7754275.94048  20449594.480    20449601.529
       243.000         215.000
  22084525.520     5312633.61249   4143572.22047  22084525.241    22084534.470
       235.000         194.000
  21126565.614    -3482593.37549  -2698112.20347  21126565.543    21126573.595
       242.000         208.000
  21569530.761    -3985049.78249  -3085811.02847  21569530.665    21569539.467
       237.000         197.000
  22023232.659     5787369.91449   4514833.99646  22023232.973    22023242.949
       230.000         185.000
  23064524.947    -9974707.79749  -7740925.96046  23064523.912    23064535.873
       221.000         168.000
  23740310.535    -3623459.35649  -2784458.89945  23740311.155    23740322.509
       212.000         155.000
  23136711.482    -8758674.56149  -6808072.99646  23136710.968    23136720.567
       221.000         166.000
 99 10  4 16  8 30.0000000  0  8G29G23G21G 3G17G 8G 9G31
  20442838.477   -10007680.90849  -7781939.77248  20442838.567    20442845.741
       243.000         215.000
  22093095.579     5357669.31849   4178664.92747  22093095.138    22093104.602
       234.000         195.000
  21124502.457    -3493435.42249  -2706560.55947  21124502.251    21124510.521
       241.000         208.000
  21572360.920    -3970177.39349  -3074222.20247  21572361.095    21572369.747
       237.000         198.000
  22035984.778     5854382.03449   4567051.10146  22035984.855    22035995.276
       230.000         185.000
  23054406.545   -10027880.12349  -7782358.88346  23054405.947    23054417.791
       221.000         169.000
  23743011.188    -3609267.26449  -2773400.10345  23743010.636    23743022.967
       212.000         155.000
  23127453.372    -8807326.71849  -6845983.78646  23127452.718    23127463.107
       221.000         166.000
 99 10  4 16  9  0.0000000  0  8G29G23G21G 3G17G 8G 9G31
  20436187.909   -10042629.90849  -7809172.74848  20436188.151    20436195.174
       243.000         215.000
  22101676.756     5402763.35949   4213803.10747  22101676.398    22101685.184
       234.000         194.000
  21122463.252    -3504151.68949  -2714910.89847  21122462.973    21122471.192
       241.000         208.000
  21575297.438    -3954746.17149  -3062197.91947  21575297.143    21575305.970
       237.000         198.000
  22048811.486     5921786.18249   4619573.69146  22048811.056    22048821.689
       230.000         185.000
  23044365.373   -10080646.70949  -7823475.65046  23044365.448    23044376.788
       222.000         169.000
  23745809.751    -3594560.81949  -2761940.50645  23745809.678    23745822.133
       214.000         156.000
  23118294.433    -8855457.28749  -6883488.15546  23118294.148    23118304.002
       221.000         166.000
 99 10  4 16  9 30.0000000  0  8G29G23G21G 3G17G 8G 9G31
  20429640.108   -10077038.89649  -7835984.93748  20429640.324    20429647.508
       243.000         215.000
  22110270.569     5447924.05449   4248993.21347  22110270.578    22110279.287
       235.000         194.000
  21120448.100    -3514741.39249  -2723162.61547  21120447.498    21120455.829
       241.000         208.000
  21578340.744    -3938753.61649  -3049736.24347  21578341.205    21578349.222
       237.000         198.000
  22061707.625     5989555.24649   4672380.62646  22061707.348    22061717.400
       229.000         184.000
  23034402.347   -10133002.92249  -7864272.66546  23034402.355    23034413.396
       223.000         170.000
  23748707.946    -3579331.11849  -2750073.19845  23748708.281    23748719.615
       214.000         157.000
  23109236.087    -8903058.94149  -6920580.37046  23109235.409    23109246.141
       220.000         166.000
 99 10  4 16 10  0.0000000  0  8G29G23G21G 3G17G 8G 9G31
  20423190.954   -10110929.51049  -7862393.19748  20423190.949    20423198.211
       243.000         215.000
  22118880.491     5493169.29049   4284249.20247  22118880.498    22118889.381
       234.000         194.000
  21118459.795    -3525190.01049  -2731304.38747  21118459.575    21118467.668
       241.000         207.000
  21581489.277    -3922208.26949  -3036843.81447  21581489.566    21581497.959
       237.000         198.000
  22074669.219     6057668.22549   4725455.55246  22074669.504    22074679.062
       230.000         184.000
  23024517.332   -10184949.25749  -7904750.30546  23024517.868    23024528.527
       223.000         170.000
  23751710.115    -3563554.03049  -2737779.34145  23751709.684    23751721.952
       212.000         157.000
  23100278.602    -8950130.78349  -6957259.74946  23100278.120    23100288.119
       221.000         167.000
 99 10  4 16 10 30.0000000  0  8G29G23G21G 3G17G 8G 9G31
  20416836.748   -10144320.91249  -7888412.45748  20416836.818    20416844.080
       243.000         215.000
  22127510.984     5538522.77549   4319589.54747  22127510.773    22127519.986
       234.000         194.000
  21116502.199    -3535477.11249  -2739320.29947  21116501.930    21116509.978
       241.000         207.000
  21584746.908    -3905089.60049  -3023504.64347  21584746.931    21584755.643
       237.000         197.000
  22087694.845     6126117.62949   4778792.62646  22087694.737    22087704.786
       230.000         184.000
  23014709.084   -10236492.28849  -7944913.68946  23014709.708    23014720.022
       224.000         171.000
  23754824.129    -3547190.04749  -2725028.17645  23754824.018    23754836.024
       215.000         156.000
  23091427.432    -8996644.42149  -6993504.15946  23091427.527    23091437.301
       222.000         168.000
 99 10  4 16 11  0.0000000  0  8G29G23G21G 3G17G 8G 9G31
  20410572.328   -10177240.70149  -7914064.22348  20410572.505    20410579.780
       243.000         215.000
  22136160.183     5583974.39849   4355006.36147  22136160.085    22136169.014
       234.000         193.000
  21114574.607    -3545606.64549  -2747213.43947  21114574.504    21114582.525
       242.000         207.000
  21588109.966    -3887416.69949  -3009733.60447  21588110.032    21588118.896
       236.000         197.000
  22100780.476     6194882.23849   4832375.32046  22100779.988    22100790.385
       230.000         184.000
  23004974.590   -10287647.60449  -7984774.95046  23004974.128    23004985.514
       224.000         171.000
  23758048.815    -3530243.42649  -2711823.02445  23758048.915    23758060.524
       214.000         156.000
  23082679.772    -9042614.25949  -7029324.82846  23082679.733    23082689.164
       221.000         168.000
 99 10  4 16 11 30.0000000  0  8G29G23G21G 3G17G 8G 9G31
  20404398.489   -10209684.43649  -7939345.04048  20404398.789    20404405.955
       243.000         215.000
  22144826.698     5629516.95749   4390494.03347  22144826.695    22144835.774
       233.000         193.000
  21112678.131    -3555573.00549  -2754979.43147  21112677.957    21112686.229
       241.000         207.000
  21591579.184    -3869186.10849  -2995528.00447  21591579.531    21591588.045
       237.000         198.000
  22113927.669     6263970.76849   4886210.41846  22113927.447    22113938.292
       230.000         184.000
  22995313.495   -10338417.36649  -8024335.78846  22995312.746    22995324.650
       222.000         171.000
  23761385.424    -3512709.63849  -2698160.33145  23761385.425    23761397.395
       214.000         156.000
  23074033.161    -9088052.83349  -7064731.53246  23074033.089    23074042.673
       221.000         168.000
 99 10  4 16 12  0.0000000  0  8G29G23G21G 3G17G 8G 9G31
  20398318.155   -10241636.77049  -7964242.94348  20398318.278    20398325.452
       243.000         215.000
  22153509.256     5675144.03149   4426047.56547  22153509.225    22153517.712
       234.000         193.000
  21110813.564    -3565371.37949  -2762614.52447  21110813.368    21110821.243
       241.000         207.000
  21595155.139    -3850394.54749  -2980885.28347  21595155.335    21595163.911
       237.000         198.000
  22127140.940     6333406.34949   4940315.95346  22127140.919    22127151.295
       230.000         184.000
  22985724.955   -10388805.56149  -8063599.32646  22985725.174    22985735.297
       221.000         171.000
  23764832.935    -3494593.51749  -2684043.87745  23764833.518    23764844.454
       215.000         157.000
  23065486.825    -9132964.59649  -7099727.71646  23065486.996    23065496.325
       220.000         168.000
 99 10  4 16 12 30.0000000  0  8G29G23G21G 3G17G 8G 9G31
  20392332.342   -10273092.30749  -7988753.73448  20392332.292    20392339.627
       243.000         215.000
  22162203.377     5720831.67749   4461648.29047  22162203.476    22162212.202
       233.000         193.000
  21108981.014    -3575001.44749  -2770118.47347  21108980.827    21108988.891
       241.000         208.000
  21598840.347    -3831028.93249  -2965795.24947  21598840.324    21598849.143
       237.000         198.000
  22140422.277     6403199.59449   4994700.17946  22140421.845    22140432.236
       229.000         184.000
  22976210.239   -10438805.70449  -8102560.45746  22976209.521    22976220.911
       222.000         170.000
  23768387.612    -3475914.16749  -2669488.53945  23768387.588    23768398.757
       216.000         157.000
  23057042.197    -9177340.74949  -7134306.55246  23057041.362    23057051.258
       220.000         168.000
 99 10  4 16 13  0.0000000  0  8G29G23G21G 3G17G 8G 9G31
  20386442.124   -10304045.56849  -8012873.13548  20386442.210    20386449.369
       243.000         215.000
  22170905.330     5766560.20249   4497280.87747  22170905.012    22170914.214
       233.000         193.000
  21107179.081    -3584470.96549  -2777497.31947  21107178.714    21107186.951
       242.000         208.000
  21602636.743    -3811078.99349  -2950249.89447  21602636.866    21602645.366
       237.000         198.000
  22153774.662     6473366.23649   5049375.35846  22153775.141    22153784.951
       229.000         183.000
  22966771.653   -10488405.35449  -8141209.52846  22966771.365    22966781.655
       221.000         170.000
  23772043.926    -3456700.01849  -2654516.47845  23772043.886    23772054.958
       212.000         156.000
  23048694.588    -9221207.14149  -7168488.15246  23048693.791    23048703.694
       221.000         168.000
 99 10  4 16 13 30.0000000  0  8G29G23G21G 3G17G 8G 9G31
  20380646.393   -10334502.51849  -8036605.80148  20380646.592    20380653.696
       243.000         215.000
  22179612.458     5812316.30949   4532934.94947  22179612.424    22179621.206
       233.000         193.000
  21105403.965    -3593799.52749  -2784766.33047  21105403.583    21105411.617
       241.000         208.000
  21606544.562    -3790543.86549  -2934248.54947  21606544.630    21606553.089
       237.000         197.000
  22167197.471     6543903.07049   5104339.00746  22167197.179    22167207.959
       230.000         183.000
  22957408.795   -10537607.30049  -8179548.67946  22957407.917    22957419.565
       222.000         170.000
  23775802.346    -3436948.34849  -2639125.54745  23775802.444    23775813.509
       214.000         155.000
  23040444.386    -9264562.17949  -7202271.29646  23040443.983    23040453.845
       222.000         169.000
 99 10  4 16 14  0.0000000  0  8G29G23G21G 3G17G 8G 9G31
  20374941.027   -10364484.45849  -8059968.33548  20374941.032    20374948.391
       243.000         215.000
  22188322.291     5858086.36749   4568599.88347  22188322.294    22188331.171
       233.000         193.000
  21103650.659    -3603013.22749  -2791945.84147  21103650.367    21103658.507
       242.000         208.000
  21610560.175    -3769442.05149  -2917805.63047  21610560.200    21610568.883
       238.000         197.000
  22180687.885     6614795.16949   5159579.47246  22180687.599    22180698.111
       229.000         182.000
  22948121.432   -10586412.52549  -8217578.72746  22948121.156    22948132.349
       223.000         171.000
  23779660.737    -3416671.62049  -2623325.51445  23779660.743    23779672.339
       214.000         155.000
  23032292.204    -9307402.69649  -7235653.52446  23032292.326    23032301.666
       222.000         169.000
 99 10  4 16 14 30.0000000  0  8G29G23G21G 3G17G 8G 9G31
  20369323.048   -10394007.14649  -8082973.00348  20369323.161    20369330.169
       243.000         215.000
  22197034.203     5903867.77049   4604273.65747  22197034.293    22197043.102
       234.000         192.000
  21101914.181    -3612138.61349  -2799056.53747  21101913.969    21101922.124
       241.000         208.000
  21614678.131    -3747802.16649  -2900943.43347  21614678.030    21614686.770
       237.000         197.000
  22194241.178     6686017.89649   5215077.57446  22194241.217    22194251.366
       228.000         182.000
  22938909.268   -10634823.38249  -8255301.44246  22938909.224    22938919.762
       224.000         172.000
  23783616.341    -3395884.67949  -2607127.90745  23783617.554    23783628.227
       214.000         154.000
  23024235.590    -9349740.76449  -7268644.21046  23024235.404    23024244.785
       221.000         170.000
 99 10  4 16 15  0.0000000  0  8G29G23G21G 3G17G 8G 9G31
  20363794.244   -10423060.96849  -8105612.32548  20363794.239    20363801.421
       243.000         215.000
  22205750.616     5949672.56549   4639965.66447  22205750.549    22205759.011
       234.000         192.000
  21100191.560    -3621190.90849  -2806110.28247  21100191.212    21100199.232
       242.000         208.000
  21618894.714    -3725644.05049  -2883677.42247  21618894.970    21618903.640
       237.000         197.000
  22207856.285     6757565.19249   5270828.58746  22207856.261    22207867.272
       229.000         182.000
  22929771.029   -10682845.55249  -8292721.27946  22929770.650    22929781.535
       224.000         173.000
  23787671.606    -3374574.75849  -2590522.76745  23787671.078    23787682.643
       213.000         155.000
  23016273.209    -9391583.23149  -7301248.74746  23016273.216    23016282.535
       222.000         170.000
 99 10  4 16 15 30.0000000  0  8G29G23G21G 3G17G 8G 9G31
  20358358.192   -10451627.54149  -8127871.97048  20358358.462    20358365.447
       243.000         215.000
  22214475.277     5995520.59749   4675691.36047  22214475.259    22214484.401
       233.000         192.000
  21098484.690    -3630160.68649  -2813099.73447  21098484.283    21098492.824
       241.000         208.000
  21623208.062    -3702977.61849  -2866015.31647  21623208.085    21623216.823
       237.000         197.000
  22221530.974     6829425.21049   5326823.28746  22221530.634    22221541.708
       229.000         182.000
  22920706.232   -10730481.42749  -8329840.08646  22920705.586    22920716.981
       222.000         172.000
  23791828.260    -3352731.88749  -2573502.34545  23791827.551    23791840.424
       213.000         154.000
  23008408.157    -9432914.65949  -7333455.05046  23008407.711    23008417.511
       222.000         170.000
 99 10  4 16 16  0.0000000  0  8G29G23G21G 3G17G 8G 9G31
  20353019.089   -10479684.68149  -8149734.66048  20353019.128    20353026.370
       243.000         215.000
  22223211.943     6041431.92249   4711466.37247  22223211.871    22223221.146
       233.000         192.000
  21096799.769    -3639015.03149  -2819999.23747  21096799.959    21096807.828
       243.000         208.000
  21627620.083    -3679792.56149  -2847949.08447  21627620.430    21627629.020
       237.000         197.000
  22235268.615     6901616.43849   5383076.07146  22235267.724    22235278.874
       228.000         182.000
  22911717.293   -10777718.05449  -8366647.79146  22911716.189    22911727.492
       223.000         171.000
  23796086.488    -3330354.68949  -2556065.57145  23796086.312    23796097.865
       213.000         154.000
  23000639.800    -9473737.82349  -7365265.30246  23000639.429    23000649.170
       221.000         170.000
 99 10  4 16 16 30.0000000  0  8G29G23G21G 3G17G 8G 9G31
  20347782.959   -10507200.83549  -8171175.80448  20347783.133    20347790.227
       243.000         215.000
  22231965.930     6087433.91849   4747312.03647  22231965.660    22231974.553
       233.000         192.000
  21095146.664    -3647702.46149  -2826768.67947  21095146.424    21095154.654
       243.000         208.000
  21632136.140    -3656061.03749  -2829457.03647  21632136.384    21632144.464
       237.000         197.000
  22249073.519     6974161.45049   5439604.53446  22249073.557    22249083.911
       228.000         182.000
  22902808.090   -10824535.70949  -8403129.02246  22902807.197    22902819.263
       222.000         171.000
  23800450.878    -3307419.41749  -2538193.95145  23800450.241    23800462.563
       210.000         154.000
  22992973.001    -9514027.11149  -7396659.55846  22992972.686    22992982.612
       222.000         170.000
 99 10  4 16 17  0.0000000  0  8G29G23G21G 3G17G 8G 9G31
  20342651.276   -10534168.10449  -8192189.24648  20342651.256    20342658.418
       243.000         215.000
  22240738.907     6133536.11549   4783235.77347  22240738.547    22240748.054
       233.000         192.000
  21093528.321    -3656206.93849  -2833395.55647  21093527.934    21093536.166
       243.000         208.000
  21636761.752    -3631753.67949  -2810516.28747  21636761.941    21636770.563
       238.000         197.000
  22262948.563     7047074.77649   5496419.99146  22262948.461    22262959.803
       228.000         181.000
  22893981.816   -10870917.99049  -8439270.98646  22893980.257    22893992.874
       222.000         171.000
  23804922.630    -3283919.46649  -2519882.30645  23804923.025    23804935.225
       211.000         154.000
  22985412.380    -9553758.19349  -7427618.84246  22985411.920    22985422.165
       222.000         170.000
 99 10  4 16 17 30.0000000  0  8G29G23G21G 3G17G 8G 9G31
  20337621.240   -10560601.04349  -8212786.33048  20337621.368    20337628.382
       244.000         216.000
  22249529.871     6179732.59249   4819232.97147  22249529.811    22249538.586
       233.000         192.000
  21091944.442    -3664530.31749  -2839881.31847  21091944.221    21091952.303
       243.000         208.000
  21641497.865    -3606865.37449  -2791122.85747  21641497.973    21641506.496
       237.000         197.000
  22276893.642     7120356.29949   5553522.35746  22276893.458    22276903.849
       227.000         180.000
  22885241.574   -10916847.56149  -8475060.18446  22885240.498    22885251.294
       223.000         171.000
  23809502.374    -3259852.41049  -2501128.78945  23809502.654    23809514.384
       212.000         153.000
  22977959.525    -9592923.41349  -7458137.19746  22977958.930    22977967.773
       224.000         170.000
 99 10  4 16 18  0.0000000  0  8G29G23G21G 3G17G 8G 9G31
  20332686.805   -10586531.68249  -8232992.01448  20332686.934    20332694.042
       243.000         216.000
  22258333.809     6225997.53449   4855283.51447  22258333.756    22258342.627
       233.000         191.000
  21090392.071    -3672688.26649  -2846238.17847  21090391.866    21090399.861
       243.000         208.000
  21646339.161    -3581424.44949  -2771298.81547  21646339.081    21646347.767
       236.000         197.000
  22290908.220     7194002.84049   5610909.13846  22290908.185    22290918.762
       227.000         179.000
  22876588.695   -10962318.30749  -8510491.85846  22876588.158    22876598.735
       223.000         171.000
  23814189.557    -3235221.27149  -2481935.72545  23814189.310    23814201.380
       212.000         154.000
  22970615.060    -9631519.20449  -7488211.83446  22970614.704    22970625.348
       224.000         171.000
 99 10  4 16 18 30.0000000  0  8G29G23G21G 3G17G 8G 9G31
  20327841.668   -10611993.00549  -8252831.99248  20327841.778    20327848.998
       243.000         216.000
  22267146.680     6272309.04849   4891370.34947  22267146.545    22267155.368
       233.000         191.000
  21088865.401    -3680711.21049  -2852489.83447  21088865.262    21088873.157
       243.000         208.000
  21651280.482    -3555457.80649  -2751065.12047  21651280.261    21651289.057
       236.000         197.000
  22304987.175     7267988.02849   5668559.80546  22304987.399    22304997.774
       227.000         179.000
  22868021.719   -11007338.01449  -8545572.07646  22868021.438    22868032.087
       221.000         171.000
  23818981.362    -3210040.40549  -2462314.29445  23818981.642    23818993.007
       212.000         154.000
  22963379.496    -9669543.00549  -7517840.78146  22963378.884    22963388.456
       222.000         171.000
 99 10  4 16 19  0.0000000  0  8G29G23G21G 3G17G 8G 9G31
  20323081.312   -10637009.06649  -8272325.01748  20323081.254    20323088.539
       243.000         216.000
  22275963.401     6318640.92449   4927473.04547  22275963.262    22275972.049
       233.000         191.000
  21087356.186    -3688642.31249  -2858669.92847  21087355.867    21087363.964
       243.000         208.000
  21656317.799    -3528986.59049  -2730438.25447  21656318.003    21656326.548
       237.000         196.000
  22319127.539     7342295.84849   5726461.88146  22319127.440    22319138.583
       227.000         179.000
  22859537.794   -11051920.89649  -8580311.89746  22859537.372    22859548.129
       221.000         172.000
  23823875.171    -3184324.13749  -2442275.67845  23823875.005    23823886.633
       211.000         154.000
  22956247.145    -9707023.63049  -7547046.47046  22956246.281    22956256.011
       223.000         170.000
 99 10  4 16 19 30.0000000  0  8G29G23G21G 3G17G 8G 9G31
  20318402.599   -10661595.66049  -8291483.39448  20318402.722    20318409.688
       243.000         216.000
  22284780.309     6364973.67349   4963576.42347  22284779.588    22284788.825
       233.000         191.000
  21085863.519    -3696486.44049  -2864782.24647  21085863.261    21085871.187
       243.000         208.000
  21661446.041    -3502038.00349  -2709439.40247  21661446.013    21661454.588
       237.000         196.000
  22333328.687     7416922.82749   5784612.63846  22333328.458    22333339.428
       227.000         179.000
  22851134.107   -11096082.45249  -8614723.43246  22851133.589    22851144.365
       223.000         172.000
  23828868.308    -3158084.24649  -2421829.05445  23828868.737    23828879.561
       211.000         154.000
  22949213.175    -9743987.15449  -7575849.21746  22949213.120    22949221.759
       223.000         169.000
 99 10  4 16 20  0.0000000  0  8G29G23G21G 3G17G 8G 9G31
  20313807.699   -10685742.06549  -8310298.76648  20313807.863    20313814.964
       243.000         216.000
  22293599.966     6411321.18649   4999691.30147  22293599.842    22293609.171
       233.000         191.000
  21084389.915    -3704230.39249  -2870816.50947  21084389.721    21084397.955
       243.000         208.000
  21666667.209    -3474600.80049  -2688059.82147  21666667.378    21666676.228
       236.000         197.000
  22347589.650     7491864.08749   5843008.28646  22347589.766    22347600.609
       226.000         179.000
  22842807.309   -11139839.66149  -8648819.89346  22842806.494    22842817.988
       223.000         172.000
  23833957.029    -3131342.90349  -2400991.68945  23833957.085    23833969.059
       213.000         154.000
  22942277.071    -9780436.76249  -7604251.53046  22942276.492    22942285.764
       223.000         169.000
 99 10  4 16 20 30.0000000  0  8G29G23G21G 3G17G 8G 9G31
  20309302.184   -10709418.72149  -8328748.09648  20309302.462    20309309.500
       244.000         216.000
  22302425.179     6457697.44249   5035828.58247  22302424.833    22302434.058
       233.000         190.000
  21082935.799    -3711871.93049  -2876770.96747  21082935.517    21082943.627
       244.000         208.000
  21671988.234    -3446638.75649  -2666271.26547  21671988.545    21671996.865
       236.000         196.000
  22361909.899     7567117.00549   5901646.80546  22361910.072    22361920.835
       227.000         178.000
  22834557.376   -11183193.06349  -8682601.70446  22834556.835    22834567.868
       224.000         172.000
  23839140.919    -3104103.52349  -2379766.25245  23839141.126    23839152.924
       212.000         154.000
  22935437.145    -9816380.57549  -7632259.69846  22935437.057    22935446.530
       223.000         169.000
 99 10  4 16 21  0.0000000  0  8G29G23G21G 3G17G 8G 9G31
  20304891.795   -10732595.58749  -8346807.98048  20304891.976    20304898.854
       243.000         216.000
  22311258.088     6504114.43749   5071997.59847  22311257.618    22311266.923
       232.000         190.000
  21081503.449    -3719399.19649  -2882636.38447  21081503.109    21081510.977
       243.000         208.000
  21677413.005    -3418131.48949  -2644057.86147  21677413.229    21677421.875
       237.000         196.000
  22376291.911     7642694.23949   5960538.01846  22376292.165    22376302.207
       227.000         178.000
  22826387.362   -11226126.90749  -8716056.60046  22826387.341    22826397.392
       222.000         172.000
  23844420.409    -3076359.65649  -2358147.71845  23844420.411    23844431.909
       213.000         155.000
  22928694.106    -9851815.74749  -7659871.54646  22928693.826    22928703.732
       224.000         169.000
 99 10  4 16 21 30.0000000  0  8G29G23G21G 3G17G 8G 9G31
  20300579.158   -10755258.64749  -8364467.49248  20300579.221    20300586.288
       244.000         216.000
  22320102.153     6550590.25249   5108212.44847  22320101.915    22320111.348
       231.000         190.000
  21080096.807    -3726791.01249  -2888396.24947  21080096.663    21080104.748
       243.000         208.000
  21682942.961    -3389071.91249  -2621414.08747  21682943.141    21682951.657
       237.000         196.000
  22390736.280     7718599.27249   6019684.65246  22390736.496    22390746.580
       226.000         178.000
  22818299.247   -11268629.92149  -8749175.77146  22818298.641    22818309.683
       222.000         172.000
  23849797.606    -3048102.46849  -2336129.20645  23849797.699    23849809.295
       213.000         154.000
  22922051.842    -9886721.11949  -7687070.54246  22922051.504    22922061.075
       223.000         168.000
 99 10  4 16 22  0.0000000  0  8G29G23G21G 3G17G 8G 9G31
  20296367.173   -10777392.80949  -8381714.87948  20296367.197    20296374.217
       243.000         216.000
  22328958.559     6597130.89249   5144477.80747  22328958.084    22328967.280
       232.000         189.000
  21078716.733    -3734043.47649  -2894047.53347  21078716.478    21078724.810
       243.000         208.000
  21688580.269    -3359447.58849  -2598330.25447  21688580.198    21688589.471
       236.000         196.000
  22405241.516     7794824.16749   6079080.53546  22405241.234    22405252.990
       226.000         178.000
  22810296.128   -11310685.91949  -8781946.62946  22810295.621    22810306.868
       222.000         172.000
  23855278.259    -3019302.27449  -2313687.56445  23855278.594    23855289.630
       212.000         154.000
  22915514.443    -9921075.27949  -7713840.03746  22915513.480    22915523.140
       223.000         168.000
 99 10  4 16 22 30.0000000  0  8G29G23G21G 3G17G 8G 9G31
  20292253.696   -10799009.31349  -8398558.88348  20292253.955    20292260.775
       244.000         216.000
  22337824.129     6643719.50749   5180780.55547  22337824.176    22337833.358
       232.000         189.000
  21077360.892    -3741168.40549  -2899599.43147  21077360.607    21077368.817
       243.000         208.000
  21694322.411    -3329272.71449  -2574817.42147  21694322.393    21694331.430
       236.000         194.000
  22419810.328     7871383.11949   6138736.71746  22419810.968    22419821.369
       226.000         177.000
  22802382.276   -11352273.07649  -8814352.15246  22802381.909    22802393.066
       223.000         172.000
  23860864.935    -2989944.20149  -2290811.22645  23860865.317    23860877.163
       212.000         153.000
  22909080.808    -9954884.25349  -7740184.71046  22909080.504    22909090.569
       222.000         168.000
 99 10  4 16 23  0.0000000  0  8G29G23G21G 3G17G 8G 9G31
  20288235.197   -10820126.68549  -8415013.95748  20288235.357    20288242.287
       244.000         216.000
  22346699.808     6690361.04349   5217124.54147  22346699.622    22346709.298
       232.000         189.000
  21076029.073    -3748167.08949  -2905052.96147  21076028.689    21076037.250
       244.000         208.000
  21700163.387    -3298578.59749  -2550899.98347  21700163.429    21700172.452
       236.000         195.000
  22434443.887     7948282.21349   6198657.93546  22434443.538    22434454.374
       226.000         177.000
  22794557.806   -11393390.90849  -8846391.98146  22794557.956    22794568.502
       223.000         172.000
  23866558.708    -2960023.92549  -2267496.79745  23866558.795    23866570.329
       211.000         153.000
  22902749.996    -9988152.54949  -7766108.07146  22902749.367    22902758.848
       220.000         168.000
 99 10  4 16 23 30.0000000  0  8G29G23G21G 3G17G 8G 9G31
  20284310.199   -10840752.74449  -8431086.19348  20284310.294    20284317.406
       243.000         216.000
  22355586.522     6737060.80349   5253513.88947  22355586.400    22355595.893
       231.000         189.000
  21074722.894    -3755031.60849  -2910401.95547  21074722.643    21074730.657
       243.000         209.000
  21706100.616    -3267378.27749  -2526588.10947  21706100.999    21706109.885
       236.000         196.000
  22449141.179     8025516.41749   6258840.28046  22449140.234    22449152.849
       224.000         176.000
  22786822.821   -11434038.52949  -8878065.41946  22786822.501    22786834.078
       223.000         173.000
  23872361.284    -2929530.93849  -2243736.11445  23872361.878    23872374.079
       211.000         153.000
  22896520.851   -10020887.21249  -7791615.61946  22896520.759    22896530.731
       221.000         168.000
 99 10  4 16 24  0.0000000  0  8G29G23G21G 3G17G 8G 9G31
  20280479.409   -10860883.58549  -8446772.53848  20280479.486    20280486.616
       243.000         216.000
  22364486.404     6783829.63249   5289957.07047  22364486.608    22364495.596
       232.000         189.000
  21073442.956    -3761757.82749  -2915643.18147  21073442.799    21073450.893
       243.000         208.000
  21712132.571    -3235680.48849  -2501888.59047  21712132.613    21712141.655
       235.000         195.000
  22463903.865     8103094.69449   6319290.73746  22463903.873    22463915.463
       226.000         175.000
  22779178.980   -11474207.13549  -8909365.59146  22779178.423    22779189.479
       224.000         173.000
  23878271.403    -2898473.67549  -2219535.72845  23878271.986    23878283.865
       211.000         153.000
  22890393.132   -10053088.69949  -7816707.68946  22890392.281    22890401.998
       219.000         167.000
 99 10  4 16 24 30.0000000  0  8G29G23G21G 3G17G 8G 9G31
  20276745.134   -10880507.28249  -8462063.70648  20276745.061    20276752.192
       243.000         216.000
  22373402.995     6830685.91449   5326468.39247  22373403.005    22373411.869
       231.000         189.000
  21072191.341    -3768335.04149  -2920768.29547  21072191.076    21072199.108
       243.000         208.000
  21718259.451    -3203483.72949  -2476800.26647  21718259.502    21718268.558
       236.000         195.000
  22478735.944     8181037.43749   6380025.19646  22478735.835    22478747.283
       226.000         175.000
  22771626.178   -11513897.57249  -8940293.17046  22771625.512    22771636.449
       223.000         173.000
  23884285.562    -2866869.22649  -2194908.96245  23884286.123    23884297.640
       213.000         153.000
  22884366.336   -10084759.62149  -7841386.33846  22884365.164    22884376.048
       221.000         167.000
 99 10  4 16 25  0.0000000  0  8G29G23G21G 3G17G 8G 9G31
  20273112.692   -10899595.84749  -8476937.88848  20273112.656    20273119.890
       243.000         216.000
  22382338.300     6877641.01849   5363056.71547  22382338.470    22382347.931
       231.000         189.000
  21070972.077    -3774742.43749  -2925761.08147  21070972.090    21070980.018
       244.000         208.000
  21724484.933    -3170769.05849  -2451308.37447  21724485.052    21724494.296
       236.000         195.000
  22493634.631     8259330.03049   6441032.26046  22493634.501    22493645.861
       226.000         175.000
  22764163.486   -11553114.19349  -8970851.54346  22764162.838    22764174.596
       225.000         173.000
  23890407.786    -2834697.97649  -2169840.53145  23890408.185    23890419.709
       211.000         153.000
  22878444.904   -10115876.81049  -7865633.50346  22878444.353    22878454.647
       220.000         167.000
 99 10  4 16 25 30.0000000  0  8G29G23G21G 3G17G 8G 9G31
  20269584.156   -10918138.45049  -8491386.64248  20269584.249    20269591.186
       243.000         216.000
  22391289.670     6924680.38549   5399710.69847  22391289.343    22391298.490
       231.000         188.000
  21069785.123    -3780980.39549  -2930621.83847  21069785.091    21069792.925
       244.000         209.000
  21730814.506    -3137506.99649  -2425389.94447  21730814.480    21730823.496
       236.000         195.000
  22508599.863     8337971.99049   6502311.56446  22508599.451    22508611.620
       226.000         175.000
  22756791.868   -11591852.49449  -9001037.18946  22756791.601    22756802.550
       225.000         174.000
  23896637.753    -2801959.78049  -2144330.31845  23896638.082    23896649.646
       211.000         153.000
  22872633.048   -10146418.33349  -7889432.09746  22872632.756    22872642.510
       221.000         167.000
 99 10  4 16 26  0.0000000  0  8G29G23G21G 3G17G 8G 9G31
  20266158.099   -10936142.24749  -8505415.55248  20266158.071    20266165.234
       243.000         215.000
  22400254.157     6971788.57749   5436418.30947  22400253.767    22400263.057
       231.000         188.000
  21068624.928    -3787077.52749  -2935372.85747  21068624.685    21068632.807
       243.000         208.000
  21737249.294    -3103692.31849  -2399040.90947  21737249.465    21737258.018
       236.000         195.000
  22523632.299     8416967.29449   6563866.18746  22523632.004    22523644.005
       225.000         175.000
  22749509.020   -11630124.17349  -9030859.23146  22749508.443    22749520.243
       225.000         174.000
  23902972.566    -2768669.86149  -2118390.19345  23902971.857    23902984.463
       211.000         151.000
  22866932.012   -10176377.37949  -7912776.80946  22866931.003    22866941.565
       220.000         167.000
 99 10  4 16 26 30.0000000  0  8G29G23G21G 3G17G 8G 9G31
  20262830.344   -10953629.72449  -8519042.13948  20262830.344    20262837.448
       243.000         215.000
  22409226.997     7018940.76149   5473160.19846  22409226.765    22409236.268
       230.000         187.000
  21067487.962    -3793052.43249  -2940028.63247  21067487.512    21067495.894
       243.000         208.000
  21743790.144    -3069320.35549  -2372257.62547  21743790.037    21743799.092
       236.000         196.000
  22538728.400     8496297.31849   6625681.62646  22538727.544    22538739.982
       226.000         175.000
  22742312.863   -11667940.36149  -9060326.35846  22742312.645    22742323.429
       226.000         174.000
  23909411.643    -2734832.10449  -2092023.17845  23909411.339    23909423.640
       211.000         151.000
  22861340.292   -10205761.88949  -7935673.83446  22861340.114    22861349.370
       221.000         168.000
 99 10  4 16 27  0.0000000  0  8G29G23G21G 3G17G 8G 9G31
  20259593.899   -10970637.15949  -8532294.66748  20259593.845    20259600.831
       243.000         215.000
  22418203.852     7066114.41949   5509918.81946  22418203.780    22418213.196
       230.000         187.000
  21066370.178    -3798926.17049  -2944605.57747  21066370.065    21066378.021
       243.000         208.000
  21750433.719    -3034408.40049  -2345053.57547  21750433.978    21750442.798
       236.000         196.000
  22553884.023     8575940.13849   6687740.82146  22553883.881    22553896.443
       226.000         175.000
  22735202.344   -11705306.82049  -9089443.04546  22735202.797    22735212.631
       226.000         175.000
  23915953.382    -2700455.09649  -2065235.93745  23915953.020    23915965.137
       210.000         151.000
  22855855.149   -10234587.06549  -7958135.01046  22855854.391    22855864.153
       221.000         168.000
 99 10  4 16 27 30.0000000  0  8G29G23G21G 3G17G 8G 9G31
  20256442.500   -10987197.76349  -8545199.01548  20256442.547    20256449.490
       243.000         215.000
  22427183.794     7113304.22849   5546690.02446  22427184.004    22427193.571
       231.000         187.000
  21065269.067    -3804712.67449  -2949114.55147  21065268.808    21065276.862
       243.000         208.000
  21757174.405    -2998986.35249  -2317452.04747  21757174.452    21757183.629
       236.000         196.000
  22569099.951     8655899.83049   6750046.91246  22569100.267    22569111.468
       226.000         175.000
  22728176.002   -11742230.21049  -9118214.47546  22728175.272    22728185.706
       225.000         174.000
  23922590.980    -2665573.93449  -2038055.86745  23922591.654    23922603.263
       212.000         151.000
  22850472.334   -10262874.06049  -7980176.84046  22850471.528    22850481.515
       221.000         169.000
 99 10  4 16 28  0.0000000  0  8G29G23G21G 3G17G 8G 9G31
  20253373.935   -11003323.02849  -8557764.14148  20253374.081    20253381.199
       243.000         216.000
  22436169.435     7160523.65249   5583484.30146  22436169.113    22436178.908
       231.000         187.000
  21064187.357    -3810397.11649  -2953543.99247  21064187.127    21064195.397
       243.000         209.000
  21764005.561    -2963088.46949  -2289479.74047  21764005.642    21764014.744
       236.000         196.000
  22584373.038     8736159.80749   6812586.99346  22584372.954    22584385.811
       226.000         175.000
  22721235.141   -11778704.13549  -9146635.66846  22721234.147    22721245.690
       225.000         174.000
  23929323.734    -2630193.57549  -2010486.80445  23929324.363    23929335.370
       212.000         152.000
  22845189.004   -10290638.27349  -8001811.28846  22845188.975    22845197.535
       222.000         169.000
 99 10  4 16 28 30.0000000  0  8G29G23G21G 3G17G 8G 9G31
  20250389.961   -11019003.98449  -8569983.05748  20250389.857    20250397.123
       243.000         216.000
  22445162.157     7207780.31849   5620307.60146  22445161.838    22445171.739
       230.000         187.000
  21063132.493    -3815940.45949  -2957863.48947  21063132.067    21063140.497
       243.000         208.000
  21770926.808    -2926717.09849  -2261138.47947  21770927.221    21770935.825
       236.000         196.000
  22599702.527     8816716.15549   6875358.02146  22599703.171    22599714.608
       226.000         175.000
  22714383.513   -11814709.43349  -9174691.69446  22714382.780    22714393.894
       224.000         174.000
  23936155.139    -2594294.56749  -1982513.57645  23936155.015    23936167.514
       214.000         153.000
  22840005.158   -10317879.55449  -8023038.27046  22840004.574    22840015.002
       223.000         169.000
 99 10  4 16 29  0.0000000  0  8G29G23G21G 3G17G 8G 9G31
  20247496.547   -11034208.71249  -8581830.89048  20247496.650    20247503.835
       243.000         215.000
  22454164.555     7255088.03749   5657170.67946  22454164.186    22454173.804
       229.000         186.000
  21062107.383    -3821327.52249  -2962061.20647  21062107.017    21062115.259
       243.000         208.000
  21777938.549    -2889870.56949  -2232426.97047  21777938.617    21777947.610
       236.000         195.000
  22615090.924     8897581.53349   6938369.83946  22615090.918    22615101.728
       224.000         174.000
  22707623.720   -11850231.70149  -9202371.32946  22707623.329    22707634.849
       225.000         174.000
  23943086.866    -2557868.61149  -1954129.72745  23943086.456    23943098.992
       212.000         152.000
  22834922.692   -10344588.09649  -8043850.13346  22834921.863    22834932.507
       223.000         170.000
 99 10  4 16 29 30.0000000  0  8G29G23G21G 3G17G 8G 9G31
  20244700.418   -11048902.51749  -8593280.60148  20244700.575    20244707.665
       243.000         215.000
  22463180.383     7302466.71849   5694089.04246  22463180.324    22463190.362
       230.000         186.000
  21061115.127    -3826541.88149  -2966124.35447  21061114.824    21061123.061
       243.000         208.000
  21785042.879    -2852537.54049  -2203336.37247  21785043.009    21785052.178
       235.000         195.000
  22630538.054     8978756.12449   7001622.59746  22630538.414    22630549.754
       225.000         173.000
  22700958.717   -11885256.19049  -9229663.06146  22700958.433    22700969.223
       226.000         175.000
  23950122.268    -2520896.90249  -1925320.63745  23950122.615    23950134.425
       213.000         152.000
  22829948.399   -10370727.90349  -8064218.82546  22829948.935    22829956.826
       224.000         171.000
 99 10  4 16 30  0.0000000  0  8G29G23G21G 3G17G 8G 9G31
  20242004.385   -11063070.15549  -8604320.31448  20242004.452    20242011.384
       242.000         215.000
  22472211.851     7349927.21649   5731071.15746  22472211.542    22472221.625
       230.000         186.000
  21060155.123    -3831586.87549  -2970055.53347  21060154.858    21060163.084
       242.000         208.000
  21792241.773    -2814707.14849  -2173858.21947  21792241.775    21792251.384
       235.000         195.000
  22646046.370     9060252.27949   7065125.91846  22646046.288    22646058.454
       224.000         173.000
  22694391.694   -11919766.36549  -9256554.03746  22694391.330    22694402.243
       226.000         175.000
  23957264.446    -2483364.46349  -1896074.58045  23957264.451    23957276.799
       212.000         152.000
  22825085.151   -10396284.72649  -8084133.23646  22825084.173    22825094.323
       223.000         171.000
 99 10  4 16 30 30.0000000  0  8G29G23G21G 3G17G 8G 9G31
  20239408.300   -11076712.70849  -8614950.87448  20239408.399    20239415.442
       243.000         215.000
  22481256.624     7397457.51749   5768107.66046  22481256.460    22481266.305
       229.000         186.000
  21059222.840    -3836485.91549  -2973872.97547  21059222.414    21059230.832
       242.000         208.000
  21799537.876    -2776366.35949  -2143982.35247  21799537.944    21799547.102
       235.000         194.000
  22661619.713     9142089.96749   7128895.37846  22661619.367    22661631.153
       225.000         173.000
  22687920.661   -11953771.38049  -9283051.37346  22687918.841    22687930.537
       225.000         175.000
  23964512.847    -2445274.43549  -1866394.05845  23964513.523    23964524.921
       211.000         152.000
  22820333.547   -10421254.73849  -8103590.39746  22820333.452    22820343.698
       223.000         172.000
 99 10  4 16 31  0.0000000  0  8G29G23G21G 3G17G 8G 9G31
  20236909.462   -11089844.11949  -8625183.13848  20236909.599    20236916.475
       243.000         215.000
  22490313.095     7445048.84949   5805191.72646  22490312.411    22490322.439
       230.000         186.000
  21058310.518    -3841280.11449  -2977608.72747  21058310.295    21058318.360
       242.000         208.000
  21806929.746    -2737522.08049  -2113714.15347  21806929.657    21806939.087
       235.000         194.000
  22677257.488     9224266.23349   7192928.66546  22677257.681    22677268.893
       225.000         173.000
  22681544.282   -11987278.93149  -9309161.07546  22681543.814    22681555.225
       227.000         175.000
  23971862.357    -2406652.79649  -1836299.28845  23971863.085    23971873.045
       211.000         151.000
  22815692.314   -10445644.49249  -8122595.40646  22815692.425    22815702.031
       224.000         172.000
 99 10  4 16 31 30.0000000  0  8G29G23G21G 3G17G 8G 9G31
  20234501.978   -11102495.72049  -8635041.53048  20234502.206    20234509.087
       243.000         216.000
  22499379.910     7492694.90449   5842318.42846  22499379.454    22499389.562
       230.000         185.000
  21057415.504    -3845983.39549  -2981273.63647  21057415.295    21057423.452
       242.000         208.000
  21814414.609    -2698188.94149  -2083065.03447  21814414.725    21814423.750
       235.000         194.000
  22692958.329     9306773.59249   7257219.94646  22692957.992    22692970.571
       224.000         173.000
  22675261.571   -12020294.78949  -9334887.64746  22675261.033    22675271.456
       226.000         175.000
  23979311.037    -2367509.69549  -1805798.16445  23979310.199    23979322.876
       210.000         150.000
  22811158.633   -10469469.49349  -8141160.34846  22811159.023    22811167.978
       224.000         173.000
 99 10  4 16 32  0.0000000  0  8G29G23G21G 3G17G 8G 9G31
  20232182.112   -11114686.93749  -8644541.17948  20232182.352    20232189.410
       243.000         216.000
  22508451.561     7540366.36249   5879464.91946  22508451.443    22508461.496
       230.000         185.000
  21056536.614    -3850602.13549  -2984872.66747  21056536.393    21056544.509
       242.000         208.000
  21821990.909    -2658375.70149  -2052041.79847  21821990.750    21822000.245
       235.000         193.000
  22708724.638     9389625.65849   7321779.81646  22708724.077    22708737.062
       223.000         172.000
  22669071.838   -12052822.33549  -9360233.71046  22669070.349    22669081.637
       226.000         175.000
  23986855.228    -2327865.05149  -1774906.22245  23986855.466    23986866.975
       212.000         150.000
  22806723.489   -10492776.36349  -8159321.56346  22806722.994    22806733.393
       225.000         173.000
 99 10  4 16 32 30.0000000  0  8G29G23G21G 3G17G 8G 9G31
  20229950.697   -11126413.00649  -8653678.37448  20229950.727    20229957.994
       243.000         216.000
  22517524.885     7588046.54349   5916618.20746  22517524.692    22517534.614
       230.000         185.000
  21055676.189    -3855123.94649  -2988396.17347  21055675.899    21055683.978
       242.000         208.000
  21829659.055    -2618079.69949  -2020642.39647  21829658.632    21829668.258
       235.000         193.000
  22724554.685     9472812.81149   7386600.79646  22724553.869    22724566.909
       223.000         171.000
  22662974.467   -12084863.98649  -9385201.16246  22662974.010    22662984.920
       225.000         175.000
  23994494.853    -2287719.00149  -1743623.59745  23994495.077    23994506.981
       215.000         152.000
  22802384.580   -10515577.73049  -8177088.86846  22802384.937    22802393.259
       224.000         173.000
 99 10  4 16 33  0.0000000  0  8G29G23G21G 3G17G 8G 9G31
  20227810.170   -11137661.64149  -8662443.54548  20227810.298    20227817.232
       243.000         216.000
  22526602.954     7635751.66849   5953790.93346  22526602.857    22526612.488
       229.000         185.000
  21054837.862    -3859529.36449  -2991828.98547  21054837.619    21054845.824
       242.000         208.000
  21837419.056    -2577301.14949  -1988866.98547  21837419.209    21837428.303
       234.000         193.000
  22740445.827     9556320.99649   7451671.94346  22740445.717    22740457.749
       222.000         170.000
  22656971.628   -12116408.87049  -9409781.53646  22656971.175    22656980.792
       226.000         174.000
  24002231.414    -2247064.11549  -1711944.46345  24002230.771    24002244.070
       216.000         152.000
  22798143.938   -10537862.75949  -8194453.84546  22798143.654    22798152.909
       225.000         173.000
 99 10  4 16 33 30.0000000  0  8G29G23G21G 3G17G 8G 9G31
  20225761.656   -11148426.64749  -8670831.86048  20225761.607    20225768.613
       242.000         215.000
  22535687.752     7683491.91849   5990991.03546  22535687.828    22535697.264
       229.000         185.000
  21054026.654    -3863792.64349  -2995151.03747  21054026.351    21054034.613
       242.000         208.000
  21845271.435    -2536037.03949  -1956713.20547  21845271.643    21845280.799
       235.000         193.000
  22756398.189     9640150.84149   7516993.72446  22756397.884    22756410.664
       222.000         169.000
  22651063.821   -12147454.50049  -9433972.87146  22651062.895    22651073.316
       226.000         174.000
  24010066.055    -2205893.26849  -1679863.28645  24010066.657    24010078.272
       214.000         152.000
  22794005.698   -10559609.34649  -8211399.25746  22794005.468    22794015.180
       226.000         174.000
 99 10  4 16 34  0.0000000  0  8G29G23G21G 3G17G 8G 9G31
  20223806.917   -11158698.85349  -8678836.17748  20223806.960    20223813.832
       243.000         215.000
  22544779.980     7731271.46849   6028221.75546  22544780.173    22544789.622
       229.000         184.000
  21053243.469    -3867908.36349  -2998358.11547  21053243.473    21053251.541
       242.000         207.000
  21853217.576    -2494280.07349  -1924175.38947  21853217.582    21853227.081
       234.000         193.000
  22772411.103     9724298.60049   7582563.22346  22772411.328    22772422.971
       224.000         169.000
  22645251.163   -12178000.19849  -9457774.65346  22645250.699    22645260.922
       224.000         175.000
  24017999.462    -2164202.86049  -1647377.25545  24017998.835    24018011.377
       211.000         153.000
  22789973.205   -10580800.64949  -8227911.98446  22789973.320    22789982.212
       226.000         174.000
 99 10  4 16 34 30.0000000  0  8G29G23G21G 3G17G 8G 9G31
  20221945.527   -11168480.53649  -8686458.26948  20221945.728    20221952.674
       243.000         215.000
  22553884.706     7779116.70249   6065503.66146  22553884.211    22553893.990
       229.000         184.000
  21052486.435    -3871886.68249  -3001458.11847  21052486.107    21052494.412
       242.000         207.000
  21861257.171    -2452031.76349  -1891254.70747  21861257.356    21861266.533
       234.000         193.000
  22788478.816     9808734.03649   7648356.89846  22788478.854    22788490.654
       224.000         169.000
  22639533.074   -12208048.63249  -9481188.95846  22639532.548    22639543.065
       225.000         175.000
  24026033.726    -2121982.60549  -1614478.34745  24026032.884    24026045.172
       214.000         153.000
  22786052.142   -10601406.11149  -8243968.20546  22786051.315    22786061.234
       226.000         174.000
 99 10  4 16 35  0.0000000  0  8G29G23G21G 3G17G 8G 9G31
  20220173.969   -11177790.35749  -8693712.67648  20220174.255    20220181.212
       243.000         216.000
  22563003.336     7827035.26049   6102842.69846  22563003.328    22563013.269
       229.000         184.000
  21051753.354    -3875739.08949  -3004460.01247  21051752.875    21051761.251
       241.000         207.000
  21869388.812    -2409300.10249  -1857957.38747  21869388.927    21869398.415
       234.000         193.000
  22804598.672     9893443.87749   7714364.39546  22804598.575    22804610.431
       223.000         169.000
  22633909.320   -12237601.59149  -9504217.18046  22633908.801    22633918.611
       224.000         175.000
  24034168.026    -2079236.05549  -1581169.32645  24034167.182    24034180.108
       212.000         152.000
  22782242.798   -10621424.38349  -8259566.87746  22782242.482    22782252.243
       226.000         175.000
 99 10  4 16 35 30.0000000  0  8G29G23G21G 3G17G 8G 9G31
  20218491.485   -11186631.88449  -8700602.17748  20218491.490    20218498.384
       243.000         216.000
  22572132.242     7875007.76849   6140223.78146  22572131.708    22572141.961
       228.000         184.000
  21051043.490    -3879469.44949  -3007366.80347  21051043.296    21051051.515
       242.000         207.000
  21877609.979    -2366097.94049  -1824293.44147  21877609.956    21877619.714
       234.000         193.000
  22820771.148     9978429.54649   7780586.81846  22820771.029    22820783.387
       223.000         170.000
  22628377.842   -12266669.07549  -9526867.11046  22628376.821    22628387.633
       224.000         174.000
  24042402.054    -2035965.74349  -1547452.22345  24042402.331    24042414.251
       213.000         151.000
  22778540.617   -10640879.60849  -8274726.81746  22778540.794    22778550.094
       226.000         175.000
 99 10  4 16 36  0.0000000  0  8G29G23G21G 3G17G 8G 9G31
  20216901.324   -11194988.14049  -8707113.55048  20216901.211    20216908.335
       243.000         216.000
  22581271.737     7923035.79749   6177648.12346  22581271.871    22581281.726
       229.000         183.000
  21050358.885    -3883067.24449  -3010170.31147  21050358.720    21050366.845
       242.000         207.000
  21885921.169    -2322422.55849  -1790260.75647  21885921.102    21885931.003
       235.000         193.000
  22836997.059    10063696.61049   7847028.50346  22836996.966    22837008.666
       223.000         170.000
  22622941.117   -12295238.70149  -9549129.10346  22622940.054    22622951.747
       224.000         175.000
  24050738.643    -1992156.69249  -1513315.28945  24050738.570    24050750.493
       208.000         151.000
  22774942.363   -10659789.12049  -8289461.52546  22774940.946    22774951.860
       226.000         175.000
 99 10  4 16 36 30.0000000  0  8G29G23G21G 3G17G 8G 9G31
  20215405.480   -11202848.79549  -8713238.73848  20215405.636    20215412.760
       243.000         216.000
  22590422.259     7971121.22149   6215117.19446  22590422.256    22590431.921
       228.000         183.000
  21049701.582    -3886521.33549  -3012861.83747  21049701.215    21049709.743
       241.000         207.000
  21894322.398    -2278274.24849  -1755859.55047  21894322.486    21894331.997
       235.000         193.000
  22853279.006    10149257.73149   7913699.32746  22853278.784    22853292.137
       223.000         169.000
  22617600.473   -12323303.65549  -9570997.84746  22617600.301    22617609.985
       224.000         175.000
  24059179.161    -1947801.09649  -1478752.48745  24059178.417    24059191.342
       209.000         150.000
  22771449.990   -10678141.76149  -8303762.29846  22771450.403    22771459.740
       226.000         175.000
 99 10  4 16 37  0.0000000  0  8G29G23G21G 3G17G 8G 9G31
  20214005.613   -11210205.46149  -8718971.21048  20214005.725    20214012.861
       243.000         216.000
  22599582.855     8019260.21049   6252627.99946  22599582.265    22599591.979
       228.000         183.000
  21049073.114    -3889824.01849  -3015435.38647  21049072.820    21049080.911
       241.000         207.000
  21902813.246    -2233654.95449  -1721091.35347  21902813.088    21902822.561
       234.000         193.000
  22869622.441    10235142.64749   7980622.45746  22869622.720    22869634.006
       222.000         168.000
  22612356.876   -12350858.57849  -9592469.15346  22612355.942    22612366.415
       225.000         175.000
  24067722.446    -1902905.11149  -1443768.60445  24067722.592    24067734.369
       211.000         150.000
  22768065.486   -10695927.75749  -8317621.54646  22768065.386    22768074.907
       227.000         175.000
 99 10  4 16 37 30.0000000  0  8G29G23G21G 3G17G 8G 9G31
  20212702.590   -11217053.02549  -8724306.97948  20212702.617    20212709.727
       243.000         215.000
  22608753.570     8067452.86649   6290180.62846  22608753.606    22608763.724
       228.000         182.000
  21048472.390    -3892980.95549  -3017895.36947  21048472.366    21048480.276
       242.000         207.000
  21911393.305    -2188567.07249  -1685958.01947  21911393.628    21911402.407
       234.000         192.000
  22886029.863    10321363.69049   8047807.49746  22886029.821    22886042.440
       222.000         167.000
  22607209.177   -12377909.99649  -9613548.13246  22607208.475    22607218.869
       225.000         176.000
  24076366.930    -1857478.11749  -1408370.95745  24076367.108    24076378.939
       212.000         150.000
  22764791.722   -10713131.79349  -8331027.29746  22764791.353    22764800.762
       226.000         175.000
 99 10  4 16 38  0.0000000  0  8G29G23G21G 3G17G 8G 9G31
  20211492.444   -11223412.35749  -8729262.30948  20211492.385    20211499.366
       243.000         215.000
  22617935.653     8115704.92549   6327779.54446  22617935.979    22617945.618
       228.000         182.000
  21047896.513    -3896007.39449  -3020253.66647  21047896.195    21047904.479
       242.000         207.000
  21920061.848    -2143013.98249  -1650462.18447  21920061.617    21920071.123
       235.000         192.000
  22902500.913    10407919.10049   8115253.09846  22902500.929    22902512.011
       221.000         166.000
  22602158.404   -12404451.85849  -9634230.05346  22602158.261    22602168.644
       225.000         176.000
  24085109.864    -1811534.30949  -1372570.58645  24085110.105    24085121.203
       212.000         150.000
  22761630.983   -10729741.52449  -8343969.96646  22761630.461    22761640.354
       226.000         175.000
 99 10  4 16 38 30.0000000  0  8G29G23G21G 3G17G 8G 9G31
  20210370.555   -11229307.75349  -8733856.12848  20210370.741    20210377.810
       243.000         215.000
  22627126.901     8164004.65249   6365415.60346  22627126.656    22627136.939
       228.000         182.000
  21047340.262    -3898930.72149  -3022531.61447  21047339.990    21047348.390
       242.000         207.000
  21928815.529    -2097013.26349  -1614617.54747  21928815.647    21928824.728
       233.000         191.000
  22919033.445    10494797.08449   8182950.04546  22919033.673    22919046.192
       221.000         166.000
  22597200.718   -12430504.55549  -9654530.79746  22597200.384    22597211.106
       225.000         176.000
  24093946.665    -1765096.81849  -1336385.52745  24093946.188    24093958.485
       212.000         150.000
  22758583.370   -10745756.94349  -8356449.53746  22758582.651    22758592.538
       226.000         175.000
 99 10  4 16 39  0.0000000  0  8G29G23G21G 3G17G 8G 9G31
  20209334.820   -11234750.72649  -8738097.41048  20209334.809    20209342.034
       243.000         216.000
  22636325.714     8212344.11849   6403082.62646  22636325.968    22636335.724
       228.000         182.000
  21046801.738    -3901760.81349  -3024736.91147  21046801.652    21046809.765
       242.000         207.000
  21937653.396    -2050570.23849  -1578428.26547  21937653.499    21937663.138
       233.000         191.000
  22935625.138    10581986.23049   8250889.46346  22935626.316    22935637.825
       222.000         165.000
  22592336.709   -12456064.82049  -9674447.84246  22592336.101    22592346.377
       224.000         176.000
  24102873.403    -1718186.42449  -1299831.99045  24102873.408    24102884.518
       212.000         149.000
  22755643.048   -10761208.30049  -8368489.56646  22755642.167    22755652.371
       227.000         175.000
 99 10  4 16 39 30.0000000  0  8G29G23G21G 3G17G 8G 9G31
  20208386.490   -11239734.33349  -8741980.74648  20208386.535    20208393.598
       243.000         216.000
  22645529.532     8260709.95849   6440770.19846  22645529.356    22645539.309
       228.000         182.000
  21046282.904    -3904487.48149  -3026861.61747  21046282.742    21046291.086
       242.000         207.000
  21946576.985    -2003676.69649  -1541887.92847  21946577.061    21946586.736
       233.000         191.000
  22952272.634    10669468.74449   8319057.48446  22952272.472    22952284.756
       222.000         165.000
  22587568.218   -12481123.13549  -9693973.75946  22587567.512    22587578.044
       225.000         176.000
  24111890.647    -1670800.63549  -1262908.00945  24111889.966    24111902.084
       210.000         148.000
  22752805.730   -10776118.74849  -8380108.10946  22752805.141    22752814.563
       227.000         175.000
 99 10  4 16 40  0.0000000  0  8G29G23G21G 3G17G 8G 9G31
  20207527.262   -11244249.75449  -8745499.26648  20207527.240    20207534.213
       243.000         216.000
  22654740.276     8309112.21749   6478486.15346  22654739.790    22654750.431
       228.000         182.000
  21045786.249    -3907097.61549  -3028895.52747  21045785.956    21045794.199
       242.000         207.000
  21955588.199    -1956322.71249  -1504988.80947  21955588.492    21955597.667
       233.000         190.000
  22968974.093    10757234.74149   8387446.38346  22968974.060    22968986.288
       221.000         165.000
  22582899.605   -12505656.82349  -9713090.87346  22582898.695    22582909.386
       225.000         177.000
  24121001.526    -1622922.40549  -1225600.32445  24121001.108    24121014.628
       210.000         148.000
  22750070.224   -10790493.90149  -8391309.54946  22750069.864    22750079.387
       226.000         175.000
 99 10  4 16 40 30.0000000  0  8G29G23G21G 3G17G 8G 9G31
  20206759.982   -11248281.79449  -8748641.12648  20206760.041    20206767.014
       243.000         216.000
  22663958.809     8357555.37749   6516233.98446  22663958.768    22663968.500
       228.000         181.000
  21045313.011    -3909584.96349  -3030833.75647  21045312.853    21045321.119
       242.000         207.000
  21964689.129    -1908497.60149  -1467722.57147  21964689.352    21964698.703
       233.000         190.000
  22985728.912    10845281.29849   8456053.90546  22985729.251    22985741.548
       221.000         165.000
  22578332.419   -12529657.63649  -9731792.76946  22578332.676    22578342.565
       225.000         177.000
  24130207.508    -1574544.76549  -1187903.49145  24130207.675    24130219.709
       213.000         148.000
  22747435.957   -10804337.51649  -8402096.80446  22747435.198    22747444.852
       226.000         175.000
 99 10  4 16 41  0.0000000  0  8G29G23G21G 3G17G 8G 9G31
  20206087.158   -11251817.55149  -8751396.27548  20206087.397    20206094.481
       243.000         216.000
  22673187.656     8406052.89849   6554024.17346  22673187.759    22673197.884
       228.000         181.000
  21044866.809    -3911929.92249  -3032661.02647  21044866.492    21044874.937
       242.000         207.000
  21973880.309    -1860197.75249  -1430086.40647  21973879.969    21973889.789
       233.000         190.000
  23002538.574    10933615.91749   8524885.88846  23002538.254    23002551.122
       221.000         165.000
  22573871.595   -12553099.27749  -9750058.94846  22573871.524    22573881.584
       224.000         177.000
  24139511.115    -1525654.81349  -1149807.44945  24139511.134    24139522.416
       213.000         148.000
  22744902.132   -10817652.74049  -8412472.32346  22744902.042    22744912.043
       225.000         176.000
 99 10  4 16 41 30.0000000  0  8G29G23G21G 3G17G 8G 9G31
  20205509.064   -11254855.64849  -8753763.63348  20205509.067    20205516.154
       243.000         216.000
  22682430.370     8454622.99449   6591870.91646  22682430.000    22682439.921
       228.000         181.000
  21044448.697    -3914127.19149  -3034373.21147  21044448.551    21044456.582
       242.000         207.000
  21983161.440    -1811425.45449  -1392082.10047  21983161.394    21983170.688
       233.000         190.000
  23019404.095    11022244.16149   8593946.67046  23019404.338    23019416.327
       219.000         164.000
  22569518.560   -12575973.98749  -9767883.36346  22569517.848    22569528.533
       224.000         176.000
  24148914.938    -1476238.08749  -1111300.93345  24148915.384    24148927.153
       211.000         147.000
  22742473.090   -10830417.65049  -8422419.02446  22742472.494    22742481.444
       225.000         175.000
 99 10  4 16 42  0.0000000  0  8G29G23G21G 3G17G 8G 9G31
  20205023.070   -11257409.50049  -8755753.66248  20205023.343    20205030.293
       243.000         216.000
  22691689.918     8503281.77349   6629786.76546  22691689.690    22691699.816
       228.000         181.000
  21044056.006    -3916190.83349  -3035981.27747  21044055.763    21044064.148
       242.000         207.000
  21992528.421    -1762202.01449  -1353726.25347  21992528.739    21992538.178
       232.000         190.000
  23036327.821    11111178.42249   8663245.91246  23036327.532    23036340.680
       219.000         164.000
  22565273.723   -12598280.67749  -9785265.16646  22565273.566    22565283.308
       225.000         177.000
  24158417.623    -1426300.81849  -1072388.83345  24158415.957    24158428.250
       209.000         146.000
  22740149.563   -10842627.75649  -8431933.41646  22740149.942    22740158.863
       225.000         175.000
 99 10  4 16 42 30.0000000  0  8G29G23G21G 3G17G 8G 9G31
  20204627.953   -11259485.81149  -8757371.57648  20204628.007    20204634.991
       243.000         216.000
  22700963.486     8552014.42549   6667760.17646  22700963.350    22700972.892
       227.000         181.000
  21043689.003    -3918119.33849  -3037484.03547  21043688.608    21043697.247
       242.000         207.000
  22001977.387    -1712547.42449  -1315034.45647  22001977.418    22001987.550
       232.000         190.000
  23053311.908    11200429.72549   8732792.19246  23053311.644    23053324.903
       218.000         164.000
  22561135.970   -12620024.74849  -9802208.58346  22561134.961    22561145.610
       225.000         177.000
  24168016.988    -1375855.03049  -1033080.47445  24168016.330    24168029.253
       211.000         145.000
  22737930.227   -10854290.53549  -8441021.30346  22737929.949    22737939.690
       225.000         175.000
 99 10  4 16 43  0.0000000  0  8G29G23G21G 3G17G 8G 9G31
  20204322.376   -11261091.56749  -8758622.82848  20204322.369    20204329.414
       243.000         216.000
  22710250.213     8600815.97049   6705787.26646  22710249.871    22710259.714
       227.000         181.000
  21043348.174    -3919910.61349  -3038879.86147  21043347.684    21043356.411
       242.000         207.000
  22011507.176    -1662468.38949  -1276011.91247  22011506.651    22011517.043
       232.000         190.000
  23070357.071    11290001.82749   8802588.44546  23070357.844    23070370.382
       219.000         164.000
  22557105.060   -12641207.19449  -9818714.35746  22557104.881    22557114.952
       225.000         177.000
  24177713.780    -1324898.02949   -993373.78545  24177713.657    24177726.160
       209.000         146.000
  22735816.965   -10865395.37349  -8449674.44646  22735816.682    22735826.783
       225.000         175.000
 99 10  4 16 43 30.0000000  0  8G29G23G21G 3G17G 8G 9G31
  20204103.632   -11262241.46949  -8759518.86948  20204103.760    20204110.705
       243.000         215.000
  22719546.961     8649670.25949   6743855.45946  22719546.525    22719556.139
       228.000         181.000
  21043030.440    -3921580.35649  -3040180.98047  21043030.143    21043038.586
       242.000         207.000
  22021117.433    -1611966.07749  -1236659.54747  22021117.608    22021127.094
       232.000         190.000
  23087461.474    11379885.25949   8872627.28646  23087462.173    23087474.761
       219.000         165.000
  22553177.433   -12661846.87449  -9834797.20746  22553177.750    22553187.681
       226.000         177.000
  24187507.697    -1273430.98649   -953269.67845  24187507.127    24187519.796
       211.000         147.000
  22733810.173   -10875941.41049  -8457892.15846  22733809.601    22733819.445
       226.000         176.000
 99 10  4 16 44  0.0000000  0  8G29G23G21G 3G17G 8G 9G31
  20203971.889   -11262933.54649  -8760058.16548  20203971.881    20203978.822
       243.000         215.000
  22728849.140     8698553.51049   6781946.21946  22728849.055    22728858.979
       227.000         181.000
  21042735.670    -3923129.53249  -3041388.15847  21042735.357    21042743.776
       242.000         207.000
  22030809.088    -1561036.53549  -1196974.27047  22030809.478    22030819.028
       232.000         189.000
  23104624.440    11470076.13549   8942905.70046  23104624.451    23104637.434
       220.000         165.000
  22549349.905   -12681960.73049  -9850470.32046  22549349.910    22549359.996
       225.000         177.000
  24197398.230    -1221456.41949   -912770.11645  24197398.090    24197410.785
       210.000         148.000
  22731907.089   -10885942.55649  -8465685.28846  22731907.178    22731916.886
       225.000         176.000
 99 10  4 16 44 30.0000000  0  9G29G23G15G21G 3G17G 8G 9G31
  20203924.793   -11263181.20149  -8760251.16048  20203924.844    20203932.025
       242.000         215.000
  22738153.802     8747449.81649   6820047.16046  22738153.084    22738164.694
       227.000         181.000
  24278014.578    -6101078.22349  -4720194.32445  24278014.380    24278026.188
       214.000         142.000
  21042463.087    -3924561.95249  -3042504.35147  21042462.576    21042471.074
       242.000         207.000
  22040581.928    -1509680.25149  -1156956.46947  22040581.783    22040591.999
       232.000         189.000
  23121840.804    11560547.90749   9013403.00246  23121841.023    23121853.934
       221.000         165.000
  22545617.136   -12701576.29949  -9865755.16546  22545616.774    22545626.926
       226.000         177.000
  24207382.998    -1168986.50049   -871884.56345  24207382.768    24207395.367
       210.000         149.000
  22730105.544   -10895410.17549  -8473062.67046  22730105.246    22730114.679
       226.000         176.000
 99 10  4 16 45  0.0000000  0  9G29G23G15G21G 3G17G 8G 9G31
  20203963.943   -11262975.35849  -8760090.77148  20203964.027    20203971.129
       243.000         215.000
  22747464.846     8796379.32049   6858173.95646  22747464.938    22747474.807
       227.000         181.000
  24258261.605    -6204881.19649  -4801079.83145  24258260.995    24258273.096
       213.000         144.000
  21042212.974    -3925876.45049  -3043528.66047  21042212.819    21042221.020
       242.000         207.000
  22050439.545    -1457878.62549  -1116591.64947  22050439.618    22050449.405
       233.000         190.000
  23139109.860    11651296.42649   9084115.94346  23139109.398    23139122.433
       219.000         165.000
  22541979.604   -12720691.92449  -9880650.42746  22541979.752    22541989.357
       227.000         177.000
  24217463.372    -1116013.25949   -830606.82745  24217462.689    24217475.315
       208.000         149.000
  22728409.082   -10904325.10249  -8480009.39546  22728408.240    22728418.931
       225.000         175.000
 99 10  4 16 45 30.0000000  0  9G29G23G15G21G 3G17G 8G 9G31
  20204089.846   -11262314.03649  -8759575.46448  20204090.030    20204096.799
       243.000         215.000
  22756783.970     8845351.12349   6896333.72446  22756784.286    22756793.977
       227.000         180.000
  24238507.113    -6308691.56749  -4881971.06545  24238505.961    24238517.995
       212.000         145.000
  21041987.085    -3927063.76749  -3044453.86547  21041986.926    21041995.105
       242.000         207.000
  22060381.979    -1405631.77449  -1075879.89347  22060382.085    22060391.887
       233.000         190.000
  23156433.221    11742330.29449   9155051.22746  23156433.325    23156446.219
       220.000         165.000
  22538437.862   -12739304.13149  -9895153.43446  22538437.015    22538447.884
       227.000         177.000
  24227636.480    -1062552.96049   -788949.57945  24227636.896    24227648.724
       209.000         147.000
  22726818.487   -10912683.66149  -8486522.58346  22726818.051    22726828.642
       224.000         175.000
 99 10  4 16 46  0.0000000  0  9G29G23G15G21G 3G17G 8G 9G31
  20204302.324   -11261197.55249  -8758705.48348  20204302.103    20204309.302
       242.000         215.000
  22766112.748     8894373.99049   6934533.28246  22766112.628    22766122.732
       226.000         180.000
  24218751.137    -6412509.77649  -4962868.40745  24218751.347    24218762.772
       209.000         146.000
  21041787.210    -3928114.36949  -3045272.54147  21041786.934    21041795.191
       242.000         207.000
  22070408.655    -1352941.49449  -1034822.61747  22070408.824    22070418.212
       232.000         189.000
  23173810.373    11833646.83549   9226206.78546  23173810.405    23173822.714
       218.000         164.000
  22534993.207   -12757406.18249  -9909258.93046  22534992.639    22535003.129
       226.000         176.000
  24237899.508    -1008620.85349   -746924.68945  24237899.541    24237911.564
       209.000         147.000
  22725333.745   -10920485.88449  -8492602.26146  22725333.509    22725343.399
       225.000         176.000
 99 10  4 16 46 30.0000000  0  9G29G23G15G21G 3G17G 8G 9G31
  20204601.157   -11259627.09449  -8757481.75148  20204601.445    20204608.569
       243.000         215.000
  22775452.371     8943453.72549   6972777.15346  22775452.153    22775462.777
       227.000         180.000
  24198994.455    -6516332.10349  -5043768.94845  24198993.885    24199005.767
       209.000         146.000
  21041612.746    -3929031.25249  -3045987.01847  21041612.575    21041620.845
       242.000         207.000
  22080516.532    -1299824.63649   -993432.94047  22080516.596    22080526.483
       233.000         189.000
  23191239.599    11925237.61849   9297576.03446  23191239.229    23191253.202
       215.000         163.000
  22531647.953   -12774985.45649  -9922957.06346  22531647.465    22531658.279
       226.000         176.000
  24248251.975     -954219.27949   -704533.97045  24248251.825    24248264.995
       209.000         148.000
  22723958.692   -10927712.25849  -8498233.23046  22723958.421    22723968.750
       225.000         177.000
 99 10  4 16 47  0.0000000  0 10G29G23G15G21G 3G25G17G 8G 9G31
  20204989.758   -11257585.20149  -8755890.67148  20204989.827    20204996.922
       242.000         215.000
  22784801.328     8992582.50749   7011059.24346  22784801.240    22784811.521
       227.000         180.000
  24179238.371    -6620151.33949  -5124667.06545  24179238.072    24179249.828
       207.000         146.000
  21041463.295    -3929816.85349  -3046599.20447  21041462.888    21041471.470
       242.000         207.000
  22090703.410    -1246292.60449   -951719.75747  22090703.334    22090713.172
       232.000         188.000
  24674012.595    -7374785.98349  -5717728.43745  24674012.726    24674027.995
       209.000         142.000
  23208723.133    12017113.38449   9369167.33345  23208723.605    23208736.566
       218.000         162.000
  22528407.038   -12792016.71949  -9936228.18346  22528406.439    22528417.030
       227.000         177.000
  24258695.629     -899338.46149   -661769.81845  24258696.534    24258708.068
       209.000         149.000
  22722694.713   -10934354.49049  -8503409.02446  22722694.706    22722704.835
       226.000         177.000
 99 10  4 16 47 30.0000000  0 10G29G23G15G21G 3G25G17G 8G 9G31
  20205469.924   -11255061.79649  -8753924.37948  20205469.884    20205476.999
       242.000         215.000
  22794160.494     9041764.90249   7049383.10846  22794160.581    22794170.661
       227.000         180.000
  24159484.892    -6723957.12549  -5205554.71045  24159483.578    24159496.051
       206.000         146.000
  21041340.717    -3930461.19949  -3047101.31347  21041340.573    21041348.560
       242.000         207.000
  22100969.209    -1192345.76349   -909683.34347  22100969.307    22100979.450
       231.000         188.000
  24655580.746    -7471646.13949  -5793203.80445  24655580.137    24655596.156
       207.000         142.000
  23226262.005    12109279.57849   9440984.93645  23226261.674    23226274.805
       218.000         162.000
  22525273.351   -12808484.34149  -9949060.10046  22525272.978    22525283.013
       227.000         177.000
  24269233.121     -843963.88749   -618620.92545  24269232.890    24269245.158
       211.000         149.000
  22721539.933   -10940423.51849  -8508138.14246  22721540.235    22721549.788
       226.000         177.000
 99 10  4 16 48  0.0000000  0 10G29G23G15G21G 3G25G17G 8G 9G31
  20206042.202   -11252054.49149  -8751581.02448  20206042.308    20206049.186
       243.000         215.000
  22803529.005     9090996.14649   7087745.02646  22803528.945    22803539.313
       227.000         180.000
  24139734.069    -6827748.35349  -5286431.00545  24139732.621    24139745.593
       208.000         146.000
  21041242.484    -3930977.49149  -3047503.64647  21041242.151    21041250.540
       242.000         207.000
  22111311.649    -1137996.27249   -867333.19047  22111311.847    22111321.799
       232.000         188.000
  24637135.486    -7568577.32749  -5868734.53945  24637135.646    24637150.109
       206.000         143.000
  23243851.960    12201714.53549   9513011.97346  23243851.397    23243865.049
       219.000         163.000
  22522245.632   -12824395.03749  -9961458.05946  22522245.884    22522254.858
       226.000         177.000
  24279868.151     -788076.87349   -575072.71045  24279868.057    24279880.015
       211.000         148.000
  22720492.973   -10945925.54449  -8512425.47146  22720492.550    22720501.911
       227.000         177.000
 99 10  4 16 48 30.0000000  0 10G29G23G15G21G 3G25G17G 8G 9G31
  20206707.908   -11248556.22349  -8748855.09848  20206707.967    20206715.128
       243.000         215.000
  22812906.981     9140277.13749   7126145.72146  22812907.383    22812916.694
       227.000         180.000
  24119986.610    -6931522.83049  -5367294.25845  24119985.771    24119998.154
       207.000         146.000
  21041168.316    -3931367.28649  -3047807.40747  21041168.012    21041176.325
       242.000         207.000
  22121729.698    -1083249.39649   -824673.37447  22121729.575    22121739.675
       232.000         188.000
  24618678.113    -7665571.82349  -5944314.55745  24618677.454    24618693.102
       208.000         142.000
  23261492.869    12294417.57849   9585247.90046  23261492.744    23261506.333
       217.000         163.000
  22519323.922   -12839748.92349  -9973422.14646  22519323.417    22519332.799
       227.000         177.000
  24290601.434     -731673.25249   -531121.96845  24290601.047    24290613.806
       209.000         147.000
  22719553.777   -10950861.11749  -8516271.39346  22719553.360    22719563.329
       225.000         176.000
 99 10  4 16 49  0.0000000  0 10G29G23G15G21G 3G25G17G 8G 9G31
  20207466.248   -11244571.37749  -8745750.02048  20207466.382    20207473.378
       242.000         215.000
  22822297.488     9189624.50349   7164598.13446  22822297.512    22822307.605
       226.000         179.000
  24100243.453    -7035273.82649  -5448139.20745  24100242.969    24100255.273
       204.000         145.000
  21041120.413    -3931619.14249  -3048003.68447  21041120.016    21041128.519
       241.000         207.000
  22132227.974    -1028081.06949   -781685.15647  22132227.768    22132237.558
       233.000         188.000
  24600209.187    -7762626.28949  -6019941.28745  24600210.029    24600223.303
       208.000         143.000
  23279186.781    12387399.36649   9657701.02946  23279187.064    23279200.404
       218.000         164.000
  22516510.262   -12854534.86049  -9984943.68746  22516509.655    22516520.028
       227.000         177.000
  24301431.885     -674759.25649   -486773.52745  24301431.229    24301444.879
       207.000         145.000
  22718719.343   -10955245.99849  -8519688.21446  22718719.398    22718729.018
       226.000         176.000
 99 10  4 16 49 30.0000000  0 10G29G23G15G21G 3G25G17G 8G 9G31
  20208313.048   -11240121.45449  -8742282.54048  20208313.086    20208320.085
       242.000         216.000
  22831701.691     9239043.59349   7203106.43646  22831701.522    22831711.789
       227.000         179.000
  24080504.485    -7139003.30349  -5528967.38645  24080504.244    24080514.839
       204.000         143.000
  21041100.257    -3931725.02149  -3048086.20747  21041099.930    21041108.483
       241.000         206.000
  22142807.077     -972488.09149   -738366.04447  22142807.413    22142817.037
       233.000         188.000
  24581729.801    -7859735.59749  -6095610.74645  24581729.593    24581744.587
       207.000         144.000
  23296932.625    12480653.65149   9730366.49746  23296931.930    23296946.205
       219.000         163.000
  22513801.699   -12868768.48749  -9996034.85646  22513801.330    22513812.187
       227.000         177.000
  24312356.168     -617352.01949   -442040.72445  24312356.566    24312369.236
       209.000         145.000
  22717990.858   -10959074.09449  -8522671.16446  22717991.172    22718000.282
       227.000         176.000
 99 10  4 16 50  0.0000000  0 10G29G23G15G21G 3G25G17G 8G 9G31
  20209248.241   -11235207.04849  -8738453.13448  20209248.199    20209255.256
       243.000         216.000
  22841117.609     9288524.14149   7241662.61346  22841117.224    22841128.021
       226.000         178.000
  24060768.787    -7242716.00149  -5609782.48545  24060768.996    24060780.600
       205.000         141.000
  21041107.427    -3931687.28649  -3048056.83247  21041107.245    21041115.561
       241.000         206.000
  22153464.671     -916482.24649   -694725.21847  22153464.646    22153474.541
       232.000         188.000
  24563238.132    -7956909.36949  -6171330.41245  24563237.914    24563253.122
       207.000         144.000
  23314731.051    12574184.12249   9803247.16746  23314731.118    23314746.070
       217.000         163.000
  22511197.230   -12882455.05449 -10006699.74946  22511196.763    22511206.661
       227.000         177.000
  24323370.170     -559473.21149   -396940.45545  24323370.551    24323382.709
       210.000         145.000
  22717369.393   -10962340.21849  -8525216.23946  22717368.863    22717378.060
       226.000         176.000
 99 10  4 16 50 30.0000000  0 10G29G23G15G21G 3G25G17G 8G 9G31
  20210272.815   -11229822.89649  -8734257.68648  20210272.709    20210279.745
       243.000         216.000
  22850544.369     9338061.54549   7280263.11246  22850544.107    22850554.565
       226.000         178.000
  24041037.054    -7346407.95749  -5690581.41345  24041036.926    24041048.064
       205.000         140.000
  21041142.107    -3931505.40449  -3047915.12047  21041141.901    21041150.305
       241.000         206.000
  22164202.322     -860056.16049   -650756.92947  22164202.582    22164212.400
       233.000         189.000
  24544732.534    -8054156.61649  -6247107.32345  24544730.916    24544747.383
       207.000         144.000
  23332582.470    12667992.92749   9876344.71645  23332582.979    23332596.021
       218.000         161.000
  22508700.771   -12895574.35149 -10016922.61746  22508700.391    22508711.068
       227.000         177.000
  24334471.572     -501135.58749   -351482.64245  24334471.566    24334484.010
       209.000         144.000
  22716853.240   -10965052.81749  -8527329.98146  22716852.141    22716862.352
       225.000         176.000
 99 10  4 16 51  0.0000000  0 10G29G23G15G21G 3G25G17G 8G 9G31
  20211385.827   -11223974.25449  -8729700.31048  20211386.019    20211393.078
       245.000         216.000
  22859981.236     9387652.02549   7318904.95746  22859981.244    22859991.323
       227.000         178.000
  24021309.909    -7450074.42149  -5771360.48645  24021308.784    24021320.983
       204.000         142.000
  21041202.681    -3931187.22449  -3047667.21047  21041202.579    21041210.858
       241.000         206.000
  22175019.412     -803212.18749   -606463.02547  22175019.483    22175029.094
       233.000         188.000
  24526213.157    -8151476.44949  -6322940.78145  24526212.077    24526227.779
       205.000         142.000
  23350488.892    12762090.83549   9949667.54545  23350489.642    23350502.714
       215.000         161.000
  22506314.422   -12908114.67749 -10026694.34846  22506313.953    22506324.367
       227.000         178.000
  24345660.384     -442338.74749   -305666.98145  24345659.880    24345673.753
       208.000         144.000
  22716444.207   -10967201.98349  -8529004.68446  22716443.823    22716453.709
       225.000         176.000
 99 10  4 16 51 30.0000000  0 10G29G23G15G21G 3G25G17G 8G 9G31
  20212589.182   -11217650.56249  -8724772.76448  20212589.266    20212596.508
       244.000         216.000
  22869427.701     9437293.24749   7357586.33846  22869427.135    22869437.821
       226.000         177.000
  24001587.601    -7553715.31749  -5852119.60945  24001587.417    24001599.450
       202.000         141.000
  21041287.805    -3930739.96649  -3047318.71647  21041287.450    21041296.009
       241.000         206.000
  22185911.731     -745973.21649   -561861.31947  22185911.843    22185921.475
       233.000         188.000
  24507680.051    -8248867.83649  -6398829.98345  24507680.166    24507694.293
       206.000         142.000
  23368449.691    12856475.08849  10023213.49845  23368450.448    23368463.205
       216.000         159.000
  22504035.341   -12920091.13749 -10036026.70346  22504034.901    22504045.454
       226.000         178.000
  24356937.256     -383079.43049   -259490.94845  24356936.724    24356950.684
       209.000         145.000
  22716144.325   -10968777.99649  -8530232.79146  22716144.271    22716154.775
       226.000         176.000
 99 10  4 16 52  0.0000000  0 10G29G23G15G21G 3G25G17G 8G 9G31
  20213883.500   -11210848.96649  -8719472.82748  20213883.470    20213890.561
       244.000         216.000
  22878886.385     9486998.70849   7396317.77946  22878885.797    22878896.548
       226.000         177.000
  23981871.585    -7657323.43649  -5932853.17845  23981870.127    23981883.080
       205.000         142.000
  21041395.067    -3930176.22849  -3046879.45247  21041394.746    21041403.212
       241.000         206.000
  22196881.512     -688326.91349   -516942.21346  22196881.729    22196891.381
       233.000         187.000
  24489134.175    -8346326.77649  -6474771.82545  24489132.636    24489148.424
       208.000         142.000
  23386465.138    12951146.05549  10096982.84745  23386465.637    23386478.574
       215.000         158.000
  22501866.519   -12931488.44549 -10044907.77046  22501866.052    22501876.590
       226.000         177.000
  24368304.274     -323345.81649   -212945.33545  24368304.014    24368317.029
       208.000         145.000
  22715951.308   -10969792.55649  -8531023.38146  22715950.814    22715961.491
       226.000         176.000
 99 10  4 16 52 30.0000000  0 10G29G23G15G21G 3G25G17G 8G 9G31
  20215264.737   -11203590.58449  -8713816.95948  20215264.643    20215271.761
       244.000         216.000
  22888357.434     9536769.17749   7435099.87446  22888357.350    22888367.389
       226.000         177.000
  23962161.828    -7760898.57249  -6013561.05245  23962162.430    23962173.326
       205.000         140.000
  21041523.097    -3929503.51649  -3046355.27647  21041522.907    21041531.099
       242.000         206.000
  22207929.625     -630269.02449   -471702.39146  22207929.680    22207940.205
       232.000         187.000
  24470575.267    -8443853.43549  -6550766.45645  24470574.314    24470589.160
       210.000         143.000
  23404534.329    13046099.17649  10170972.06445  23404534.698    23404548.581
       215.000         159.000
  22499805.796   -12942317.62149 -10053346.13346  22499804.919    22499815.981
       225.000         177.000
  24379762.738     -263131.26749   -166024.95345  24379762.801    24379775.355
       209.000         145.000
  22715865.578   -10970243.43649  -8531374.75846  22715864.954    22715874.421
       227.000         176.000
 99 10  4 16 53  0.0000000  0 10G29G23G15G21G 3G25G17G 8G 9G31
  20216727.200   -11195905.31549  -8707828.45448  20216727.271    20216734.189
       244.000         216.000
  22897842.197     9586611.71249   7473938.13046  22897842.124    22897852.654
       227.000         177.000
  23942457.158    -7864447.14049  -6094248.22645  23942456.472    23942468.581
       207.000         141.000
  21041672.186    -3928720.22949  -3045744.94147  21041672.293    21041680.396
       242.000         206.000
  22219052.250     -571819.66449   -426157.53246  22219052.220    22219062.487
       232.000         187.000
  24452006.672    -8541430.80549  -6626800.59045  24452006.488    24452019.853
       206.000         142.000
  23422657.811    13141337.67349  10245183.65045  23422658.051    23422672.205
       216.000         160.000
  22497846.499   -12952613.95749 -10061369.28646  22497845.865    22497856.646
       226.000         177.000
  24391310.487     -202447.08649   -118738.63545  24391310.957    24391323.499
       210.000         145.000
  22715886.873   -10970131.59949  -8531287.64846  22715887.169    22715895.974
       228.000         176.000
 99 10  4 16 53 30.0000000  0 10G29G23G15G21G 3G25G17G 8G 9G31
  20218268.544   -11187805.44549  -8701516.88248  20218268.534    20218275.770
       244.000         215.000
  22907339.894     9636522.02549   7512829.20246  22907339.609    22907349.953
       227.000         177.000
  23922756.474    -7967975.57449  -6174919.73345  23922755.461    23922767.773
       211.000         142.000
  21041843.279    -3927821.43449  -3045044.59747  21041842.935    21041851.337
       242.000         207.000
  22230246.886     -512991.87349   -380317.78846  22230246.650    22230256.982
       231.000         187.000
  24433428.204    -8639059.65549  -6702874.82945  24433427.630    24433442.597
       206.000         142.000
  23440831.560    13236839.82149  10319600.67845  23440831.650    23440844.960
       216.000         160.000
  22495984.971   -12962396.71849 -10068992.24146  22495984.574    22495995.149
       226.000         177.000
  24402946.161     -141301.62649    -71092.84545  24402946.742    24402958.542
       208.000         145.000
  22716010.865   -10969480.29349  -8530780.16446  22716010.683    22716020.892
       227.000         176.000
 99 10  4 16 54  0.0000000  0 10G29G23G15G21G 3G25G17G 8G 9G31
  20219885.710   -11179307.37049  -8694895.01848  20219885.644    20219892.700
       244.000         215.000
  22916847.444     9686483.89049   7551760.44646  22916848.006    22916857.585
       227.000         177.000
  23903059.284    -8071485.44749  -6255576.75945  23903058.767    23903070.405
       210.000         144.000
  21042036.712    -3926805.15649  -3044252.71147  21042036.241    21042044.758
       241.000         207.000
  22241513.397     -453786.56749   -334183.87846  22241513.271    22241523.399
       231.000         187.000
  24414838.595    -8736747.52549  -6778995.08945  24414838.549    24414853.304
       210.000         143.000
  23459054.064    13332598.64349  10394217.71745  23459054.325    23459068.641
       216.000         160.000
  22494224.224   -12971649.30849 -10076202.06446  22494224.073    22494234.471
       226.000         177.000
  24414670.675      -79689.45949    -23083.36945  24414671.145    24414683.076
       207.000         144.000
  22716235.534   -10968299.58649  -8529860.16446  22716234.868    22716244.713
       226.000         175.000
 99 10  4 16 54 30.0000000  0 10G29G23G15G21G 3G25G17G 8G 9G31
  20221579.554   -11170406.01249  -8687958.91548  20221579.802    20221586.723
       244.000         215.000
  22926362.130     9736483.20749   7590720.87246  22926362.130    22926371.915
       226.000         176.000
  23883364.569    -8174982.07549  -6336223.44845  23883363.871    23883375.484
       211.000         144.000
  21042255.772    -3925654.00349  -3043355.72847  21042255.390    21042264.023
       241.000         207.000
  22252845.862     -394234.30249   -287779.61946  22252845.995    22252855.995
       231.000         186.000
  24396236.312    -8834502.50249  -6855167.66545  24396236.547    24396250.190
       211.000         145.000
  23477323.548    13428604.12449  10469026.94345  23477323.827    23477337.239
       217.000         159.000
  22492564.100   -12980373.27249 -10082999.97146  22492563.642    22492574.486
       226.000         177.000
  24426482.281      -17618.92749     25283.26345  24426482.638    24426495.525
       207.000         143.000
  22716561.237   -10966587.99349  -8528526.48346  22716561.162    22716570.862
       226.000         175.000
 99 10  4 16 55  0.0000000  0 10G29G23G15G21G 3G25G17G 8G 9G31
  20223353.539   -11161083.65949  -8680694.75648  20223353.554    20223360.625
       244.000         215.000
  22935884.663     9786524.08249   7629713.68546  22935884.198    22935894.861
       225.000         176.000
  23863673.660    -8278458.59449  -6416854.46645  23863672.813    23863684.226
       211.000         143.000
  21042503.721    -3924351.11349  -3042340.50747  21042503.348    21042511.779
       242.000         206.000
  22264243.834     -334338.14949   -241107.38746  22264243.565    22264253.640
       231.000         185.000
  24377622.355    -8932318.93449  -6931388.13245  24377621.474    24377636.061
       210.000         145.000
  23495639.558    13524854.30249  10544026.84345  23495639.467    23495653.502
       215.000         158.000
  22491009.428   -12988543.22549 -10089366.16046  22491009.308    22491019.270
       227.000         177.000
  24438381.961       44914.08849     74010.29145  24438381.970    24438394.986
       209.000         142.000
  22716985.936   -10964356.38249  -8526787.59846  22716985.698    22716995.299
       227.000         175.000
 99 10  4 16 55 30.0000000  0 10G29G23G15G21G 3G25G17G 8G 9G31
  20225213.224   -11151311.09649  -8673079.79448  20225213.226    20225220.317
       244.000         215.000
  22945414.703     9836604.77849   7668737.52346  22945414.090    22945424.355
       224.000         175.000
  23843988.611    -8381903.79549  -6497461.07445  23843987.361    23843999.083
       212.000         144.000
  21042781.195    -3922893.21649  -3041204.50747  21042780.896    21042789.277
       242.000         206.000
  22275711.471     -274075.58949   -194149.64546  22275711.526    22275721.916
       230.000         185.000
  24358994.796    -9030207.35449  -7007664.69945  24358995.039    24359008.725
       211.000         145.000
  23514002.342    13621350.86049  10619218.72645  23514001.426    23514016.984
       215.000         157.000
  22489567.677   -12996120.03749 -10095270.16346  22489566.917    22489577.735
       228.000         177.000
  24450373.498      107930.04549    123113.63245  24450372.439    24450387.344
       208.000         143.000
  22717509.979   -10961603.11549  -8524642.24046  22717510.245    22717519.255
       227.000         175.000
 99 10  4 16 56  0.0000000  0 10G29G23G15G21G 3G25G17G 8G 9G31
  20227160.068   -11141080.39549  -8665107.83548  20227159.929    20227167.125
       244.000         215.000
  22954953.746     9886732.67849   7707798.15046  22954953.816    22954964.153
       225.000         175.000
  23824310.793    -8485311.10549  -6578038.16045  23824309.254    23824321.825
       211.000         144.000
  21043088.488    -3921278.55249  -3039946.34747  21043088.213    21043096.680
       242.000         206.000
  22287249.914     -213440.77549   -146901.84246  22287249.968    22287260.593
       229.000         185.000
  24340355.334    -9128158.43849  -7083990.10245  24340355.353    24340369.325
       211.000         146.000
  23532412.725    13718097.67949  10694605.61345  23532412.460    23532426.694
       213.000         156.000
  22488241.239   -13003091.00849 -10100702.06946  22488240.575    22488250.868
       227.000         178.000
  24462455.957      171422.98649    172588.63845  24462455.784    24462468.618
       210.000         144.000
  22718134.781   -10958320.12549  -8522084.09546  22718134.383    22718144.653
       226.000         176.000
 99 10  4 16 56 30.0000000  0 10G29G23G15G21G 3G25G17G 8G 9G31
  20229196.984   -11130376.41849  -8656767.09548  20229197.108    20229204.004
       244.000         215.000
  22964505.971     9936929.55149   7746912.50746  22964505.983    22964516.388
       225.000         175.000
  23804642.396    -8588668.92749  -6658576.69545  23804641.370    23804653.170
       211.000         144.000
  21043425.991    -3919505.07749  -3038564.44547  21043425.720    21043434.131
       242.000         206.000
  22298860.910     -152424.74949    -99356.99146  22298861.350    22298871.591
       230.000         185.000
  24321708.326    -9226148.79749  -7160346.11945  24321708.472    24321722.002
       212.000         145.000
  23550872.237    13815102.26549  10770193.35245  23550871.491    23550886.812
       214.000         155.000
  22487027.081   -13009472.00849 -10105674.25446  22487026.625    22487037.167
       228.000         178.000
  24474626.991      235381.09349    222426.12145  24474627.298    24474638.479
       210.000         146.000
  22718860.861   -10954505.11049  -8519111.40046  22718859.971    22718870.059
       225.000         176.000
 99 10  4 16 57  0.0000000  0 10G29G23G15G21G 3G25G17G 8G 9G31
  20231323.414   -11119202.09949  -8648059.85148  20231323.476    20231330.597
       244.000         215.000
  22974072.714     9987202.66849   7786086.28546  22974073.140    22974082.458
       224.000         174.000
  23784985.276    -8691967.33149  -6739068.91045  23784984.008    23784995.317
       213.000         144.000
  21043792.003    -3917581.75949  -3037065.77547  21043791.856    21043799.889
       242.000         206.000
  22310548.640      -91005.58049    -51497.99446  22310548.878    22310558.941
       231.000         185.000
  24303055.540    -9324169.18549  -7236725.53745  24303054.785    24303069.346
       210.000         145.000
  23569383.834    13912380.52649  10845994.35845  23569383.825    23569397.620
       212.000         153.000
  22485924.556   -13015265.90349 -10110188.94046  22485923.599    22485933.786
       226.000         177.000
  24486886.180      299803.47949    272625.37745  24486885.392    24486898.613
       210.000         146.000
  22719688.001   -10950158.09849  -8515724.15046  22719688.117    22719698.123
       226.000         176.000
 99 10  4 16 57 30.0000000  0 10G29G23G15G21G 3G25G17G 8G 9G31
  20233536.817   -11107570.68149  -8638996.42848  20233536.724    20233543.880
       245.000         215.000
  22983655.126    10037558.14349   7825324.22346  22983655.227    22983665.351
       224.000         174.000
  23765339.956    -8795203.98749  -6819513.01645  23765339.508    23765350.986
       213.000         147.000
  21044185.291    -3915515.14149  -3035455.44847  21044185.034    21044193.231
       242.000         206.000
  22322313.101      -29183.80449     -3325.27846  22322313.634    22322322.974
       231.000         185.000
  24284397.593    -9422217.45749  -7313126.67745  24284397.741    24284412.084
       211.000         144.000
  23587947.358    14009931.81949  10922008.11145  23587947.274    23587961.822
       213.000         153.000
  22484931.813   -13020482.25949 -10114253.59746  22484931.466    22484941.798
       227.000         177.000
  24499231.041      364676.47249    323175.73345  24499231.175    24499243.602
       210.000         146.000
  22720618.620   -10945267.72149  -8511913.51846  22720617.774    22720628.113
       226.000         176.000
 99 10  4 16 58  0.0000000  0 10G29G23G15G21G 3G25G17G 8G 9G31
  20235834.505   -11095496.14849  -8629587.71848  20235834.393    20235841.567
       244.000         215.000
  22993253.627    10087998.64149   7864628.42146  22993253.892    22993263.943
       225.000         174.000
  23745706.164    -8898379.86049  -6899909.75445  23745704.931    23745717.440
       213.000         149.000
  21044605.902    -3913305.02849  -3033733.30647  21044605.583    21044614.117
       241.000         206.000
  22334150.161       33019.87749     45145.01846  22334149.710    22334160.543
       229.000         185.000
  24265735.013    -9520289.59949  -7389546.41345  24265735.151    24265747.949
       212.000         145.000
  23606561.283    14107747.48849  10998227.85945  23606562.287    23606576.104
       212.000         152.000
  22484047.079   -13025131.57249 -10117876.39946  22484047.048    22484056.643
       227.000         178.000
  24511657.115      429975.33149    374057.94645  24511657.213    24511669.461
       210.000         146.000
  22721654.031   -10939826.73449  -8507673.81946  22721654.306    22721663.620
       225.000         175.000
 99 10  4 16 58 30.0000000  0  9G29G23G15G21G 3G25G17G 8G31
  20238216.223   -11082980.09149  -8619834.96248  20238216.154    20238223.290
       244.000         215.000
  23002864.644    10138504.70449   7903983.71246  23002863.769    23002876.134
       224.000         173.000
  23726083.209    -9001498.95249  -6980262.26945  23726082.435    23726093.758
       214.000         149.000
  21045051.312    -3910964.45249  -3031909.50147  21045051.014    21045059.366
       242.000         206.000
  22346058.576       95598.73749     93907.65746  22346059.175    22346069.278
       231.000         184.000
  24247067.046    -9618389.91549  -7465988.07245  24247066.295    24247080.499
       213.000         145.000
  23625225.823    14205829.11449  11074654.85845  23625225.537    23625239.814
       212.000         152.000
  22483269.678   -13029217.31249 -10121060.04646  22483269.596    22483279.300
       227.000         178.000
  22722793.002   -10933841.43949  -8503010.00746  22722793.038    22722802.940
       225.000         175.000
 99 10  4 16 59  0.0000000  0  9G29G23G15G21G 3G25G17G 8G31
  20240679.806   -11070034.00749  -8609747.11948  20240679.879    20240686.965
       245.000         215.000
  23012485.258    10189060.88149   7943378.04046  23012484.469    23012495.651
       224.000         173.000
  23706469.698    -9104568.60149  -7060576.25945  23706469.383    23706481.118
       214.000         148.000
  21045520.601    -3908498.19749  -3029987.76747  21045520.279    21045528.878
       241.000         206.000
  22358035.133      158535.25449    142948.99846  22358035.014    22358045.794
       230.000         184.000
  24228392.849    -9716523.23349  -7542455.44745  24228392.103    24228406.279
       212.000         145.000
  23643938.586    14304164.49349  11151279.56745  23643938.792    23643953.456
       213.000         152.000
  22482600.980   -13032731.39149 -10123798.24046  22482600.100    22482611.028
       228.000         178.000
  22724037.082   -10927303.78649  -8497915.76746  22724036.637    22724046.203
       225.000         176.000
 99 10  4 16 59 30.0000000  0  9G29G23G15G21G 3G25G17G 8G31
  20243225.518   -11056656.45949  -8599323.07248  20243225.567    20243232.740
       245.000         215.000
  23022114.515    10239662.41949   7982807.70746  23022114.552    23022124.860
       224.000         173.000
  23686865.258    -9207589.92649  -7140852.57945  23686865.085    23686876.660
       210.000         146.000
  21046012.540    -3905913.31049  -3027973.59947  21046012.299    21046020.743
       242.000         206.000
  22370076.533      221812.97649    192256.20646  22370076.958    22370087.052
       229.000         184.000
  24209712.927    -9814686.06249  -7618945.78045  24209711.585    24209726.178
       214.000         145.000
  23662696.069    14402734.52849  11228087.12145  23662696.296    23662710.931
       212.000         152.000
  22482042.076   -13035668.15649 -10126086.59546  22482041.976    22482051.518
       228.000         178.000
  22725387.332   -10920208.59549  -8492387.09946  22725387.262    22725397.167
       226.000         176.000
 99 10  4 17  0  0.0000000  0  9G29G23G15G21G 3G25G17G 8G31
  20245856.053   -11042833.14249  -8588551.67148  20245856.036    20245863.138
       245.000         216.000
  23031751.276    10290303.73649   8022268.37846  23031751.560    23031762.294
       224.000         173.000
  23667271.243    -9310556.45849  -7221086.21245  23667269.810    23667282.094
       210.000         144.000
  21046525.853    -3903216.23949  -3025872.00747  21046525.484    21046533.704
       242.000         206.000
  22382183.030      285432.66949    241829.88946  22382183.537    22382193.458
       230.000         183.000
  24191029.826    -9912866.19249  -7695449.58845  24191029.779    24191043.633
       213.000         145.000
  23681498.595    14501540.80549  11305078.77445  23681499.309    23681513.612
       214.000         152.000
  22481592.868   -13038028.77049 -10127925.99646  22481592.198    22481602.727
       226.000         178.000
  22726844.430   -10912551.92549  -8486420.90946  22726844.373    22726854.296
       225.000         176.000
 99 10  4 17  0 30.0000000  0  9G29G23G15G21G 3G25G17G 8G31
  20248572.147   -11028560.13549  -8577429.85848  20248572.245    20248579.209
       245.000         216.000
  23041396.670    10340990.21849   8061764.23646  23041396.123    23041406.940
       225.000         172.000
  23647689.227    -9413459.89949  -7301270.66945  23647688.506    23647700.140
       209.000         144.000
  21047061.356    -3900402.20249  -3023679.26947  21047061.093    21047069.441
       242.000         206.000
  22394355.469      349398.71449    291673.45746  22394355.200    22394365.755
       228.000         183.000
  24172346.487   -10011047.16449  -7771954.00545  24172345.513    24172359.295
       212.000         145.000
  23700346.645    14600586.90549  11382257.28945  23700346.601    23700360.918
       214.000         152.000
  22481252.043   -13039819.59449 -10129321.39946  22481250.944    22481261.557
       227.000         178.000
  22728408.945   -10904330.28149  -8480014.47746  22728408.570    22728419.148
       226.000         175.000
 99 10  4 17  1  0.0000000  0  9G29G23G15G21G 3G25G17G 8G31
  20251370.825   -11013853.28449  -8565969.98548  20251370.898    20251377.929
       245.000         216.000
  23051054.360    10391741.24149   8101310.38046  23051053.638    23051064.930
       224.000         172.000
  23628119.539    -9516298.92449  -7381404.94445  23628118.744    23628130.649
       210.000         143.000
  21047621.319    -3897459.57549  -3021386.33947  21047621.075    21047629.349
       242.000         206.000
  22406592.101      413702.56849    341780.25246  22406591.919    22406602.672
       228.000         183.000
  24153662.368   -10109232.22849  -7848461.58745  24153662.417    24153675.094
       214.000         147.000
  23719236.585    14699853.53649  11459607.65745  23719237.004    23719251.672
       214.000         152.000
  22481020.169   -13041037.83549 -10130270.63446  22481019.564    22481029.841
       227.000         178.000
  22730082.024   -10895538.19749  -8473163.55246  22730081.652    22730091.046
       225.000         175.000
 99 10  4 17  1 30.0000000  0  9G29G23G15G21G 3G25G17G 8G31
  20254251.468   -10998715.57449  -8554174.37548  20254251.573    20254258.585
       245.000         216.000
  23060723.505    10442552.66149   8140903.58946  23060723.473    23060734.426
       223.000         172.000
  23608562.277    -9619072.88749  -7461488.49645  23608561.393    23608573.257
       210.000         145.000
  21048206.442    -3894384.91649  -3018990.52547  21048206.060    21048214.776
       242.000         207.000
  22418894.103      478349.68849    392154.51446  22418893.873    22418904.742
       228.000         183.000
  24134976.794   -10207424.98349  -7924975.16545  24134976.174    24134990.158
       213.000         147.000
  23738168.393    14799339.63049  11537129.04645  23738168.688    23738181.818
       211.000         151.000
  22480898.253   -13041678.28449 -10130769.64446  22480898.088    22480907.788
       227.000         178.000
  22731858.726   -10886201.82249  -8465888.51346  22731858.702    22731868.296
       226.000         175.000
 99 10  4 17  2  0.0000000  0  9G29G23G15G21G 3G25G17G 8G31
  20257211.819   -10983158.95349  -8542052.33748  20257211.904    20257218.697
       245.000         216.000
  23070402.933    10493418.58049   8180539.25846  23070402.393    23070413.505
       224.000         172.000
  23589018.381    -9721777.05849  -7541517.65545  23589017.833    23589029.825
       210.000         146.000
  21048818.798    -3891167.03849  -3016483.10647  21048818.446    21048827.021
       242.000         207.000
  22431261.453      543339.73749    442796.00146  22431261.841    22431271.993
       229.000         183.000
  24116290.631   -10305620.69949  -8001491.05145  24116290.050    24116303.105
       212.000         147.000
  23757144.175    14899057.13649  11614830.73245  23757144.561    23757159.608
       211.000         150.000
  22480884.224   -13041751.77749 -10130826.86946  22480883.428    22480893.452
       227.000         177.000
  22733738.054   -10876326.32249  -8458193.37446  22733737.651    22733746.934
       226.000         175.000
 99 10  4 17  2 30.0000000  0  9G29G23G15G21G 3G25G17G 8G31
  20260249.596   -10967195.40649  -8529613.21948  20260249.521    20260256.637
       245.000         216.000
  23080093.008    10544339.72449   8220217.96546  23080093.184    23080103.038
       224.000         172.000
  23569487.575    -9824412.27049  -7621493.08145  23569486.834    23569499.103
       209.000         148.000
  21049459.939    -3887797.78749  -3013857.74247  21049459.762    21049468.056
       242.000         207.000
  22443693.880      608671.93149    493704.09746  22443693.904    22443704.129
       229.000         183.000
  24097602.126   -10403828.29749  -8078016.19045  24097601.648    24097615.305
       212.000         147.000
  23776163.782    14999004.70549  11692711.70045  23776163.904    23776178.523
       211.000         150.000
  22480978.439   -13041256.18649 -10130440.66846  22480977.713    22480987.997
       226.000         177.000
  22735717.374   -10865925.01249  -8450088.51446  22735717.570    22735727.385
       226.000         175.000
 99 10  4 17  3  0.0000000  0  9G29G23G15G21G 3G25G17G 8G31
  20263365.696   -10950820.37049  -8516853.45748  20263365.684    20263372.846
       245.000         216.000
  23089792.179    10595308.30049   8259933.62246  23089792.189    23089803.033
       225.000         171.000
  23549969.722    -9926979.52349  -7701415.54145  23549969.206    23549981.040
       210.000         149.000
  21050129.690    -3884278.36349  -3011115.36247  21050129.529    21050137.853
       242.000         207.000
  22456192.450      674351.64049    544882.97746  22456192.581    22456203.408
       229.000         183.000
  24078908.731   -10502061.76049  -8154561.45545  24078908.299    24078921.904
       213.000         150.000
  23795229.307    15099193.71549  11770780.79145  23795230.225    23795244.205
       213.000         150.000
  22481182.255   -13040184.71849 -10129605.73846  22481182.441    22481192.663
       226.000         177.000
  22737793.510   -10855014.90249  -8441587.20046  22737793.153    22737803.345
       226.000         176.000
 99 10  4 17  3 30.0000000  0  9G29G23G15G21G 3G25G17G 8G31
  20266561.638   -10934025.69449  -8503766.69848  20266561.681    20266568.719
       245.000         216.000
  23099499.743    10646321.18849   8299683.81646  23099500.159    23099510.350
       224.000         172.000
  23530466.433   -10029469.98349  -7781278.15545  23530465.548    23530477.858
       209.000         150.000
  21050827.214    -3880613.06449  -3008259.30347  21050826.966    21050835.450
       242.000         207.000
  22468757.915      740382.92849    596335.82546  22468758.082    22468768.212
       228.000         182.000
  24060211.632   -10600315.31249  -8231122.38345  24060211.622    24060225.476
       213.000         151.000
  23814347.041    15199656.43249  11849063.17845  23814347.420    23814361.821
       212.000         151.000
  22481494.430   -13038544.20949 -10128327.39746  22481493.476    22481504.875
       226.000         177.000
  22739966.763   -10843594.63849  -8432688.36246  22739966.679    22739976.116
       225.000         175.000
 99 10  4 17  4  0.0000000  0  9G29G23G15G21G 3G25G17G 8G31
  20269836.497   -10916816.32849  -8490356.80648  20269836.464    20269843.308
       245.000         216.000
  23109217.785    10697389.46449   8339477.16746  23109217.662    23109228.364
       224.000         172.000
  23510978.116   -10131881.37749  -7861079.16645  23510977.389    23510990.175
       211.000         151.000
  21051552.574    -3876801.63049  -3005289.37547  21051552.074    21051560.642
       242.000         207.000
  22481387.257      806750.21849    648050.48846  22481387.050    22481397.747
       229.000         182.000
  24041510.021   -10698591.98649  -8307701.34145  24041508.680    24041522.005
       211.000         150.000
  23833516.446    15300391.44349  11927557.73845  23833516.960    23833532.258
       213.000         151.000
  22481911.758   -13036351.17349 -10126618.52846  22481911.447    22481921.283
       227.000         178.000
  22742240.645   -10831645.67249  -8423377.54146  22742240.155    22742250.295
       226.000         176.000
 99 10  4 17  4 30.0000000  0  9G29G23G15G21G 3G25G17G 8G31
  20273193.273   -10899176.30649  -8476611.34048  20273193.150    20273200.378
       245.000         216.000
  23118949.936    10748531.76849   8379328.20646  23118949.494    23118960.956
       224.000         172.000
  23491504.359   -10234216.75149  -7940820.94645  23491503.201    23491515.636
       212.000         152.000
  21052305.410    -3872845.58449  -3002206.76447  21052304.823    21052313.513
       242.000         207.000
  22494079.010      873445.30549    700020.57846  22494079.183    22494089.332
       228.000         182.000
  24022803.432   -10796895.04449  -8384300.86945  24022802.230    24022815.858
       212.000         150.000
  23852736.152    15401390.48549  12006258.05545  23852737.164    23852751.575
       213.000         151.000
  22482436.913   -13033591.46149 -10124468.09146  22482436.203    22482446.607
       227.000         178.000
  22744612.416   -10819182.30549  -8413665.88946  22744611.843    22744621.515
       226.000         176.000
 99 10  4 17  5  0.0000000  0  9G29G23G15G21G 3G25G17G 8G31
  20276632.641   -10881102.17049  -8462527.60248  20276632.669    20276639.575
       245.000         215.000
  23128697.784    10799756.26449   8419243.28546  23128697.636    23128707.934
       224.000         172.000
  23472046.010   -10336470.84449  -8020499.37945  23472045.441    23472057.760
       209.000         152.000
  21053086.877    -3868738.93849  -2999006.80747  21053086.531    21053095.046
       242.000         207.000
  22506832.559      940465.29549    752243.84146  22506832.414    22506843.495
       229.000         181.000
  24004095.158   -10895206.19149  -8460906.69245  24004093.742    24004107.509
       210.000         151.000
  23872005.811    15502652.79949  12085163.52145  23872005.155    23872021.981
       210.000         150.000
  22483071.049   -13030259.14049 -10121871.47846  22483070.984    22483080.465
       226.000         178.000
  22747083.732   -10806195.83049  -8403546.63046  22747083.692    22747093.385
       227.000         176.000
 99 10  4 17  5 30.0000000  0  9G29G23G15G21G 3G25G17G 8G31
  20280150.859   -10862614.09649  -8448121.31848  20280150.704    20280157.815
       245.000         215.000
  23138460.855    10851060.98749   8459220.87846  23138460.857    23138471.854
       224.000         171.000
  23452603.832   -10438639.85049  -8100111.50145  23452602.701    23452614.961
       212.000         153.000
  21053897.037    -3864481.63049  -2995689.44847  21053896.631    21053905.139
       243.000         207.000
  22519648.552     1007813.19949    804722.62346  22519648.602    22519659.341
       228.000         181.000
  23985389.509   -10993503.33949  -8537501.61045  23985388.521    23985402.074
       212.000         152.000
  23891322.472    15604161.62149  12164261.06645  23891322.582    23891337.272
       210.000         150.000
  22483813.889   -13026355.50649 -10118829.69146  22483813.030    22483823.720
       227.000         178.000
  22749656.667   -10792675.55449  -8393011.42246  22749656.511    22749666.157
       226.000         176.000
 99 10  4 17  6  0.0000000  0  9G29G23G15G21G 3G25G17G 8G31
  20283747.568   -10843713.15349  -8433393.31348  20283747.614    20283754.554
       245.000         215.000
  23148237.003    10902434.65649   8499252.19146  23148236.070    23148247.694
       223.000         171.000
  23433176.802   -10540729.51549  -8179661.79645  23433175.580    23433188.416
       214.000         156.000
  21054733.909    -3860084.14249  -2992262.85547  21054733.561    21054742.001
       243.000         207.000
  22532526.606     1075487.37949    857455.65746  22532526.996    22532537.110
       229.000         180.000
  23966687.452   -11091782.21749  -8614082.31545  23966686.718    23966700.083
       213.000         153.000
  23910679.242    15705881.15849  12243522.80845  23910679.131    23910695.393
       209.000         150.000
  22484665.894   -13021878.21849 -10115340.89346  22484665.250    22484676.113
       228.000         178.000
  22752329.638   -10778629.62649  -8382066.60646  22752329.010    22752338.671
       226.000         176.000
 99 10  4 17  6 30.0000000  0  9G29G23G15G21G 3G25G17G 8G31
  20287423.311   -10824397.04149  -8418341.80648  20287423.399    20287430.280
       244.000         215.000
  23158025.639    10953874.16949   8539334.81246  23158025.403    23158036.219
       222.000         170.000
  23413765.032   -10642738.63849  -8259149.34045  23413764.048    23413775.682
       216.000         156.000
  21055595.096    -3855558.82649  -2988736.65847  21055594.895    21055603.024
       242.000         207.000
  22545469.017     1143499.87749    910452.30646  22545468.017    22545479.089
       229.000         180.000
  23947990.771   -11190032.65149  -8690640.86545  23947990.281    23948003.023
       211.000         153.000
  23930074.912    15807805.27849  12322943.98245  23930075.074    23930090.268
       210.000         150.000
  22485630.566   -13016808.88849 -10111390.78546  22485629.892    22485639.997
       226.000         177.000
  22755101.763   -10764062.06449  -8370715.33546  22755101.911    22755111.788
       227.000         176.000
 99 10  4 17  7  0.0000000  0  9G29G23G15G21G 3G25G17G 8G31
  20291174.673   -10804683.64149  -8402980.72648  20291174.732    20291181.762
       245.000         215.000
  23167823.428    11005361.49149   8579454.68346  23167823.070    23167834.179
       222.000         170.000
  23394369.122   -10744664.45749  -8338571.97445  23394369.185    23394379.494
       219.000         156.000
  21056478.155    -3850918.40649  -2985120.76747  21056477.634    21056486.223
       242.000         206.000
  22558476.237     1211853.11449    963714.45946  22558476.012    22558486.716
       229.000         180.000
  23929300.647   -11288248.23249  -8767172.26245  23929300.560    23929313.069
       215.000         154.000
  23949508.490    15909928.40549  12402520.22845  23949508.850    23949524.316
       212.000         151.000
  22486706.986   -13011152.36249 -10106983.11546  22486706.327    22486716.492
       226.000         177.000
  22757977.885   -10748948.17449  -8358938.35746  22757978.180    22757987.744
       226.000         177.000
 99 10  4 17  7 30.0000000  0  9G29G23G15G21G 3G25G17G 8G31
  20295002.419   -10784568.93049  -8387306.93448  20295002.632    20295009.507
       245.000         215.000
  23177627.973    11056884.32149   8619602.22546  23177628.022    23177638.710
       224.000         170.000
  23374988.353   -10846511.67149  -8417933.38245  23374987.633    23374999.056
       220.000         156.000
  21057381.554    -3846171.06649  -2981421.55747  21057381.028    21057389.816
       242.000         206.000
  22571544.094     1280524.70649   1017224.69746  22571544.175    22571554.914
       228.000         179.000
  23910614.448   -11386443.92249  -8843688.17145  23910613.986    23910626.909
       213.000         154.000
  23968977.905    16012239.58249  12482243.01345  23968978.392    23968993.408
       211.000         150.000
  22487894.029   -13004914.44549 -10102122.40346  22487892.576    22487903.807
       226.000         177.000
  22760956.980   -10733293.25849  -8346739.78846  22760956.618    22760966.954
       227.000         177.000
 99 10  4 17  8  0.0000000  0  9G29G23G15G21G 3G25G17G 8G31
  20298912.206   -10764022.97749  -8371297.11848  20298912.166    20298919.005
       245.000         215.000
  23187442.312    11108458.60249   8659789.84746  23187441.818    23187452.829
       223.000         170.000
  23355623.665   -10948274.29449  -8497228.85945  23355622.659    23355634.167
       221.000         157.000
  21058307.954    -3841302.99349  -2977628.27947  21058307.567    21058315.905
       242.000         206.000
  22584666.699     1349483.75349   1070958.91446  22584667.260    22584677.029
       227.000         178.000
  23891931.216   -11484623.46349  -8920191.50945  23891930.771    23891944.446
       213.000         155.000
  23988483.273    16114739.88049  12562113.15845  23988483.249    23988499.558
       210.000         148.000
  22489194.957   -12998078.03149 -10096795.33546  22489194.365    22489204.770
       226.000         176.000
  22764036.945   -10717108.39249  -8334128.29346  22764036.865    22764046.484
       226.000         177.000
 99 10  4 17  8 30.0000000  0  9G29G23G15G21G 3G25G17G 8G31
  20302905.308   -10743039.13249  -8354946.08948  20302905.251    20302912.402
       245.000         215.000
  23197269.360    11160099.13949   8700029.10846  23197269.345    23197279.937
       223.000         170.000
  23336277.001   -11049941.74649  -8576450.16645  23336276.422    23336287.558
       220.000         157.000
  21059263.107    -3836283.98649  -2973717.38047  21059262.796    21059271.038
       242.000         206.000
  22597841.898     1418719.72649   1124908.91746  22597841.340    22597852.172
       227.000         178.000
  23873251.972   -11582782.51349  -8996678.87645  23873252.111    23873265.099
       215.000         157.000
  24008029.827    16217456.98649  12642152.25645  24008030.047    24008044.659
       206.000         147.000
  22490611.437   -12990634.74949 -10090995.37946  22490611.004    22490621.012
       227.000         176.000
  22767217.739   -10700393.24849  -8321103.57846  22767217.873    22767228.289
       226.000         176.000
 99 10  4 17  9  0.0000000  0  9G29G23G15G21G 3G25G17G 8G31
  20306983.043   -10721610.56249  -8338248.52748  20306983.028    20306989.900
       245.000         215.000
  23207110.526    11211814.58849   8740326.73946  23207110.722    23207122.136
       223.000         170.000
  23316951.266   -11151498.54549  -8655585.24845  23316950.421    23316961.616
       221.000         156.000
  21060251.957    -3831087.61349  -2969668.27847  21060251.721    21060260.196
       242.000         206.000
  22611067.900     1488222.61949   1179066.91846  22611067.704    22611078.410
       227.000         178.000
  23854578.971   -11680909.13149  -9073140.98945  23854578.189    23854592.449
       213.000         158.000
  24027621.186    16320409.78349  12722374.99545  24027621.334    24027636.246
       208.000         146.000
  22492142.495   -12982588.99849 -10084725.96046  22492141.954    22492152.594
       227.000         177.000
  22770498.276   -10683153.92249  -8307670.42046  22770497.333    22770508.552
       226.000         176.000
 99 10  4 17  9 30.0000000  0  9G29G23G15G21G 3G25G17G 8G31
  20311146.441   -10699731.86249  -8321200.21048  20311146.456    20311153.287
       244.000         215.000
  23216970.664    11263629.48349   8780701.85146  23216969.846    23216982.027
       222.000         170.000
  23297648.601   -11252934.16449  -8734625.94045  23297647.744    23297659.336
       220.000         154.000
  21061278.281    -3825694.30549  -2965465.71147  21061277.881    21061286.300
       242.000         206.000
  22624345.807     1557997.72549   1233437.04046  22624346.081    22624355.671
       226.000         177.000
  23835912.007   -11779004.21449  -9149578.51945  23835911.672    23835924.749
       214.000         158.000
  24047260.520    16423614.29549  12802793.87945  24047260.408    24047277.231
       207.000         146.000
  22493789.633   -12973933.50049 -10077981.41746  22493789.104    22493799.961
       227.000         177.000
  22773873.465   -10665417.49949  -8293849.89846  22773873.086    22773882.858
       227.000         175.000
 99 10  4 17 10  0.0000000  0  9G29G23G15G21G 3G25G17G 8G31
  20315391.919   -10677421.85949  -8303815.81548  20315391.967    20315398.746
       245.000         215.000
  23226852.154    11315556.35249   8821164.23646  23226852.834    23226863.204
       224.000         170.000
  23278369.715   -11354244.77449  -8813569.18545  23278368.151    23278380.878
       217.000         153.000
  21062341.217    -3820108.50349  -2961113.15747  21062340.675    21062349.204
       242.000         206.000
  22637676.254     1628049.65349   1288022.86246  22637676.293    22637687.140
       227.000         177.000
  23817251.581   -11877064.98449  -9225989.33345  23817251.030    23817264.437
       216.000         159.000
  24066949.227    16527078.46649  12883415.09545  24066948.978    24066964.653
       210.000         145.000
  22495553.105   -12964666.39249 -10070760.30046  22495551.764    22495562.306
       227.000         177.000
  22777342.278   -10647189.09149  -8279646.02746  22777342.764    22777351.572
       227.000         175.000
 99 10  4 17 10 30.0000000  0  9G29G23G15G21G 3G25G17G 8G31
  20319713.635   -10654711.19549  -8286119.21948  20319713.685    20319720.480
       245.000         215.000
  23236752.892    11367584.71449   8861705.68446  23236752.521    23236763.785
       222.000         170.000
  23259113.365   -11455436.35449  -8892419.67845  23259112.422    23259124.130
       216.000         151.000
  21063436.296    -3814353.83049  -2956629.01647  21063435.907    21063444.319
       241.000         206.000
  22651062.621     1698394.88249   1342837.23346  22651062.925    22651073.753
       226.000         178.000
  23798595.703   -11975101.50349  -9302381.23345  23798594.436    23798608.616
       214.000         159.000
  24086686.157    16630796.35749  12964234.01445  24086686.684    24086702.738
       211.000         146.000
  22497427.885   -12954814.19749 -10063083.27046  22497426.995    22497436.729
       225.000         176.000
  22780906.158   -10628460.96349  -8265052.75046  22780906.427    22780916.166
       226.000         175.000
 99 10  4 17 11  0.0000000  0  9G29G23G15G21G 3G25G17G 8G31
  20324110.305   -10631606.50049  -8268115.58848  20324110.381    20324117.368
       245.000         215.000
  23246674.686    11419723.71649   8902333.34346  23246674.182    23246686.424
       222.000         169.000
  23239880.764   -11556503.40549  -8971173.16245  23239879.686    23239891.178
       214.000         149.000
  21064560.680    -3808445.10849  -2952024.83847  21064560.278    21064568.787
       242.000         206.000
  22664507.393     1769047.44549   1397891.07746  22664506.758    22664517.991
       227.000         179.000
  23779946.072   -12073104.95549  -9378747.37445  23779945.846    23779958.232
       216.000         159.000
  24106468.948    16734754.42049  13045240.08045  24106469.269    24106485.687
       204.000         146.000
  22499415.597   -12944368.51249 -10054943.78046  22499415.219    22499425.207
       227.000         176.000
  22784568.695   -10609214.55449  -8250055.62546  22784568.332    22784578.767
       226.000         175.000
 99 10  4 17 11 30.0000000  0  9G29G23G15G21G 3G25G17G 8G31
  20328576.042   -10608138.85849  -8249829.13948  20328576.060    20328583.097
       244.000         215.000
  23256613.474    11471952.26349   8943030.78846  23256612.812    23256624.282
       222.000         168.000
  23220667.572   -11657468.80549  -9049847.43045  23220666.737    23220678.773
       214.000         149.000
  21065708.399    -3802413.45149  -2947324.86647  21065708.094    21065716.686
       242.000         206.000
  22678007.990     1839993.01349   1453173.24846  22678008.002    22678019.412
       226.000         178.000
  23761297.786   -12171101.46549  -9455108.10945  23761296.687    23761310.199
       218.000         159.000
  24126290.618    16838917.33849  13126405.77345  24126291.156    24126306.131
       207.000         147.000
  22501512.318   -12933350.38749 -10046358.22146  22501511.818    22501522.499
       225.000         176.000
  22788330.132   -10589448.19349  -8234653.33846  22788329.708    22788340.735
       225.000         175.000
 99 10  4 17 12  0.0000000  0  9G29G23G15G21G 3G25G17G 8G31
  20333108.050   -10584323.11549  -8231271.44448  20333108.112    20333115.316
       245.000         215.000
  23266562.216    11524232.82949   8983768.75446  23266561.545    23266574.202
       221.000         168.000
  23201471.143   -11758346.50249  -9128453.35045  23201470.756    23201481.665
       213.000         149.000
  21066875.651    -3796279.85049  -2942545.45947  21066875.486    21066883.981
       242.000         206.000
  22691561.801     1911218.08249   1508673.21246  22691561.229    22691572.569
       226.000         178.000
  23742651.976   -12269085.39749  -9531459.03445  23742651.604    23742664.831
       217.000         159.000
  24146145.611    16943255.15249  13207707.74945  24146144.522    24146163.187
       206.000         147.000
  22503713.582   -12921782.66249 -10037344.40646  22503712.504    22503723.407
       227.000         177.000
  22792193.056   -10569148.74449  -8218835.66846  22792193.193    22792203.233
       226.000         175.000
 99 10  4 17 12 30.0000000  0  9G29G23G15G21G 3G25G17G 8G31
  20337704.619   -10560167.98849  -8212449.29248  20337704.560    20337711.788
       245.000         215.000
  23276517.107    11576545.51449   9024531.74746  23276516.723    23276528.171
       222.000         168.000
  23182290.800   -11859139.66049  -9206993.40145  23182289.915    23182302.307
       212.000         149.000
  21068062.401    -3790043.70449  -2937686.14847  21068061.764    21068070.343
       242.000         206.000
  22705169.965     1982729.50549   1564396.30646  22705169.858    22705180.896
       226.000         178.000
  23724009.098   -12367054.24149  -9607798.20645  23724008.800    23724020.815
       219.000         158.000
  24166033.047    17047762.94249  13289142.14345  24166032.184    24166049.224
       205.000         147.000
  22506018.479   -12909670.28649 -10027906.19746  22506017.398    22506028.914
       226.000         176.000
  22796157.139   -10548317.75349  -8202603.79746  22796157.019    22796167.549
       226.000         175.000
 99 10  4 17 13  0.0000000  0  9G29G23G15G21G 3G25G17G 8G31
  20342364.762   -10535678.82349  -8193366.85548  20342364.714    20342371.933
       245.000         215.000
  23286476.105    11628879.59949   9065311.41446  23286476.188    23286487.513
       222.000         168.000
  23163126.374   -11959849.01149  -9285468.13845  23163125.382    23163137.604
       210.000         148.000
  21069269.428    -3783700.61649  -2932743.50747  21069269.029    21069277.810
       242.000         206.000
  22718830.324     2054515.00649   1620332.96546  22718830.801    22718841.801
       226.000         178.000
  23705370.924   -12464998.08149  -9684117.90145  23705369.834    23705383.190
       217.000         158.000
  24185952.459    17152438.53049  13370707.32645  24185952.583    24185967.970
       212.000         147.000
  22508428.060   -12897007.71449 -10018039.25446  22508427.940    22508437.623
       226.000         176.000
  22800220.756   -10526963.78549  -8185964.41246  22800220.406    22800230.828
       226.000         175.000
 99 10  4 17 13 30.0000000  0  9G29G23G15G21G 3G25G17G 8G31
  20347094.160   -10510825.62849  -8174000.75348  20347094.060    20347101.363
       244.000         214.000
  23296439.721    11681237.80249   9106109.86946  23296439.580    23296450.763
       222.000         168.000
  23143982.475   -12060450.74949  -9363859.03145  23143981.505    23143992.439
       213.000         149.000
  21070502.111    -3777222.97949  -2927696.02647  21070501.805    21070510.360
       242.000         206.000
  22732545.315     2126587.41549   1676493.19246  22732544.897    22732556.902
       226.000         179.000
  23686741.731   -12562894.61149  -9760400.70845  23686740.491    23686753.702
       216.000         159.000
  24205907.541    17257303.03649  13452419.68945  24205907.759    24205923.701
       214.000         146.000
  22510944.687   -12883782.56849 -10007733.96446  22510944.218    22510954.081
       226.000         176.000
  22804382.705   -10505093.32749  -8168922.56246  22804382.425    22804392.049
       225.000         175.000
 99 10  4 17 14  0.0000000  0  9G29G23G15G21G 3G25G17G 8G31
  20351892.789   -10485608.84249  -8154351.32748  20351892.778    20351899.976
       244.000         214.000
  23306405.338    11733607.36549   9146917.18546  23306405.101    23306416.895
       221.000         168.000
  23124857.119   -12160955.28549  -9442174.18545  23124856.935    23124867.733
       213.000         151.000
  21071758.466    -3770620.81849  -2922551.50247  21071758.145    21071766.710
       242.000         206.000
  22746311.013     2198926.14149   1732860.94846  22746311.156    22746321.706
       226.000         178.000
  23668121.538   -12660743.09649  -9836646.07245  23668120.141    23668133.568
       215.000         159.000
  24225896.656    17362345.65049  13534270.86145  24225895.791    24225911.117
       206.000         145.000
  22513567.051   -12870002.05549  -9996995.91646  22513567.162    22513576.766
       227.000         176.000
  22808635.424   -10482745.72049  -8151508.90346  22808635.220    22808645.262
       225.000         174.000
 99 10  4 17 14 30.0000000  0  9G29G23G15G21G 3G25G17G 8G31
  20356762.955   -10460015.95649  -8134408.84048  20356762.786    20356769.939
       245.000         214.000
  23316377.803    11786012.49449   9187752.20946  23316377.608    23316388.725
       222.000         167.000
  23105751.167   -12261357.22249  -9520409.35445  23105749.932    23105761.802
       212.000         152.000
  21073040.669    -3763883.01949  -2917301.29447  21073040.298    21073048.816
       241.000         205.000
  22760125.314     2271520.52649   1789427.91946  22760125.293    22760136.552
       225.000         178.000
  23649509.628   -12758548.40349  -9912857.79445  23649508.696    23649521.651
       216.000         158.000
  24245922.016    17467578.62849  13616270.33645  24245921.148    24245936.956
       208.000         143.000
  22516296.956   -12855656.73449  -9985817.76746  22516296.592    22516306.666
       227.000         176.000
  22812975.982   -10459936.20049  -8133735.31946  22812975.166    22812986.059
       225.000         174.000
 99 10  4 17 15  0.0000000  0  9G29G23G15G21G 3G25G17G 8G31
  20361714.997   -10433992.92449  -8114131.17148  20361715.148    20361722.094
       245.000         215.000
  23326363.882    11838489.06949   9228642.91846  23326363.874    23326375.328
       221.000         168.000
  23086670.766   -12361624.38849  -9598539.50245  23086669.581    23086681.454
       214.000         153.000
  21074354.443    -3756979.12749  -2911921.65947  21074353.958    21074362.570
       241.000         205.000
  22773991.216     2344385.74349   1846205.92046  22773991.474    22774002.343
       227.000         178.000
  23630910.942   -12856284.19549  -9989015.35645  23630909.812    23630923.060
       215.000         158.000
  24265986.713    17573018.14749  13698430.74845  24265987.726    24266001.230
       203.000         142.000
  22519138.376   -12840724.77149  -9974182.48746  22519138.445    22519148.347
       225.000         176.000
  22817408.370   -10436643.98449  -8115585.60546  22817408.137    22817418.643
       225.000         174.000
 99 10  4 17 15 30.0000000  0  9G29G23G15G21G 3G25G17G 8G31
  20366753.941   -10407513.28249  -8093497.70248  20366754.000    20366761.176
       245.000         214.000
  23336367.329    11891056.87349   9269604.71046  23336367.859    23336378.281
       222.000         168.000
  23067618.825   -12461742.47549  -9676553.48745  23067617.950    23067629.482
       215.000         155.000
  21075702.961    -3749892.71849  -2906399.81247  21075702.515    21075710.969
       242.000         205.000
  22787910.763     2417532.60949   1903203.39846  22787911.197    22787921.853
       227.000         178.000
  23612326.730   -12953944.13449 -10065113.79745  23612325.887    23612338.003
       217.000         158.000
  24286093.148    17678676.80149  13780761.92745  24286092.258    24286106.905
       207.000         140.000
  22522092.687   -12825199.67549  -9962085.02846  22522092.240    22522102.806
       226.000         176.000
  22821935.523   -10412853.91749  -8097047.96346  22821935.423    22821945.318
       225.000         174.000
 99 10  4 17 16  0.0000000  0  9G29G23G15G21G 3G25G17G 8G31
  20371877.867   -10380586.91149  -8072516.12848  20371878.022    20371885.074
       245.000         214.000
  23346391.942    11943735.66149   9310652.98746  23346392.589    23346402.826
       223.000         168.000
  23048596.939   -12561703.35949  -9754444.98445  23048596.539    23048607.995
       218.000         159.000
  21077086.874    -3742620.34249  -2900733.04547  21077086.567    21077095.114
       241.000         205.000
  22801885.415     2490969.34849   1960426.75146  22801885.573    22801896.677
       224.000         176.000
  23593760.005   -13051511.98049 -10141140.48245  23593759.890    23593771.658
       216.000         158.000
  24306244.087    17784570.03749  13863275.88645  24306244.517    24306260.767
       206.000         140.000
  22525161.608   -12809072.47149  -9949518.40546  22525161.485    22525171.645
       225.000         176.000
  22826562.588   -10388539.07049  -8078101.39046  22826562.420    22826573.093
       226.000         174.000
 99 10  4 17 16 30.0000000  0  9G29G23G15G21G 3G25G17G 8G31
  20377084.167   -10353227.86849  -8051197.41348  20377084.188    20377091.454
       245.000         214.000
  23356436.711    11996520.12049   9351783.60546  23356436.775    23356447.158
       222.000         167.000
  23029604.870   -12661507.35149  -9832214.23045  23029604.477    23029615.220
       218.000         162.000
  21078505.276    -3735166.74249  -2894925.07047  21078504.765    21078513.369
       241.000         205.000
  22815915.418     2564697.74449   2017877.36746  22815914.661    22815925.978
       225.000         175.000
  23575207.359   -13149006.14849 -10217109.74345  23575206.514    23575218.974
       216.000         158.000
  24326438.678    17890692.67549  13945968.60145  24326438.597    24326455.059
       209.000         139.000
  22528343.737   -12792350.13549  -9936488.06046  22528343.752    22528353.190
       225.000         175.000
  22831290.742   -10363692.80549  -8058740.72546  22831289.907    22831301.090
       226.000         174.000
 99 10  4 17 17  0.0000000  0  9G29G23G15G21G 3G25G17G 8G31
  20382368.489   -10325458.58749  -8029559.02748  20382368.570    20382375.513
       245.000         214.000
  23366499.754    12049401.34249   9392989.63146  23366499.099    23366511.275
       221.000         167.000
  23010642.990   -12761152.68749  -9909859.85546  23010642.394    23010653.557
       220.000         163.000
  21079957.559    -3727534.82449  -2888978.14547  21079957.019    21079965.757
       241.000         205.000
  22830000.768     2638716.14649   2075553.96946  22830001.039    22830012.069
       225.000         175.000
  23556668.718   -13246426.29649 -10293021.31845  23556667.798    23556680.926
       218.000         159.000
  24346674.402    17997030.50249  14028828.99145  24346674.438    24346692.139
       206.000         139.000
  22531639.428   -12775031.52749  -9922993.06846  22531639.101    22531649.130
       226.000         175.000
  22836119.184   -10338319.18349  -8038969.13546  22836118.664    22836128.654
       225.000         174.000
 99 10  4 17 17 30.0000000  0  9G29G23G15G21G 3G25G17G 8G31
  20387723.774   -10297316.45149  -8007630.11248  20387723.733    20387730.746
       245.000         214.000
  23376579.913    12102372.45549   9434265.68046  23376580.280    23376591.469
       222.000         168.000
  22991710.377   -12860644.25449  -9987385.67746  22991709.840    22991720.849
       222.000         165.000
  21081442.923    -3719729.33749  -2882895.97447  21081442.311    21081450.808
       242.000         205.000
  22844138.137     2713007.89149   2133443.54646  22844137.872    22844149.231
       224.000         174.000
  23538145.007   -13343768.43249 -10368872.11345  23538144.582    23538156.731
       217.000         159.000
  24366950.190    18103579.35549  14111853.79645  24366951.351    24366967.892
       209.000         141.000
  22535049.084   -12757114.05049  -9909031.44846  22535048.041    22535058.373
       226.000         175.000
  22841045.001   -10312433.89149  -8018798.84046  22841044.254    22841055.227
       225.000         173.000
 99 10  4 17 18  0.0000000  0  9G29G23G15G21G 3G25G17G 8G31
  20393144.184   -10268832.25049  -7985434.64248  20393144.190    20393151.324
       245.000         214.000
  23386674.343    12155418.36749   9475600.02346  23386674.352    23386686.140
       222.000         168.000
  22972805.254   -12959991.57749 -10064799.08246  22972804.808    22972815.254
       223.000         167.000
  21082957.228    -3711771.53449  -2876695.10447  21082956.863    21082965.696
       242.000         205.000
  22858323.429     2787552.06949   2191529.82246  22858323.632    22858334.822
       224.000         173.000
  23519635.220   -13441037.42949 -10444665.91545  23519634.736    23519646.860
       219.000         160.000
  24387261.310    18210313.44149  14195022.95945  24387261.240    24387277.036
       209.000         141.000
  22538572.914   -12738596.48849  -9894602.20946  22538573.001    22538582.888
       226.000         175.000
  22846061.117   -10286074.35249  -7998259.00146  22846060.741    22846071.434
       226.000         173.000
 99 10  4 17 18 30.0000000  0  9G29G23G15G21G 3G25G17G 8G31
  20398630.049   -10240004.04149  -7962971.12148  20398630.182    20398637.002
       245.000         214.000
  23396781.217    12208529.66249   9516985.31546  23396780.176    23396792.758
       221.000         167.000
  22953926.265   -13059201.54249 -10142105.47246  22953925.828    22953936.552
       223.000         168.000
  21084500.840    -3703660.17049  -2870374.58747  21084500.464    21084509.004
       241.000         205.000
  22872553.078     2862328.79449   2249797.30446  22872552.621    22872564.177
       223.000         173.000
  23501134.275   -13538260.59049 -10520423.98445  23501132.924    23501145.969
       219.000         161.000
  24407602.281    18317204.39449  14278314.30345  24407602.279    24407619.342
       209.000         142.000
  22542211.319   -12719477.14049  -9879704.05746  22542210.892    22542221.705
       227.000         176.000
  22851162.698   -10259265.54849  -7977369.09046  22851162.100    22851172.552
       225.000         172.000
 99 10  4 17 19  0.0000000  0  9G29G23G15G21G 3G25G17G 8G31
  20404181.027   -10210833.59449  -7940240.91948  20404180.780    20404187.876
       245.000         214.000
  23406899.670    12261702.18149   9558418.32446  23406899.940    23406911.187
       220.000         166.000
  22935073.965   -13158271.29449 -10219302.60246  22935073.409    22935083.631
       222.000         167.000
  21086073.221    -3695397.34749  -2863936.04447  21086072.756    21086081.469
       242.000         205.000
  22886822.865     2937316.76249   2308229.39346  22886822.592    22886832.918
       224.000         173.000
  23482645.617   -13635418.08749 -10596130.88345  23482644.993    23482657.306
       216.000         160.000
  24427971.711    18424245.76649  14361722.87745  24427972.037    24427988.888
       212.000         142.000
  22545965.199   -12699750.67249  -9864332.81946  22545964.623    22545975.244
       226.000         176.000
  22856349.866   -10232006.93449  -7956128.67146  22856349.199    22856359.944
       226.000         172.000
 99 10  4 17 19 30.0000000  0  9G29G23G15G21G 3G25G17G 8G31
  20409798.983   -10181310.98049  -7917236.30148  20409798.860    20409805.996
       245.000         214.000
  23417028.764    12314930.39649   9599894.73246  23417028.249    23417040.848
       220.000         165.000
  22916248.309   -13257200.83549 -10296390.47446  22916247.282    22916257.740
       221.000         166.000
  21087671.597    -3686998.00049  -2857391.11747  21087671.279    21087679.821
       242.000         205.000
  22901131.970     3012511.39849   2366822.52146  22901131.507    22901142.468
       223.000         172.000
  23464170.703   -13732503.20249 -10671781.38345  23464170.463    23464181.841
       219.000         161.000
  24448370.144    18531438.38949  14445249.32045  24448370.036    24448385.514
       202.000         141.000
  22549833.464   -12679422.76749  -9848492.92146  22549832.995    22549843.463
       226.000         175.000
  22861625.295   -10204284.31849  -7934526.68446  22861625.066    22861635.627
       225.000         172.000
 99 10  4 17 20  0.0000000  0  9G29G23G15G21G 3G25G17G 8G31
  20415486.715   -10151421.88949  -7893946.11648  20415486.733    20415493.739
       245.000         214.000
  23427169.412    12368219.42949   9641418.51746  23427169.778    23427180.900
       221.000         165.000
  22897449.816   -13355987.19749 -10373366.77746  22897449.186    22897458.673
       219.000         165.000
  21089294.865    -3678467.98549  -2850744.36847  21089294.685    21089303.076
       242.000         206.000
  22915481.593     3087918.72549   2425581.37046  22915481.312    22915492.628
       223.000         172.000
  23445707.345   -13829528.16049 -10747385.00645  23445705.676    23445717.969
       220.000         162.000
  24468797.109    18638782.48049  14528893.73145  24468796.784    24468815.943
       209.000         142.000
  22553814.470   -12658502.40649  -9832191.37246  22553814.239    22553823.893
       225.000         175.000
  22866991.562   -10176084.88549  -7912553.16346  22866991.351    22867001.449
       226.000         172.000
 99 10  4 17 20 30.0000000  0  9G29G23G15G21G 3G25G17G 8G31
  20421245.316   -10121160.25349  -7870365.63448  20421245.356    20421252.557
       245.000         214.000
  23437320.689    12421563.95549   9682985.55346  23437321.020    23437332.374
       220.000         165.000
  22878680.426   -13454620.35749 -10450223.69046  22878679.060    22878691.122
       219.000         164.000
  21090945.758    -3669792.64349  -2843984.36947  21090945.432    21090953.829
       242.000         206.000
  22929872.974     3163545.59549   2484511.30546  22929872.969    22929884.749
       224.000         172.000
  23427257.131   -13926484.13549 -10822934.86346  23427256.268    23427268.136
       222.000         164.000
  24489257.075    18746299.38849  14612672.83645  24489256.001    24489272.970
       210.000         140.000
  22557905.428   -12637004.31549  -9815439.63846  22557904.907    22557915.280
       226.000         175.000
  22872452.839   -10147385.83449  -7890190.32346  22872452.101    22872463.293
       225.000         172.000
 99 10  4 17 21  0.0000000  0 10G29G23G15G21G 3G25G17G 1G 8G31
  20427071.887   -10090541.57449  -7846506.94348  20427072.032    20427078.935
       245.000         214.000
  23447480.538    12474953.32549   9724587.52646  23447480.837    23447492.709
       220.000         164.000
  22859939.287   -13553105.16749 -10526965.02346  22859938.194    22859949.854
       220.000         163.000
  21092621.188    -3660988.09549  -2837123.69547  21092620.613    21092629.465
       242.000         205.000
  22944305.294     3239387.36149   2543608.69046  22944305.218    22944316.329
       223.000         171.000
  23408823.507   -14023353.05949 -10898416.89946  23408824.008    23408834.515
       223.000         166.000
  24509751.262    18853996.28349  14696592.18945  24509751.942    24509769.325
       205.000         141.000
  24645564.232    -2797233.72849  -1498149.69845  24645564.041    24645578.740
       199.000         137.000
  22562101.359   -12614954.45849  -9798257.95846  22562100.683    22562111.309
       225.000         175.000
  22878009.567   -10118185.44349  -7867436.83946  22878009.144    22878018.978
       225.000         172.000
 99 10  4 17 21 30.0000000  0  9G29G23G15G21G 3G25G 1G 8G31
  20432967.991   -10059557.33049  -7822363.38948  20432967.991    20432975.202
       245.000         214.000
  23457652.651    12528408.15749   9766240.49646  23457652.405    23457663.908
       220.000         163.000
  22841227.398   -13651436.04049 -10603586.40146  22841226.048    22841236.813
       219.000         163.000
  21094323.200    -3652044.02549  -2830154.30147  21094322.924    21094331.406
       242.000         205.000
  22958780.921     3315457.01149   2602883.64346  22958781.236    22958792.448
       224.000         172.000
  23390406.803   -14120132.89949 -10973829.52746  23390405.719    23390417.530
       222.000         167.000
  24627551.863    -2891888.62749  -1571906.58545  24627550.502    24627566.022
       199.000         136.000
  22566401.456   -12592357.33049  -9780649.82346  22566400.996    22566410.935
       226.000         175.000
  22883661.009   -10088487.20049  -7844295.40546  22883660.981    22883670.628
       225.000         172.000
 99 10  4 17 22  0.0000000  0  9G29G23G15G21G 3G25G 1G 8G31
  20438933.671   -10028207.63449  -7797935.07148  20438933.741    20438940.779
       245.000         214.000
  23467839.025    12581937.87249   9807951.84046  23467838.184    23467850.300
       218.000         163.000
  22822546.549   -13749604.16649 -10680080.97245  22822546.610    22822555.900
       219.000         162.000
  21096056.655    -3642934.87849  -2823056.28147  21096056.534    21096064.547
       242.000         205.000
  22973300.983     3391760.07749   2662340.47046  22973300.545    22973312.422
       223.000         173.000
  23372009.263   -14216811.79549 -11049163.49046  23372008.505    23372019.876
       223.000         167.000
  24609571.558    -2986375.59449  -1645532.61245  24609571.438    24609586.668
       200.000         136.000
  22570806.345   -12569209.83449  -9762612.83446  22570805.936    22570816.426
       227.000         175.000
  22889404.140   -10058307.39149  -7820778.70946  22889404.705    22889413.903
       224.000         171.000
 99 10  4 17 22 30.0000000  0  9G29G23G15G21G 3G25G 1G 8G31
  20444970.640    -9996483.37449  -7773214.88248  20444970.481    20444977.568
       245.000         214.000
  23478043.406    12635562.50449   9849737.13445  23478042.729    23478055.622
       218.000         162.000
  22803899.800   -13847593.34649 -10756436.10146  22803898.200    22803910.149
       220.000         163.000
  21097823.572    -3633649.98349  -2815821.31147  21097823.031    21097831.698
       242.000         205.000
  22987866.736     3468303.33449   2721984.45346  22987866.561    22987877.352
       223.000         173.000
  23353636.603   -14313360.10149 -11124395.69246  23353635.604    23353646.892
       223.000         167.000
  24591625.964    -3080679.64449  -1719016.10845  24591624.483    24591640.203
       201.000         138.000
  22575319.729   -12545491.95849  -9744131.39046  22575319.222    22575330.039
       225.000         175.000
  22895240.663   -10027636.36149  -7796879.27246  22895240.435    22895251.113
       225.000         171.000
 99 10  4 17 23  0.0000000  0  9G29G23G15G21G 3G25G 1G 8G31
  20451077.782    -9964390.13549  -7748207.17748  20451077.554    20451084.731
       245.000         214.000
  23488270.035    12689303.39049   9891613.01845  23488270.149    23488282.327
       219.000         162.000
  22785285.229   -13945413.11949 -10832659.23246  22785283.876    22785295.370
       221.000         163.000
  21099620.894    -3624204.76649  -2808461.42247  21099620.437    21099629.017
       241.000         205.000
  23002474.183     3545065.23749   2781798.81146  23002474.458    23002485.278
       224.000         172.000
  23335286.348   -14409789.99649 -11199535.64246  23335285.518    23335297.475
       221.000         167.000
  24573713.454    -3174809.56549  -1792363.92245  24573713.112    24573727.791
       204.000         141.000
  22579943.004   -12521196.78249  -9725200.09046  22579942.081    22579953.123
       227.000         175.000
  22901168.089    -9996487.74649  -7772607.67746  22901167.542    22901177.732
       225.000         171.000
 99 10  4 17 23 30.0000000  0  9G29G23G15G21G 3G25G 1G 8G31
  20457253.571    -9931936.31349  -7722918.50548  20457253.698    20457260.530
       245.000         214.000
  23498518.049    12743156.16649   9933576.08645  23498518.944    23498530.061
       219.000         162.000
  22766702.715   -14043064.56449 -10908751.18846  22766701.900    22766712.270
       221.000         163.000
  21101447.873    -3614603.86349  -2800980.21547  21101447.582    21101456.124
       241.000         205.000
  23017120.386     3622030.94749   2841771.98946  23017120.279    23017131.076
       223.000         171.000
  23316955.170   -14506119.72349 -11274597.53546  23316953.869    23316965.680
       221.000         167.000
  24555832.605    -3268773.93249  -1865582.69645  24555831.751    24555845.924
       207.000         142.000
  22584677.817   -12496315.37649  -9705811.99746  22584677.063    22584688.065
       226.000         175.000
  22907182.756    -9964880.64749  -7747978.82846  22907182.757    22907193.208
       225.000         171.000
 99 10  4 17 24  0.0000000  0  9G29G23G15G21G 3G25G 1G 8G31
  20463496.465    -9899129.69649  -7697354.92348  20463496.306    20463503.535
       245.000         214.000
  23508785.156    12797109.47949   9975617.49345  23508785.217    23508796.629
       219.000         161.000
  22748152.004   -14140548.67549 -10984712.76346  22748151.133    22748162.170
       221.000         163.000
  21103302.707    -3604856.86349  -2793385.16747  21103302.428    21103310.825
       241.000         205.000
  23031804.392     3699195.27949   2901899.93546  23031804.264    23031815.843
       223.000         170.000
  23298640.431   -14602363.40249 -11349592.40146  23298639.488    23298650.467
       222.000         167.000
  24537983.805    -3362569.59749  -1938670.02145  24537982.678    24537998.019
       209.000         144.000
  22589525.662   -12470839.69149  -9685960.82746  22589524.767    22589535.297
       225.000         175.000
  22913282.602    -9932826.00249  -7723001.24446  22913282.065    22913293.393
       225.000         171.000
 99 10  4 17 24 30.0000000  0  9G29G23G15G21G 3G25G 1G 8G31
  20469804.763    -9865979.27649  -7671523.44448  20469804.809    20469811.954
       245.000         214.000
  23519070.533    12851158.68149  10017733.62345  23519070.556    23519082.457
       218.000         160.000
  22729632.348   -14237869.73949 -11060547.28646  22729630.584    22729641.221
       222.000         164.000
  21105183.589    -3594972.93049  -2785683.41547  21105183.176    21105191.503
       241.000         205.000
  23046522.988     3776541.57149   2962169.67346  23046522.455    23046534.363
       222.000         171.000
  23280340.966   -14698526.05149 -11424524.11846  23280340.006    23280351.904
       221.000         166.000
  24520167.140    -3456196.24449  -2011625.64745  24520166.642    24520180.957
       211.000         144.000
  22594486.003   -12444772.44949  -9665648.70546  22594485.943    22594496.585
       225.000         174.000
  22919467.677    -9900323.51349  -7697674.68246  22919466.933    22919477.114
       224.000         171.000
 99 10  4 17 25  0.0000000  0  9G29G23G15G21G 3G25G 1G 8G31
  20476179.016    -9832482.64649  -7645422.19248  20476179.146    20476186.172
       245.000         214.000
  23529369.852    12905281.45449  10059907.07945  23529369.626    23529381.785
       218.000         161.000
  22711143.835   -14335027.33049 -11136254.41546  22711143.283    22711153.566
       221.000         164.000
  21107094.490    -3584931.05849  -2777858.59747  21107094.203    21107102.541
       242.000         205.000
  23061276.219     3854070.22049   3022581.48746  23061276.620    23061287.685
       221.000         171.000
  23262057.263   -14794606.24449 -11499391.60546  23262056.863    23262067.325
       221.000         166.000
  24502381.529    -3549659.78049  -2084454.17045  24502381.304    24502395.199
       212.000         144.000
  22599558.754   -12418114.93649  -9644876.63646  22599558.521    22599568.482
       226.000         175.000
  22925736.980    -9867377.89749  -7672002.83346  22925737.572    22925747.355
       224.000         171.000
 99 10  4 17 25 30.0000000  0  9G29G23G15G21G 3G25G 1G 8G31
  20482619.324    -9798638.64949  -7619050.26148  20482619.258    20482626.467
       245.000         214.000
  23539679.753    12959460.10249  10102124.07045  23539679.789    23539692.278
       217.000         161.000
  22692687.655   -14432014.84949 -11211829.01646  22692686.590    22692697.685
       222.000         165.000
  21109038.549    -3574715.05749  -2769898.09147  21109038.267    21109046.804
       241.000         205.000
  23076065.920     3931790.81849   3083142.87146  23076065.832    23076077.154
       220.000         169.000
  23243791.207   -14890594.13449 -11574187.16546  23243790.389    23243801.883
       220.000         166.000
  24484626.935    -3642960.23249  -2157155.62545  24484626.006    24484640.292
       209.000         142.000
  22604742.920   -12390872.40649  -9623648.70146  22604742.772    22604752.918
       225.000         175.000
  22932091.262    -9833986.21249  -7645983.39646  22932090.744    22932101.653
       224.000         171.000
 99 10  4 17 26  0.0000000  0  9G29G23G15G21G 3G25G 1G 8G31
  20489126.093    -9764445.09149  -7592405.94548  20489125.893    20489132.951
       245.000         214.000
  23550001.692    13013701.76349  10144390.16145  23550001.014    23550013.922
       216.000         160.000
  22674265.219   -14528824.95549 -11287265.38946  22674264.313    22674275.428
       222.000         165.000
  21111019.813    -3564303.45349  -2761785.17147  21111019.685    21111027.922
       242.000         205.000
  23090895.617     4009720.70949   3143867.35246  23090894.916    23090906.929
       222.000         169.000
  23225547.057   -14986466.95949 -11648893.07746  23225546.369    23225557.442
       220.000         165.000
  24466907.758    -3736074.20249  -2229711.75145  24466906.593    24466922.445
       210.000         141.000
  22610036.843   -12363053.03449  -9601971.28446  22610037.227    22610046.670
       226.000         175.000
  22938534.180    -9800129.05449  -7619601.24146  22938533.943    22938545.427
       223.000         172.000
 99 10  4 17 26 30.0000000  0  9G29G23G15G21G 3G25G 1G 8G31
  20495698.150    -9729908.96549  -7565494.69548  20495698.183    20495705.344
       245.000         214.000
  23560335.540    13068006.53849  10186705.43045  23560335.339    23560347.770
       218.000         160.000
  22655877.584   -14625452.41749 -11362559.42846  22655877.113    22655887.685
       222.000         167.000
  21113040.117    -3553687.05449  -2753512.67647  21113040.076    21113048.446
       242.000         205.000
  23105765.265     4087860.50549   3204755.40446  23105765.701    23105776.696
       222.000         169.000
  23207328.181   -15082207.15749 -11723495.66746  23207326.662    23207338.388
       219.000         166.000
  24449224.067    -3829002.00749  -2302122.81645  24449223.275    24449238.325
       211.000         141.000
  22615438.725   -12334666.20949  -9579851.71446  22615438.558    22615448.471
       226.000         175.000
  22945068.975    -9765788.55449  -7592842.45446  22945068.010    22945078.717
       224.000         171.000
 99 10  4 17 27  0.0000000  0  9G29G23G15G21G 3G25G 1G 8G31
  20502334.360    -9695035.54749  -7538320.61948  20502334.389    20502341.371
       246.000         214.000
  23570684.462    13122389.28849  10229081.46145  23570684.475    23570696.939
       218.000         161.000
  22637526.174   -14721889.73049 -11437705.31146  22637525.197    22637536.149
       222.000         167.000
  21115098.652    -3542869.52549  -2745083.44947  21115098.302    21115106.889
       241.000         205.000
  23120677.484     4166224.55149   3265818.20146  23120678.038    23120689.315
       222.000         169.000
  23189133.371   -15177820.37849 -11797999.30446  23189132.827    23189143.929
       220.000         166.000
  24431576.201    -3921741.63949  -2374387.26845  24431574.913    24431589.258
       213.000         141.000
  22620948.875   -12305710.57849  -9557288.91946  22620948.863    22620958.867
       225.000         175.000
  22951695.838    -9730964.48449  -7565706.85846  22951696.301    22951705.892
       224.000         172.000
 99 10  4 17 27 30.0000000  0  9G29G23G15G21G 3G25G 1G 8G31
  20509031.863    -9659840.16749  -7510895.66648  20509031.903    20509038.968
       245.000         214.000
  23581050.438    13176862.26949  10271527.79145  23581050.668    23581062.859
       219.000         160.000
  22619211.391   -14818134.24849 -11512700.95246  22619210.816    22619221.962
       222.000         167.000
  21117189.000    -3531884.90849  -2736524.02247  21117188.425    21117197.337
       242.000         205.000
  23135633.290     4244816.85749   3327058.83646  23135633.124    23135644.557
       221.000         169.000
  23170961.058   -15273315.94449 -11872411.27546  23170960.218    23170971.821
       222.000         165.000
  24413965.517    -4014285.43049  -2446499.12345  24413964.804    24413977.824
       213.000         143.000
  22626564.764   -12276198.95449  -9534292.89046  22626564.545    22626574.452
       226.000         174.000
  22958413.591    -9695662.50549  -7538198.90046  22958413.271    22958423.592
       222.000         171.000
 99 10  4 17 28  0.0000000  0  9G29G23G15G21G 3G25G 1G 8G31
  20515788.755    -9624332.51749  -7483227.38548  20515788.655    20515796.073
       245.000         214.000
  23591431.339    13231413.78449  10314035.32045  23591430.473    23591443.544
       215.000         159.000
  22600932.848   -14914188.37449 -11587548.23546  22600932.410    22600941.738
       222.000         167.000
  21119305.871    -3520760.68949  -2727855.81747  21119305.379    21119314.036
       241.000         204.000
  23150631.185     4323630.76349   3388472.14446  23150630.992    23150642.922
       221.000         169.000
  23152811.901   -15368689.69949 -11946728.34146  23152811.352    23152822.131
       221.000         166.000
  24396391.235    -4106638.04049  -2518462.00745  24396390.940    24396403.879
       215.000         145.000
  22632284.271   -12246143.02949  -9510872.75546  22632283.866    22632294.049
       226.000         174.000
  22965218.356    -9659903.63449  -7510334.89646  22965217.751    22965227.935
       222.000         170.000
 99 10  4 17 28 30.0000000  0  9G29G23G15G21G 3G25G 1G 8G31
  20522607.080    -9588502.05649  -7455307.56348  20522606.955    20522614.110
       245.000         214.000
  23601828.264    13286050.11849  10356608.93445  23601828.234    23601840.409
       215.000         158.000
  22582692.634   -15010041.10449 -11662238.58946  22582691.778    22582702.171
       222.000         166.000
  21121447.802    -3509504.89149  -2719085.08147  21121447.486    21121455.850
       241.000         204.000
  23165667.776     4402648.37449   3450044.20646  23165667.442    23165679.001
       221.000         168.000
  23134684.974   -15463946.69049 -12020954.43046  23134684.611    23134695.762
       223.000         166.000
  24378852.343    -4198805.03949  -2590280.24545  24378851.222    24378865.498
       215.000         145.000
  22638109.773   -12215530.25549  -9487018.71446  22638109.253    22638120.396
       225.000         174.000
  22972107.321    -9623701.86449  -7482125.78746  22972107.371    22972117.542
       222.000         170.000
 99 10  4 17 29  0.0000000  0  9G29G23G15G21G 3G25G 1G 8G31
  20529488.166    -9552341.78449  -7427130.74848  20529487.971    20529495.117
       244.000         213.000
  23612241.014    13340769.15949  10399246.99045  23612241.525    23612253.140
       217.000         159.000
  22564491.308   -15105689.49049 -11736769.70546  22564490.478    22564501.316
       222.000         167.000
  21123614.858    -3498116.94049  -2710211.37247  21123614.596    21123623.113
       241.000         204.000
  23180741.936     4481863.02749   3511769.80046  23180742.686    23180753.391
       222.000         167.000
  23116579.859   -15559089.22249 -12095091.32446  23116579.605    23116590.431
       222.000         167.000
  24361349.020    -4290785.09449  -2661952.82245  24361348.469    24361361.765
       213.000         145.000
  22644040.958   -12184361.56849  -9462731.49446  22644040.197    22644050.271
       224.000         174.000
  22979077.990    -9587071.09149  -7453582.38546  22979077.576    22979088.060
       222.000         169.000
 99 10  4 17 29 30.0000000  0  9G29G23G15G21G 3G25G 1G 8G31
  20536432.053    -9515851.40549  -7398696.71548  20536432.094    20536439.156
       245.000         213.000
  23622664.772    13395545.15749  10441929.44045  23622664.889    23622677.759
       217.000         159.000
  22546327.205   -15201142.13249 -11811148.31046  22546326.923    22546336.344
       223.000         167.000
  21125806.133    -3486601.87449  -2701238.61847  21125805.779    21125814.286
       242.000         204.000
  23195846.561     4561237.89749   3573620.24146  23195846.170    23195857.812
       221.000         166.000
  23098498.227   -15654108.55749 -12169132.23546  23098497.683    23098509.129
       222.000         168.000
  24343880.029    -4382584.44749  -2733484.59745  24343879.113    24343892.663
       215.000         145.000
  22650076.091   -12152647.05349  -9438018.96746  22650075.589    22650086.154
       224.000         173.000
  22986127.991    -9550023.20949  -7424713.97046  22986128.155    22986138.207
       223.000         169.000
